<?xml version="1.0" encoding="UTF-8" standalone="no" ?>
<gpx xmlns="http://www.topografix.com/GPX/1/1" xmlns:xsi="http://www.w3.org/2001/XMLSchema-instance" xsi:schemaLocation="http://www.topografix.com/GPX/1/1 http://www.topografix.com/GPX/1/1/gpx.xsd" version="1.1" creator="VisuGPX - https://www.visugpx.com">
  <metadata>
    <name>2016-05-02 - Bergholtz-Zell, Guebwiller</name>
    <desc><![CDATA[2016-05-02 - Bergholtz-Zell, Guebwiller - Isabelle & Denis]]></desc>
  </metadata>
  <trk>
    <name><![CDATA[MAI-02-16 16:04:10]]></name>
    <trkseg>
      <trkpt lat="47.92846" lon="7.23462">
        <ele>180.38</ele>
        <time>2016-05-02T08:05:37Z</time>
      </trkpt>
      <trkpt lat="47.92847" lon="7.23462">
        <ele>182.31</ele>
        <time>2016-05-02T08:06:20Z</time>
      </trkpt>
      <trkpt lat="47.92847" lon="7.23463">
        <ele>269.79</ele>
        <time>2016-05-02T08:06:23Z</time>
      </trkpt>
      <trkpt lat="47.92847" lon="7.23463">
        <ele>269.79</ele>
        <time>2016-05-02T08:06:24Z</time>
      </trkpt>
      <trkpt lat="47.92847" lon="7.23462">
        <ele>270.27</ele>
        <time>2016-05-02T08:07:13Z</time>
      </trkpt>
      <trkpt lat="47.92852" lon="7.23452">
        <ele>268.83</ele>
        <time>2016-05-02T08:07:24Z</time>
      </trkpt>
      <trkpt lat="47.92861" lon="7.2344">
        <ele>268.35</ele>
        <time>2016-05-02T08:07:37Z</time>
      </trkpt>
      <trkpt lat="47.92865" lon="7.23435">
        <ele>269.31</ele>
        <time>2016-05-02T08:07:41Z</time>
      </trkpt>
      <trkpt lat="47.92868" lon="7.23429">
        <ele>267.86</ele>
        <time>2016-05-02T08:07:46Z</time>
      </trkpt>
      <trkpt lat="47.92865" lon="7.23413">
        <ele>270.27</ele>
        <time>2016-05-02T08:08:00Z</time>
      </trkpt>
      <trkpt lat="47.92864" lon="7.23403">
        <ele>273.63</ele>
        <time>2016-05-02T08:08:29Z</time>
      </trkpt>
      <trkpt lat="47.92863" lon="7.23382">
        <ele>276.52</ele>
        <time>2016-05-02T08:08:55Z</time>
      </trkpt>
      <trkpt lat="47.92864" lon="7.23383">
        <ele>276.52</ele>
        <time>2016-05-02T08:09:11Z</time>
      </trkpt>
      <trkpt lat="47.92858" lon="7.2338">
        <ele>277</ele>
        <time>2016-05-02T08:09:27Z</time>
      </trkpt>
      <trkpt lat="47.9286" lon="7.23386">
        <ele>276.04</ele>
        <time>2016-05-02T08:09:41Z</time>
      </trkpt>
      <trkpt lat="47.92855" lon="7.23394">
        <ele>277.48</ele>
        <time>2016-05-02T08:09:53Z</time>
      </trkpt>
      <trkpt lat="47.92851" lon="7.23398">
        <ele>276.52</ele>
        <time>2016-05-02T08:10:05Z</time>
      </trkpt>
      <trkpt lat="47.92848" lon="7.23411">
        <ele>276.52</ele>
        <time>2016-05-02T08:10:18Z</time>
      </trkpt>
      <trkpt lat="47.92846" lon="7.23423">
        <ele>274.59</ele>
        <time>2016-05-02T08:10:26Z</time>
      </trkpt>
      <trkpt lat="47.92844" lon="7.23433">
        <ele>275.07</ele>
        <time>2016-05-02T08:10:33Z</time>
      </trkpt>
      <trkpt lat="47.92832" lon="7.23446">
        <ele>275.07</ele>
        <time>2016-05-02T08:10:57Z</time>
      </trkpt>
      <trkpt lat="47.92825" lon="7.2344">
        <ele>276.52</ele>
        <time>2016-05-02T08:11:16Z</time>
      </trkpt>
      <trkpt lat="47.92828" lon="7.23434">
        <ele>277</ele>
        <time>2016-05-02T08:11:28Z</time>
      </trkpt>
      <trkpt lat="47.92831" lon="7.23418">
        <ele>277.96</ele>
        <time>2016-05-02T08:11:46Z</time>
      </trkpt>
      <trkpt lat="47.92823" lon="7.23426">
        <ele>278.44</ele>
        <time>2016-05-02T08:11:58Z</time>
      </trkpt>
      <trkpt lat="47.9282" lon="7.23426">
        <ele>279.88</ele>
        <time>2016-05-02T08:12:13Z</time>
      </trkpt>
      <trkpt lat="47.92821" lon="7.23395">
        <ele>282.28</ele>
        <time>2016-05-02T08:12:33Z</time>
      </trkpt>
      <trkpt lat="47.92818" lon="7.23383">
        <ele>284.21</ele>
        <time>2016-05-02T08:12:42Z</time>
      </trkpt>
      <trkpt lat="47.92813" lon="7.23369">
        <ele>286.13</ele>
        <time>2016-05-02T08:12:56Z</time>
      </trkpt>
      <trkpt lat="47.92811" lon="7.23369">
        <ele>286.61</ele>
        <time>2016-05-02T08:13:03Z</time>
      </trkpt>
      <trkpt lat="47.92806" lon="7.23375">
        <ele>287.09</ele>
        <time>2016-05-02T08:13:18Z</time>
      </trkpt>
      <trkpt lat="47.92805" lon="7.2338">
        <ele>287.57</ele>
        <time>2016-05-02T08:13:32Z</time>
      </trkpt>
      <trkpt lat="47.92794" lon="7.23382">
        <ele>288.05</ele>
        <time>2016-05-02T08:13:48Z</time>
      </trkpt>
      <trkpt lat="47.92785" lon="7.23387">
        <ele>288.53</ele>
        <time>2016-05-02T08:14:00Z</time>
      </trkpt>
      <trkpt lat="47.92789" lon="7.23373">
        <ele>289.97</ele>
        <time>2016-05-02T08:14:14Z</time>
      </trkpt>
      <trkpt lat="47.92781" lon="7.23366">
        <ele>291.9</ele>
        <time>2016-05-02T08:14:30Z</time>
      </trkpt>
      <trkpt lat="47.92773" lon="7.23359">
        <ele>294.78</ele>
        <time>2016-05-02T08:14:47Z</time>
      </trkpt>
      <trkpt lat="47.92771" lon="7.23357">
        <ele>298.15</ele>
        <time>2016-05-02T08:15:00Z</time>
      </trkpt>
      <trkpt lat="47.92778" lon="7.23351">
        <ele>295.74</ele>
        <time>2016-05-02T08:15:20Z</time>
      </trkpt>
      <trkpt lat="47.9279" lon="7.23349">
        <ele>292.86</ele>
        <time>2016-05-02T08:15:33Z</time>
      </trkpt>
      <trkpt lat="47.92791" lon="7.23349">
        <ele>292.86</ele>
        <time>2016-05-02T08:15:43Z</time>
      </trkpt>
      <trkpt lat="47.92795" lon="7.2335">
        <ele>291.42</ele>
        <time>2016-05-02T08:15:59Z</time>
      </trkpt>
      <trkpt lat="47.928" lon="7.23356">
        <ele>290.46</ele>
        <time>2016-05-02T08:16:11Z</time>
      </trkpt>
      <trkpt lat="47.9281" lon="7.23354">
        <ele>287.57</ele>
        <time>2016-05-02T08:16:24Z</time>
      </trkpt>
      <trkpt lat="47.92809" lon="7.23355">
        <ele>287.09</ele>
        <time>2016-05-02T08:16:34Z</time>
      </trkpt>
      <trkpt lat="47.92812" lon="7.23365">
        <ele>285.17</ele>
        <time>2016-05-02T08:16:41Z</time>
      </trkpt>
      <trkpt lat="47.9282" lon="7.2337">
        <ele>284.21</ele>
        <time>2016-05-02T08:16:55Z</time>
      </trkpt>
      <trkpt lat="47.92834" lon="7.23371">
        <ele>281.8</ele>
        <time>2016-05-02T08:17:08Z</time>
      </trkpt>
      <trkpt lat="47.92849" lon="7.23375">
        <ele>279.4</ele>
        <time>2016-05-02T08:17:25Z</time>
      </trkpt>
      <trkpt lat="47.9286" lon="7.23371">
        <ele>277.48</ele>
        <time>2016-05-02T08:17:41Z</time>
      </trkpt>
      <trkpt lat="47.92861" lon="7.23369">
        <ele>278.92</ele>
        <time>2016-05-02T08:17:43Z</time>
      </trkpt>
      <trkpt lat="47.92858" lon="7.23358">
        <ele>280.36</ele>
        <time>2016-05-02T08:17:57Z</time>
      </trkpt>
      <trkpt lat="47.92855" lon="7.23351">
        <ele>282.28</ele>
        <time>2016-05-02T08:18:08Z</time>
      </trkpt>
      <trkpt lat="47.92857" lon="7.23352">
        <ele>282.77</ele>
        <time>2016-05-02T08:18:34Z</time>
      </trkpt>
      <trkpt lat="47.9286" lon="7.23362">
        <ele>279.88</ele>
        <time>2016-05-02T08:18:44Z</time>
      </trkpt>
      <trkpt lat="47.92864" lon="7.23373">
        <ele>276.52</ele>
        <time>2016-05-02T08:18:59Z</time>
      </trkpt>
      <trkpt lat="47.92864" lon="7.23375">
        <ele>276.52</ele>
        <time>2016-05-02T08:19:01Z</time>
      </trkpt>
      <trkpt lat="47.92872" lon="7.23392">
        <ele>273.15</ele>
        <time>2016-05-02T08:19:17Z</time>
      </trkpt>
      <trkpt lat="47.92872" lon="7.23394">
        <ele>273.15</ele>
        <time>2016-05-02T08:19:18Z</time>
      </trkpt>
      <trkpt lat="47.9288" lon="7.23405">
        <ele>269.31</ele>
        <time>2016-05-02T08:19:34Z</time>
      </trkpt>
      <trkpt lat="47.92888" lon="7.234">
        <ele>269.31</ele>
        <time>2016-05-02T08:19:45Z</time>
      </trkpt>
      <trkpt lat="47.9289" lon="7.23395">
        <ele>269.31</ele>
        <time>2016-05-02T08:19:49Z</time>
      </trkpt>
      <trkpt lat="47.92894" lon="7.23389">
        <ele>269.31</ele>
        <time>2016-05-02T08:19:55Z</time>
      </trkpt>
      <trkpt lat="47.92908" lon="7.23376">
        <ele>268.35</ele>
        <time>2016-05-02T08:20:11Z</time>
      </trkpt>
      <trkpt lat="47.92916" lon="7.23368">
        <ele>271.23</ele>
        <time>2016-05-02T08:20:20Z</time>
      </trkpt>
      <trkpt lat="47.92921" lon="7.23362">
        <ele>267.38</ele>
        <time>2016-05-02T08:20:25Z</time>
      </trkpt>
      <trkpt lat="47.92922" lon="7.23361">
        <ele>267.86</ele>
        <time>2016-05-02T08:20:26Z</time>
      </trkpt>
      <trkpt lat="47.92923" lon="7.2336">
        <ele>271.23</ele>
        <time>2016-05-02T08:20:27Z</time>
      </trkpt>
      <trkpt lat="47.92924" lon="7.23359">
        <ele>270.27</ele>
        <time>2016-05-02T08:20:28Z</time>
      </trkpt>
      <trkpt lat="47.92926" lon="7.23357">
        <ele>268.83</ele>
        <time>2016-05-02T08:20:30Z</time>
      </trkpt>
      <trkpt lat="47.92927" lon="7.23356">
        <ele>270.27</ele>
        <time>2016-05-02T08:20:31Z</time>
      </trkpt>
      <trkpt lat="47.92936" lon="7.23347">
        <ele>268.35</ele>
        <time>2016-05-02T08:20:43Z</time>
      </trkpt>
      <trkpt lat="47.92938" lon="7.23344">
        <ele>266.9</ele>
        <time>2016-05-02T08:20:46Z</time>
      </trkpt>
      <trkpt lat="47.92939" lon="7.23342">
        <ele>268.35</ele>
        <time>2016-05-02T08:20:47Z</time>
      </trkpt>
      <trkpt lat="47.92945" lon="7.23334">
        <ele>267.38</ele>
        <time>2016-05-02T08:20:55Z</time>
      </trkpt>
      <trkpt lat="47.92946" lon="7.23332">
        <ele>270.75</ele>
        <time>2016-05-02T08:20:57Z</time>
      </trkpt>
      <trkpt lat="47.92949" lon="7.23329">
        <ele>267.38</ele>
        <time>2016-05-02T08:20:59Z</time>
      </trkpt>
      <trkpt lat="47.92949" lon="7.23328">
        <ele>268.83</ele>
        <time>2016-05-02T08:21:00Z</time>
      </trkpt>
      <trkpt lat="47.92958" lon="7.23312">
        <ele>270.75</ele>
        <time>2016-05-02T08:21:12Z</time>
      </trkpt>
      <trkpt lat="47.92946" lon="7.23288">
        <ele>273.15</ele>
        <time>2016-05-02T08:21:29Z</time>
      </trkpt>
      <trkpt lat="47.92945" lon="7.23287">
        <ele>272.67</ele>
        <time>2016-05-02T08:21:30Z</time>
      </trkpt>
      <trkpt lat="47.92938" lon="7.23274">
        <ele>276.04</ele>
        <time>2016-05-02T08:21:44Z</time>
      </trkpt>
      <trkpt lat="47.92932" lon="7.23269">
        <ele>277.48</ele>
        <time>2016-05-02T08:22:04Z</time>
      </trkpt>
      <trkpt lat="47.9292" lon="7.23267">
        <ele>280.36</ele>
        <time>2016-05-02T08:22:37Z</time>
      </trkpt>
      <trkpt lat="47.92917" lon="7.23267">
        <ele>279.88</ele>
        <time>2016-05-02T08:22:39Z</time>
      </trkpt>
      <trkpt lat="47.92905" lon="7.2327">
        <ele>282.28</ele>
        <time>2016-05-02T08:22:48Z</time>
      </trkpt>
      <trkpt lat="47.92899" lon="7.23277">
        <ele>282.28</ele>
        <time>2016-05-02T08:23:04Z</time>
      </trkpt>
      <trkpt lat="47.92891" lon="7.23279">
        <ele>284.21</ele>
        <time>2016-05-02T08:23:21Z</time>
      </trkpt>
      <trkpt lat="47.92886" lon="7.23281">
        <ele>285.65</ele>
        <time>2016-05-02T08:23:34Z</time>
      </trkpt>
      <trkpt lat="47.92878" lon="7.23281">
        <ele>289.49</ele>
        <time>2016-05-02T08:23:48Z</time>
      </trkpt>
      <trkpt lat="47.9286" lon="7.23285">
        <ele>294.3</ele>
        <time>2016-05-02T08:24:09Z</time>
      </trkpt>
      <trkpt lat="47.92859" lon="7.23285">
        <ele>289.49</ele>
        <time>2016-05-02T08:24:10Z</time>
      </trkpt>
      <trkpt lat="47.92858" lon="7.23285">
        <ele>292.86</ele>
        <time>2016-05-02T08:24:11Z</time>
      </trkpt>
      <trkpt lat="47.92849" lon="7.23285">
        <ele>296.22</ele>
        <time>2016-05-02T08:24:30Z</time>
      </trkpt>
      <trkpt lat="47.92847" lon="7.23285">
        <ele>295.26</ele>
        <time>2016-05-02T08:24:31Z</time>
      </trkpt>
      <trkpt lat="47.92836" lon="7.23286">
        <ele>298.63</ele>
        <time>2016-05-02T08:24:42Z</time>
      </trkpt>
      <trkpt lat="47.92821" lon="7.23289">
        <ele>301.99</ele>
        <time>2016-05-02T08:25:03Z</time>
      </trkpt>
      <trkpt lat="47.92821" lon="7.23289">
        <ele>299.11</ele>
        <time>2016-05-02T08:25:04Z</time>
      </trkpt>
      <trkpt lat="47.92815" lon="7.23288">
        <ele>303.91</ele>
        <time>2016-05-02T08:25:15Z</time>
      </trkpt>
      <trkpt lat="47.92814" lon="7.23287">
        <ele>303.91</ele>
        <time>2016-05-02T08:25:19Z</time>
      </trkpt>
      <trkpt lat="47.928" lon="7.23284">
        <ele>306.32</ele>
        <time>2016-05-02T08:25:43Z</time>
      </trkpt>
      <trkpt lat="47.92794" lon="7.23283">
        <ele>310.16</ele>
        <time>2016-05-02T08:25:54Z</time>
      </trkpt>
      <trkpt lat="47.92793" lon="7.23282">
        <ele>306.8</ele>
        <time>2016-05-02T08:25:55Z</time>
      </trkpt>
      <trkpt lat="47.92789" lon="7.23281">
        <ele>310.16</ele>
        <time>2016-05-02T08:26:00Z</time>
      </trkpt>
      <trkpt lat="47.92787" lon="7.23281">
        <ele>311.12</ele>
        <time>2016-05-02T08:26:07Z</time>
      </trkpt>
      <trkpt lat="47.92781" lon="7.23278">
        <ele>312.57</ele>
        <time>2016-05-02T08:26:16Z</time>
      </trkpt>
      <trkpt lat="47.92777" lon="7.23276">
        <ele>313.53</ele>
        <time>2016-05-02T08:26:28Z</time>
      </trkpt>
      <trkpt lat="47.92777" lon="7.23278">
        <ele>315.45</ele>
        <time>2016-05-02T08:26:39Z</time>
      </trkpt>
      <trkpt lat="47.92773" lon="7.2327">
        <ele>317.37</ele>
        <time>2016-05-02T08:26:54Z</time>
      </trkpt>
      <trkpt lat="47.92771" lon="7.23269">
        <ele>320.26</ele>
        <time>2016-05-02T08:27:02Z</time>
      </trkpt>
      <trkpt lat="47.92764" lon="7.23266">
        <ele>319.78</ele>
        <time>2016-05-02T08:27:26Z</time>
      </trkpt>
      <trkpt lat="47.92759" lon="7.23265">
        <ele>320.26</ele>
        <time>2016-05-02T08:27:39Z</time>
      </trkpt>
      <trkpt lat="47.92759" lon="7.23265">
        <ele>320.26</ele>
        <time>2016-05-02T08:27:51Z</time>
      </trkpt>
      <trkpt lat="47.92761" lon="7.23256">
        <ele>320.26</ele>
        <time>2016-05-02T08:28:06Z</time>
      </trkpt>
      <trkpt lat="47.92769" lon="7.23251">
        <ele>321.22</ele>
        <time>2016-05-02T08:28:21Z</time>
      </trkpt>
      <trkpt lat="47.92769" lon="7.23246">
        <ele>321.22</ele>
        <time>2016-05-02T08:28:37Z</time>
      </trkpt>
      <trkpt lat="47.92766" lon="7.2324">
        <ele>321.7</ele>
        <time>2016-05-02T08:30:51Z</time>
      </trkpt>
      <trkpt lat="47.92764" lon="7.23237">
        <ele>323.14</ele>
        <time>2016-05-02T08:31:06Z</time>
      </trkpt>
      <trkpt lat="47.92768" lon="7.23235">
        <ele>323.14</ele>
        <time>2016-05-02T08:31:12Z</time>
      </trkpt>
      <trkpt lat="47.92773" lon="7.23238">
        <ele>322.18</ele>
        <time>2016-05-02T08:31:26Z</time>
      </trkpt>
      <trkpt lat="47.92773" lon="7.23236">
        <ele>321.7</ele>
        <time>2016-05-02T08:31:33Z</time>
      </trkpt>
      <trkpt lat="47.92771" lon="7.23224">
        <ele>323.62</ele>
        <time>2016-05-02T08:31:49Z</time>
      </trkpt>
      <trkpt lat="47.92778" lon="7.23213">
        <ele>324.58</ele>
        <time>2016-05-02T08:32:03Z</time>
      </trkpt>
      <trkpt lat="47.92784" lon="7.23217">
        <ele>323.62</ele>
        <time>2016-05-02T08:32:15Z</time>
      </trkpt>
      <trkpt lat="47.92794" lon="7.23219">
        <ele>322.18</ele>
        <time>2016-05-02T08:32:24Z</time>
      </trkpt>
      <trkpt lat="47.92802" lon="7.2322">
        <ele>320.74</ele>
        <time>2016-05-02T08:32:35Z</time>
      </trkpt>
      <trkpt lat="47.92805" lon="7.2322">
        <ele>320.26</ele>
        <time>2016-05-02T08:32:38Z</time>
      </trkpt>
      <trkpt lat="47.92812" lon="7.23222">
        <ele>318.33</ele>
        <time>2016-05-02T08:32:49Z</time>
      </trkpt>
      <trkpt lat="47.92812" lon="7.23222">
        <ele>314.49</ele>
        <time>2016-05-02T08:32:50Z</time>
      </trkpt>
      <trkpt lat="47.92813" lon="7.23223">
        <ele>316.41</ele>
        <time>2016-05-02T08:32:51Z</time>
      </trkpt>
      <trkpt lat="47.92814" lon="7.23223">
        <ele>321.7</ele>
        <time>2016-05-02T08:32:54Z</time>
      </trkpt>
      <trkpt lat="47.92815" lon="7.23223">
        <ele>317.37</ele>
        <time>2016-05-02T08:32:55Z</time>
      </trkpt>
      <trkpt lat="47.92817" lon="7.2322">
        <ele>317.85</ele>
        <time>2016-05-02T08:33:01Z</time>
      </trkpt>
      <trkpt lat="47.9282" lon="7.2322">
        <ele>315.93</ele>
        <time>2016-05-02T08:33:03Z</time>
      </trkpt>
      <trkpt lat="47.92823" lon="7.23221">
        <ele>320.26</ele>
        <time>2016-05-02T08:33:08Z</time>
      </trkpt>
      <trkpt lat="47.92825" lon="7.23219">
        <ele>314.49</ele>
        <time>2016-05-02T08:33:11Z</time>
      </trkpt>
      <trkpt lat="47.92834" lon="7.23215">
        <ele>316.89</ele>
        <time>2016-05-02T08:33:21Z</time>
      </trkpt>
      <trkpt lat="47.92834" lon="7.23215">
        <ele>313.05</ele>
        <time>2016-05-02T08:33:24Z</time>
      </trkpt>
      <trkpt lat="47.92835" lon="7.23214">
        <ele>316.89</ele>
        <time>2016-05-02T08:33:27Z</time>
      </trkpt>
      <trkpt lat="47.92836" lon="7.23212">
        <ele>312.09</ele>
        <time>2016-05-02T08:33:29Z</time>
      </trkpt>
      <trkpt lat="47.92837" lon="7.23211">
        <ele>315.45</ele>
        <time>2016-05-02T08:33:30Z</time>
      </trkpt>
      <trkpt lat="47.92848" lon="7.23204">
        <ele>310.16</ele>
        <time>2016-05-02T08:33:44Z</time>
      </trkpt>
      <trkpt lat="47.92848" lon="7.23203">
        <ele>316.41</ele>
        <time>2016-05-02T08:33:45Z</time>
      </trkpt>
      <trkpt lat="47.92849" lon="7.23203">
        <ele>316.89</ele>
        <time>2016-05-02T08:33:46Z</time>
      </trkpt>
      <trkpt lat="47.92851" lon="7.23203">
        <ele>314.49</ele>
        <time>2016-05-02T08:33:48Z</time>
      </trkpt>
      <trkpt lat="47.92854" lon="7.23202">
        <ele>314.49</ele>
        <time>2016-05-02T08:33:53Z</time>
      </trkpt>
      <trkpt lat="47.92856" lon="7.232">
        <ele>312.57</ele>
        <time>2016-05-02T08:33:58Z</time>
      </trkpt>
      <trkpt lat="47.92857" lon="7.23198">
        <ele>316.41</ele>
        <time>2016-05-02T08:34:02Z</time>
      </trkpt>
      <trkpt lat="47.92857" lon="7.23198">
        <ele>311.6</ele>
        <time>2016-05-02T08:34:03Z</time>
      </trkpt>
      <trkpt lat="47.92857" lon="7.23198">
        <ele>308.24</ele>
        <time>2016-05-02T08:34:08Z</time>
      </trkpt>
      <trkpt lat="47.92857" lon="7.23198">
        <ele>308.72</ele>
        <time>2016-05-02T08:34:09Z</time>
      </trkpt>
      <trkpt lat="47.92859" lon="7.23199">
        <ele>313.53</ele>
        <time>2016-05-02T08:34:14Z</time>
      </trkpt>
      <trkpt lat="47.92859" lon="7.23199">
        <ele>308.24</ele>
        <time>2016-05-02T08:34:15Z</time>
      </trkpt>
      <trkpt lat="47.9286" lon="7.23199">
        <ele>311.6</ele>
        <time>2016-05-02T08:34:17Z</time>
      </trkpt>
      <trkpt lat="47.9286" lon="7.23199">
        <ele>307.28</ele>
        <time>2016-05-02T08:34:18Z</time>
      </trkpt>
      <trkpt lat="47.9286" lon="7.23199">
        <ele>315.45</ele>
        <time>2016-05-02T08:34:19Z</time>
      </trkpt>
      <trkpt lat="47.9286" lon="7.23199">
        <ele>311.6</ele>
        <time>2016-05-02T08:34:20Z</time>
      </trkpt>
      <trkpt lat="47.9286" lon="7.23199">
        <ele>310.64</ele>
        <time>2016-05-02T08:34:22Z</time>
      </trkpt>
      <trkpt lat="47.9286" lon="7.23199">
        <ele>307.28</ele>
        <time>2016-05-02T08:34:25Z</time>
      </trkpt>
      <trkpt lat="47.9286" lon="7.23199">
        <ele>311.12</ele>
        <time>2016-05-02T08:34:27Z</time>
      </trkpt>
      <trkpt lat="47.9286" lon="7.23199">
        <ele>309.68</ele>
        <time>2016-05-02T08:34:28Z</time>
      </trkpt>
      <trkpt lat="47.9286" lon="7.23199">
        <ele>305.84</ele>
        <time>2016-05-02T08:34:29Z</time>
      </trkpt>
      <trkpt lat="47.9286" lon="7.232">
        <ele>306.8</ele>
        <time>2016-05-02T08:34:30Z</time>
      </trkpt>
      <trkpt lat="47.9286" lon="7.23201">
        <ele>311.6</ele>
        <time>2016-05-02T08:34:31Z</time>
      </trkpt>
      <trkpt lat="47.92859" lon="7.23201">
        <ele>307.76</ele>
        <time>2016-05-02T08:34:32Z</time>
      </trkpt>
      <trkpt lat="47.92857" lon="7.23203">
        <ele>311.6</ele>
        <time>2016-05-02T08:34:38Z</time>
      </trkpt>
      <trkpt lat="47.92856" lon="7.23203">
        <ele>310.64</ele>
        <time>2016-05-02T08:34:39Z</time>
      </trkpt>
      <trkpt lat="47.92856" lon="7.23204">
        <ele>311.12</ele>
        <time>2016-05-02T08:34:40Z</time>
      </trkpt>
      <trkpt lat="47.92846" lon="7.23217">
        <ele>314.01</ele>
        <time>2016-05-02T08:34:53Z</time>
      </trkpt>
      <trkpt lat="47.92845" lon="7.23216">
        <ele>312.09</ele>
        <time>2016-05-02T08:34:54Z</time>
      </trkpt>
      <trkpt lat="47.92842" lon="7.23216">
        <ele>311.6</ele>
        <time>2016-05-02T08:34:57Z</time>
      </trkpt>
      <trkpt lat="47.92823" lon="7.23225">
        <ele>315.45</ele>
        <time>2016-05-02T08:35:15Z</time>
      </trkpt>
      <trkpt lat="47.92818" lon="7.23226">
        <ele>314.97</ele>
        <time>2016-05-02T08:35:21Z</time>
      </trkpt>
      <trkpt lat="47.92815" lon="7.23228">
        <ele>314.01</ele>
        <time>2016-05-02T08:35:55Z</time>
      </trkpt>
      <trkpt lat="47.92815" lon="7.23229">
        <ele>314.01</ele>
        <time>2016-05-02T08:36:35Z</time>
      </trkpt>
      <trkpt lat="47.92827" lon="7.2323">
        <ele>311.6</ele>
        <time>2016-05-02T08:36:47Z</time>
      </trkpt>
      <trkpt lat="47.92845" lon="7.23218">
        <ele>309.68</ele>
        <time>2016-05-02T08:37:05Z</time>
      </trkpt>
      <trkpt lat="47.92848" lon="7.23217">
        <ele>313.05</ele>
        <time>2016-05-02T08:37:09Z</time>
      </trkpt>
      <trkpt lat="47.9285" lon="7.23217">
        <ele>308.72</ele>
        <time>2016-05-02T08:37:11Z</time>
      </trkpt>
      <trkpt lat="47.92852" lon="7.23216">
        <ele>312.09</ele>
        <time>2016-05-02T08:37:15Z</time>
      </trkpt>
      <trkpt lat="47.92853" lon="7.23216">
        <ele>311.6</ele>
        <time>2016-05-02T08:37:16Z</time>
      </trkpt>
      <trkpt lat="47.92854" lon="7.23215">
        <ele>306.8</ele>
        <time>2016-05-02T08:37:17Z</time>
      </trkpt>
      <trkpt lat="47.92856" lon="7.23213">
        <ele>310.16</ele>
        <time>2016-05-02T08:37:20Z</time>
      </trkpt>
      <trkpt lat="47.92858" lon="7.23211">
        <ele>311.6</ele>
        <time>2016-05-02T08:37:22Z</time>
      </trkpt>
      <trkpt lat="47.9286" lon="7.2321">
        <ele>306.32</ele>
        <time>2016-05-02T08:37:24Z</time>
      </trkpt>
      <trkpt lat="47.92864" lon="7.23208">
        <ele>307.76</ele>
        <time>2016-05-02T08:37:28Z</time>
      </trkpt>
      <trkpt lat="47.92867" lon="7.23205">
        <ele>303.43</ele>
        <time>2016-05-02T08:37:31Z</time>
      </trkpt>
      <trkpt lat="47.92869" lon="7.23205">
        <ele>303.43</ele>
        <time>2016-05-02T08:37:32Z</time>
      </trkpt>
      <trkpt lat="47.92871" lon="7.23205">
        <ele>306.8</ele>
        <time>2016-05-02T08:37:34Z</time>
      </trkpt>
      <trkpt lat="47.92873" lon="7.23203">
        <ele>302.47</ele>
        <time>2016-05-02T08:37:36Z</time>
      </trkpt>
      <trkpt lat="47.92874" lon="7.23203">
        <ele>303.43</ele>
        <time>2016-05-02T08:37:37Z</time>
      </trkpt>
      <trkpt lat="47.92877" lon="7.23201">
        <ele>307.28</ele>
        <time>2016-05-02T08:37:40Z</time>
      </trkpt>
      <trkpt lat="47.92881" lon="7.23198">
        <ele>303.91</ele>
        <time>2016-05-02T08:37:44Z</time>
      </trkpt>
      <trkpt lat="47.92892" lon="7.23185">
        <ele>303.43</ele>
        <time>2016-05-02T08:37:56Z</time>
      </trkpt>
      <trkpt lat="47.92895" lon="7.23176">
        <ele>303.91</ele>
        <time>2016-05-02T08:38:05Z</time>
      </trkpt>
      <trkpt lat="47.929" lon="7.23164">
        <ele>305.84</ele>
        <time>2016-05-02T08:38:19Z</time>
      </trkpt>
      <trkpt lat="47.92903" lon="7.23159">
        <ele>306.32</ele>
        <time>2016-05-02T08:38:25Z</time>
      </trkpt>
      <trkpt lat="47.92908" lon="7.23148">
        <ele>312.09</ele>
        <time>2016-05-02T08:38:40Z</time>
      </trkpt>
      <trkpt lat="47.92908" lon="7.23147">
        <ele>308.24</ele>
        <time>2016-05-02T08:38:41Z</time>
      </trkpt>
      <trkpt lat="47.9291" lon="7.23144">
        <ele>311.6</ele>
        <time>2016-05-02T08:38:45Z</time>
      </trkpt>
      <trkpt lat="47.92911" lon="7.23144">
        <ele>307.76</ele>
        <time>2016-05-02T08:38:46Z</time>
      </trkpt>
      <trkpt lat="47.92912" lon="7.2314">
        <ele>311.12</ele>
        <time>2016-05-02T08:38:50Z</time>
      </trkpt>
      <trkpt lat="47.92915" lon="7.23135">
        <ele>312.09</ele>
        <time>2016-05-02T08:38:58Z</time>
      </trkpt>
      <trkpt lat="47.92918" lon="7.23131">
        <ele>314.01</ele>
        <time>2016-05-02T08:39:03Z</time>
      </trkpt>
      <trkpt lat="47.92919" lon="7.2313">
        <ele>310.64</ele>
        <time>2016-05-02T08:39:04Z</time>
      </trkpt>
      <trkpt lat="47.9292" lon="7.2313">
        <ele>314.01</ele>
        <time>2016-05-02T08:39:05Z</time>
      </trkpt>
      <trkpt lat="47.92928" lon="7.23118">
        <ele>310.16</ele>
        <time>2016-05-02T08:39:19Z</time>
      </trkpt>
      <trkpt lat="47.92929" lon="7.23117">
        <ele>314.97</ele>
        <time>2016-05-02T08:39:20Z</time>
      </trkpt>
      <trkpt lat="47.92931" lon="7.23112">
        <ele>311.12</ele>
        <time>2016-05-02T08:39:23Z</time>
      </trkpt>
      <trkpt lat="47.92931" lon="7.23111">
        <ele>316.41</ele>
        <time>2016-05-02T08:39:24Z</time>
      </trkpt>
      <trkpt lat="47.92931" lon="7.23111">
        <ele>312.09</ele>
        <time>2016-05-02T08:39:25Z</time>
      </trkpt>
      <trkpt lat="47.92936" lon="7.23103">
        <ele>315.45</ele>
        <time>2016-05-02T08:39:32Z</time>
      </trkpt>
      <trkpt lat="47.9294" lon="7.23097">
        <ele>312.57</ele>
        <time>2016-05-02T08:39:38Z</time>
      </trkpt>
      <trkpt lat="47.92943" lon="7.23092">
        <ele>317.37</ele>
        <time>2016-05-02T08:39:43Z</time>
      </trkpt>
      <trkpt lat="47.92943" lon="7.23091">
        <ele>317.37</ele>
        <time>2016-05-02T08:39:44Z</time>
      </trkpt>
      <trkpt lat="47.92944" lon="7.2309">
        <ele>313.05</ele>
        <time>2016-05-02T08:39:47Z</time>
      </trkpt>
      <trkpt lat="47.92944" lon="7.23089">
        <ele>316.89</ele>
        <time>2016-05-02T08:39:48Z</time>
      </trkpt>
      <trkpt lat="47.92946" lon="7.23082">
        <ele>317.37</ele>
        <time>2016-05-02T08:39:57Z</time>
      </trkpt>
      <trkpt lat="47.92954" lon="7.23068">
        <ele>313.53</ele>
        <time>2016-05-02T08:40:14Z</time>
      </trkpt>
      <trkpt lat="47.92954" lon="7.23067">
        <ele>315.93</ele>
        <time>2016-05-02T08:40:15Z</time>
      </trkpt>
      <trkpt lat="47.92958" lon="7.23061">
        <ele>319.78</ele>
        <time>2016-05-02T08:40:24Z</time>
      </trkpt>
      <trkpt lat="47.92959" lon="7.2306">
        <ele>315.45</ele>
        <time>2016-05-02T08:40:25Z</time>
      </trkpt>
      <trkpt lat="47.9296" lon="7.23057">
        <ele>319.3</ele>
        <time>2016-05-02T08:40:28Z</time>
      </trkpt>
      <trkpt lat="47.92962" lon="7.23053">
        <ele>314.49</ele>
        <time>2016-05-02T08:40:32Z</time>
      </trkpt>
      <trkpt lat="47.92963" lon="7.23052">
        <ele>318.33</ele>
        <time>2016-05-02T08:40:34Z</time>
      </trkpt>
      <trkpt lat="47.92967" lon="7.23045">
        <ele>321.7</ele>
        <time>2016-05-02T08:40:43Z</time>
      </trkpt>
      <trkpt lat="47.92967" lon="7.23044">
        <ele>316.89</ele>
        <time>2016-05-02T08:40:44Z</time>
      </trkpt>
      <trkpt lat="47.92974" lon="7.23035">
        <ele>321.7</ele>
        <time>2016-05-02T08:40:55Z</time>
      </trkpt>
      <trkpt lat="47.92975" lon="7.23035">
        <ele>315.93</ele>
        <time>2016-05-02T08:40:56Z</time>
      </trkpt>
      <trkpt lat="47.92975" lon="7.23033">
        <ele>320.26</ele>
        <time>2016-05-02T08:40:57Z</time>
      </trkpt>
      <trkpt lat="47.92979" lon="7.23026">
        <ele>316.89</ele>
        <time>2016-05-02T08:41:07Z</time>
      </trkpt>
      <trkpt lat="47.92979" lon="7.23025">
        <ele>318.33</ele>
        <time>2016-05-02T08:41:08Z</time>
      </trkpt>
      <trkpt lat="47.92981" lon="7.23023">
        <ele>320.74</ele>
        <time>2016-05-02T08:41:10Z</time>
      </trkpt>
      <trkpt lat="47.92983" lon="7.23021">
        <ele>319.3</ele>
        <time>2016-05-02T08:41:12Z</time>
      </trkpt>
      <trkpt lat="47.92984" lon="7.2302">
        <ele>320.26</ele>
        <time>2016-05-02T08:41:14Z</time>
      </trkpt>
      <trkpt lat="47.92985" lon="7.23018">
        <ele>316.89</ele>
        <time>2016-05-02T08:41:16Z</time>
      </trkpt>
      <trkpt lat="47.92986" lon="7.23017">
        <ele>318.81</ele>
        <time>2016-05-02T08:41:17Z</time>
      </trkpt>
      <trkpt lat="47.92999" lon="7.23">
        <ele>318.81</ele>
        <time>2016-05-02T08:41:32Z</time>
      </trkpt>
      <trkpt lat="47.93013" lon="7.22983">
        <ele>315.45</ele>
        <time>2016-05-02T08:41:49Z</time>
      </trkpt>
      <trkpt lat="47.93013" lon="7.22982">
        <ele>318.81</ele>
        <time>2016-05-02T08:41:50Z</time>
      </trkpt>
      <trkpt lat="47.93018" lon="7.22973">
        <ele>317.85</ele>
        <time>2016-05-02T08:41:57Z</time>
      </trkpt>
      <trkpt lat="47.9303" lon="7.2296">
        <ele>317.37</ele>
        <time>2016-05-02T08:42:10Z</time>
      </trkpt>
      <trkpt lat="47.93034" lon="7.22956">
        <ele>318.81</ele>
        <time>2016-05-02T08:42:14Z</time>
      </trkpt>
      <trkpt lat="47.9304" lon="7.22947">
        <ele>315.93</ele>
        <time>2016-05-02T08:42:23Z</time>
      </trkpt>
      <trkpt lat="47.93042" lon="7.22945">
        <ele>320.26</ele>
        <time>2016-05-02T08:42:25Z</time>
      </trkpt>
      <trkpt lat="47.93043" lon="7.22944">
        <ele>317.37</ele>
        <time>2016-05-02T08:42:26Z</time>
      </trkpt>
      <trkpt lat="47.93046" lon="7.2294">
        <ele>318.33</ele>
        <time>2016-05-02T08:42:30Z</time>
      </trkpt>
      <trkpt lat="47.93055" lon="7.22933">
        <ele>317.37</ele>
        <time>2016-05-02T08:42:41Z</time>
      </trkpt>
      <trkpt lat="47.93058" lon="7.2293">
        <ele>319.3</ele>
        <time>2016-05-02T08:42:44Z</time>
      </trkpt>
      <trkpt lat="47.93063" lon="7.22925">
        <ele>319.3</ele>
        <time>2016-05-02T08:42:51Z</time>
      </trkpt>
      <trkpt lat="47.93067" lon="7.22907">
        <ele>318.81</ele>
        <time>2016-05-02T08:43:03Z</time>
      </trkpt>
      <trkpt lat="47.93069" lon="7.22901">
        <ele>322.18</ele>
        <time>2016-05-02T08:43:08Z</time>
      </trkpt>
      <trkpt lat="47.93072" lon="7.22892">
        <ele>321.7</ele>
        <time>2016-05-02T08:43:15Z</time>
      </trkpt>
      <trkpt lat="47.93073" lon="7.22889">
        <ele>319.3</ele>
        <time>2016-05-02T08:43:17Z</time>
      </trkpt>
      <trkpt lat="47.93075" lon="7.22883">
        <ele>322.18</ele>
        <time>2016-05-02T08:43:22Z</time>
      </trkpt>
      <trkpt lat="47.93077" lon="7.2288">
        <ele>321.22</ele>
        <time>2016-05-02T08:43:25Z</time>
      </trkpt>
      <trkpt lat="47.93079" lon="7.22877">
        <ele>324.58</ele>
        <time>2016-05-02T08:43:28Z</time>
      </trkpt>
      <trkpt lat="47.93079" lon="7.22876">
        <ele>321.22</ele>
        <time>2016-05-02T08:43:29Z</time>
      </trkpt>
      <trkpt lat="47.9308" lon="7.22875">
        <ele>325.06</ele>
        <time>2016-05-02T08:43:30Z</time>
      </trkpt>
      <trkpt lat="47.93084" lon="7.22852">
        <ele>324.1</ele>
        <time>2016-05-02T08:43:45Z</time>
      </trkpt>
      <trkpt lat="47.93089" lon="7.22841">
        <ele>324.1</ele>
        <time>2016-05-02T08:43:57Z</time>
      </trkpt>
      <trkpt lat="47.93091" lon="7.22838">
        <ele>323.62</ele>
        <time>2016-05-02T08:43:59Z</time>
      </trkpt>
      <trkpt lat="47.93092" lon="7.22834">
        <ele>324.58</ele>
        <time>2016-05-02T08:44:04Z</time>
      </trkpt>
      <trkpt lat="47.93099" lon="7.22823">
        <ele>323.62</ele>
        <time>2016-05-02T08:44:20Z</time>
      </trkpt>
      <trkpt lat="47.931" lon="7.22824">
        <ele>324.1</ele>
        <time>2016-05-02T08:44:21Z</time>
      </trkpt>
      <trkpt lat="47.93102" lon="7.2282">
        <ele>324.58</ele>
        <time>2016-05-02T08:44:25Z</time>
      </trkpt>
      <trkpt lat="47.93111" lon="7.22811">
        <ele>321.22</ele>
        <time>2016-05-02T08:44:36Z</time>
      </trkpt>
      <trkpt lat="47.93114" lon="7.22807">
        <ele>323.62</ele>
        <time>2016-05-02T08:44:39Z</time>
      </trkpt>
      <trkpt lat="47.93117" lon="7.22797">
        <ele>322.66</ele>
        <time>2016-05-02T08:44:58Z</time>
      </trkpt>
      <trkpt lat="47.93123" lon="7.22777">
        <ele>321.7</ele>
        <time>2016-05-02T08:45:15Z</time>
      </trkpt>
      <trkpt lat="47.93126" lon="7.22756">
        <ele>325.54</ele>
        <time>2016-05-02T08:45:30Z</time>
      </trkpt>
      <trkpt lat="47.93124" lon="7.2274">
        <ele>324.1</ele>
        <time>2016-05-02T08:45:40Z</time>
      </trkpt>
      <trkpt lat="47.93126" lon="7.22718">
        <ele>326.02</ele>
        <time>2016-05-02T08:45:53Z</time>
      </trkpt>
      <trkpt lat="47.93128" lon="7.22683">
        <ele>326.99</ele>
        <time>2016-05-02T08:46:12Z</time>
      </trkpt>
      <trkpt lat="47.93119" lon="7.22656">
        <ele>326.99</ele>
        <time>2016-05-02T08:46:24Z</time>
      </trkpt>
      <trkpt lat="47.93112" lon="7.2264">
        <ele>328.91</ele>
        <time>2016-05-02T08:46:40Z</time>
      </trkpt>
      <trkpt lat="47.93112" lon="7.22639">
        <ele>328.91</ele>
        <time>2016-05-02T08:46:41Z</time>
      </trkpt>
      <trkpt lat="47.93108" lon="7.22627">
        <ele>327.95</ele>
        <time>2016-05-02T08:46:46Z</time>
      </trkpt>
      <trkpt lat="47.93105" lon="7.22622">
        <ele>331.31</ele>
        <time>2016-05-02T08:46:52Z</time>
      </trkpt>
      <trkpt lat="47.93099" lon="7.22599">
        <ele>330.83</ele>
        <time>2016-05-02T08:47:10Z</time>
      </trkpt>
      <trkpt lat="47.93091" lon="7.22577">
        <ele>331.79</ele>
        <time>2016-05-02T08:47:25Z</time>
      </trkpt>
      <trkpt lat="47.93083" lon="7.22561">
        <ele>333.23</ele>
        <time>2016-05-02T08:47:39Z</time>
      </trkpt>
      <trkpt lat="47.93079" lon="7.22557">
        <ele>333.23</ele>
        <time>2016-05-02T08:47:44Z</time>
      </trkpt>
      <trkpt lat="47.93071" lon="7.22549">
        <ele>334.68</ele>
        <time>2016-05-02T08:48:00Z</time>
      </trkpt>
      <trkpt lat="47.93067" lon="7.22547">
        <ele>339.96</ele>
        <time>2016-05-02T08:48:08Z</time>
      </trkpt>
      <trkpt lat="47.93067" lon="7.22547">
        <ele>335.16</ele>
        <time>2016-05-02T08:48:09Z</time>
      </trkpt>
      <trkpt lat="47.93067" lon="7.22547">
        <ele>338.52</ele>
        <time>2016-05-02T08:48:11Z</time>
      </trkpt>
      <trkpt lat="47.93067" lon="7.22547">
        <ele>335.16</ele>
        <time>2016-05-02T08:48:12Z</time>
      </trkpt>
      <trkpt lat="47.93067" lon="7.22547">
        <ele>335.16</ele>
        <time>2016-05-02T08:48:13Z</time>
      </trkpt>
      <trkpt lat="47.93067" lon="7.22547">
        <ele>338.52</ele>
        <time>2016-05-02T08:48:14Z</time>
      </trkpt>
      <trkpt lat="47.93067" lon="7.22547">
        <ele>335.16</ele>
        <time>2016-05-02T08:48:15Z</time>
      </trkpt>
      <trkpt lat="47.93066" lon="7.22545">
        <ele>338.52</ele>
        <time>2016-05-02T08:48:17Z</time>
      </trkpt>
      <trkpt lat="47.93066" lon="7.22544">
        <ele>334.68</ele>
        <time>2016-05-02T08:48:18Z</time>
      </trkpt>
      <trkpt lat="47.93065" lon="7.22542">
        <ele>339.96</ele>
        <time>2016-05-02T08:48:20Z</time>
      </trkpt>
      <trkpt lat="47.93065" lon="7.22542">
        <ele>335.64</ele>
        <time>2016-05-02T08:48:21Z</time>
      </trkpt>
      <trkpt lat="47.93064" lon="7.22535">
        <ele>338.52</ele>
        <time>2016-05-02T08:48:24Z</time>
      </trkpt>
      <trkpt lat="47.93063" lon="7.22533">
        <ele>338.52</ele>
        <time>2016-05-02T08:48:25Z</time>
      </trkpt>
      <trkpt lat="47.93061" lon="7.22532">
        <ele>334.68</ele>
        <time>2016-05-02T08:48:28Z</time>
      </trkpt>
      <trkpt lat="47.93061" lon="7.22532">
        <ele>339.96</ele>
        <time>2016-05-02T08:48:29Z</time>
      </trkpt>
      <trkpt lat="47.93061" lon="7.22532">
        <ele>336.6</ele>
        <time>2016-05-02T08:48:33Z</time>
      </trkpt>
      <trkpt lat="47.93061" lon="7.22531">
        <ele>340.44</ele>
        <time>2016-05-02T08:48:36Z</time>
      </trkpt>
      <trkpt lat="47.93061" lon="7.22531">
        <ele>337.08</ele>
        <time>2016-05-02T08:48:38Z</time>
      </trkpt>
      <trkpt lat="47.9306" lon="7.2253">
        <ele>341.89</ele>
        <time>2016-05-02T08:48:44Z</time>
      </trkpt>
      <trkpt lat="47.9306" lon="7.2253">
        <ele>341.41</ele>
        <time>2016-05-02T08:48:48Z</time>
      </trkpt>
      <trkpt lat="47.93058" lon="7.22528">
        <ele>339.96</ele>
        <time>2016-05-02T08:49:11Z</time>
      </trkpt>
      <trkpt lat="47.93055" lon="7.22523">
        <ele>343.33</ele>
        <time>2016-05-02T08:49:22Z</time>
      </trkpt>
      <trkpt lat="47.93054" lon="7.22522">
        <ele>339.48</ele>
        <time>2016-05-02T08:49:25Z</time>
      </trkpt>
      <trkpt lat="47.93054" lon="7.22522">
        <ele>343.33</ele>
        <time>2016-05-02T08:49:26Z</time>
      </trkpt>
      <trkpt lat="47.93054" lon="7.22522">
        <ele>339.96</ele>
        <time>2016-05-02T08:49:29Z</time>
      </trkpt>
      <trkpt lat="47.93053" lon="7.2252">
        <ele>343.33</ele>
        <time>2016-05-02T08:49:33Z</time>
      </trkpt>
      <trkpt lat="47.93039" lon="7.22524">
        <ele>340.92</ele>
        <time>2016-05-02T08:50:01Z</time>
      </trkpt>
      <trkpt lat="47.93039" lon="7.22527">
        <ele>341.41</ele>
        <time>2016-05-02T08:50:22Z</time>
      </trkpt>
      <trkpt lat="47.93031" lon="7.22546">
        <ele>342.85</ele>
        <time>2016-05-02T08:50:41Z</time>
      </trkpt>
      <trkpt lat="47.93025" lon="7.22558">
        <ele>343.81</ele>
        <time>2016-05-02T08:50:56Z</time>
      </trkpt>
      <trkpt lat="47.93018" lon="7.22564">
        <ele>344.77</ele>
        <time>2016-05-02T08:51:15Z</time>
      </trkpt>
      <trkpt lat="47.93007" lon="7.22556">
        <ele>346.21</ele>
        <time>2016-05-02T08:51:30Z</time>
      </trkpt>
      <trkpt lat="47.93002" lon="7.22548">
        <ele>347.65</ele>
        <time>2016-05-02T08:51:48Z</time>
      </trkpt>
      <trkpt lat="47.92988" lon="7.22534">
        <ele>349.1</ele>
        <time>2016-05-02T08:52:08Z</time>
      </trkpt>
      <trkpt lat="47.92981" lon="7.22521">
        <ele>351.5</ele>
        <time>2016-05-02T08:52:29Z</time>
      </trkpt>
      <trkpt lat="47.92976" lon="7.22512">
        <ele>351.5</ele>
        <time>2016-05-02T08:52:51Z</time>
      </trkpt>
      <trkpt lat="47.92963" lon="7.22497">
        <ele>353.9</ele>
        <time>2016-05-02T08:53:08Z</time>
      </trkpt>
      <trkpt lat="47.92953" lon="7.22482">
        <ele>355.34</ele>
        <time>2016-05-02T08:53:25Z</time>
      </trkpt>
      <trkpt lat="47.92947" lon="7.22473">
        <ele>357.27</ele>
        <time>2016-05-02T08:53:39Z</time>
      </trkpt>
      <trkpt lat="47.92942" lon="7.22464">
        <ele>358.71</ele>
        <time>2016-05-02T08:53:55Z</time>
      </trkpt>
      <trkpt lat="47.92939" lon="7.22463">
        <ele>358.71</ele>
        <time>2016-05-02T08:54:11Z</time>
      </trkpt>
      <trkpt lat="47.92936" lon="7.2246">
        <ele>359.67</ele>
        <time>2016-05-02T08:54:33Z</time>
      </trkpt>
      <trkpt lat="47.92929" lon="7.22447">
        <ele>361.59</ele>
        <time>2016-05-02T08:54:46Z</time>
      </trkpt>
      <trkpt lat="47.92924" lon="7.22447">
        <ele>362.07</ele>
        <time>2016-05-02T08:54:59Z</time>
      </trkpt>
      <trkpt lat="47.9293" lon="7.22445">
        <ele>361.11</ele>
        <time>2016-05-02T08:55:12Z</time>
      </trkpt>
      <trkpt lat="47.9293" lon="7.22443">
        <ele>361.59</ele>
        <time>2016-05-02T08:55:14Z</time>
      </trkpt>
      <trkpt lat="47.92924" lon="7.22444">
        <ele>362.55</ele>
        <time>2016-05-02T08:55:29Z</time>
      </trkpt>
      <trkpt lat="47.92908" lon="7.22446">
        <ele>365.44</ele>
        <time>2016-05-02T08:55:49Z</time>
      </trkpt>
      <trkpt lat="47.92895" lon="7.22465">
        <ele>365.44</ele>
        <time>2016-05-02T08:56:03Z</time>
      </trkpt>
      <trkpt lat="47.92889" lon="7.22482">
        <ele>365.44</ele>
        <time>2016-05-02T08:56:18Z</time>
      </trkpt>
      <trkpt lat="47.92886" lon="7.22493">
        <ele>365.44</ele>
        <time>2016-05-02T08:56:33Z</time>
      </trkpt>
      <trkpt lat="47.92885" lon="7.22502">
        <ele>365.44</ele>
        <time>2016-05-02T08:56:47Z</time>
      </trkpt>
      <trkpt lat="47.9289" lon="7.22521">
        <ele>364</ele>
        <time>2016-05-02T08:57:03Z</time>
      </trkpt>
      <trkpt lat="47.92896" lon="7.22537">
        <ele>362.55</ele>
        <time>2016-05-02T08:57:17Z</time>
      </trkpt>
      <trkpt lat="47.92903" lon="7.22549">
        <ele>362.07</ele>
        <time>2016-05-02T08:57:36Z</time>
      </trkpt>
      <trkpt lat="47.92899" lon="7.22548">
        <ele>362.07</ele>
        <time>2016-05-02T08:58:07Z</time>
      </trkpt>
      <trkpt lat="47.92893" lon="7.22546">
        <ele>364</ele>
        <time>2016-05-02T08:58:27Z</time>
      </trkpt>
      <trkpt lat="47.92877" lon="7.22542">
        <ele>364.96</ele>
        <time>2016-05-02T08:58:48Z</time>
      </trkpt>
      <trkpt lat="47.92859" lon="7.22545">
        <ele>366.88</ele>
        <time>2016-05-02T08:59:04Z</time>
      </trkpt>
      <trkpt lat="47.92849" lon="7.22551">
        <ele>368.8</ele>
        <time>2016-05-02T08:59:21Z</time>
      </trkpt>
      <trkpt lat="47.92835" lon="7.22549">
        <ele>369.28</ele>
        <time>2016-05-02T08:59:32Z</time>
      </trkpt>
      <trkpt lat="47.9282" lon="7.2257">
        <ele>372.65</ele>
        <time>2016-05-02T08:59:51Z</time>
      </trkpt>
      <trkpt lat="47.92818" lon="7.22572">
        <ele>367.36</ele>
        <time>2016-05-02T08:59:52Z</time>
      </trkpt>
      <trkpt lat="47.92816" lon="7.22573">
        <ele>372.17</ele>
        <time>2016-05-02T08:59:53Z</time>
      </trkpt>
      <trkpt lat="47.92806" lon="7.22592">
        <ele>372.65</ele>
        <time>2016-05-02T09:00:10Z</time>
      </trkpt>
      <trkpt lat="47.92803" lon="7.22595">
        <ele>374.09</ele>
        <time>2016-05-02T09:00:17Z</time>
      </trkpt>
      <trkpt lat="47.92793" lon="7.22602">
        <ele>374.57</ele>
        <time>2016-05-02T09:00:30Z</time>
      </trkpt>
      <trkpt lat="47.92784" lon="7.22608">
        <ele>375.53</ele>
        <time>2016-05-02T09:00:44Z</time>
      </trkpt>
      <trkpt lat="47.92772" lon="7.22617">
        <ele>376.01</ele>
        <time>2016-05-02T09:01:01Z</time>
      </trkpt>
      <trkpt lat="47.92757" lon="7.22623">
        <ele>377.94</ele>
        <time>2016-05-02T09:01:18Z</time>
      </trkpt>
      <trkpt lat="47.92756" lon="7.22624">
        <ele>378.42</ele>
        <time>2016-05-02T09:01:40Z</time>
      </trkpt>
      <trkpt lat="47.92751" lon="7.22631">
        <ele>379.38</ele>
        <time>2016-05-02T09:01:48Z</time>
      </trkpt>
      <trkpt lat="47.9274" lon="7.22641">
        <ele>379.38</ele>
        <time>2016-05-02T09:02:01Z</time>
      </trkpt>
      <trkpt lat="47.92731" lon="7.2265">
        <ele>380.34</ele>
        <time>2016-05-02T09:02:15Z</time>
      </trkpt>
      <trkpt lat="47.92726" lon="7.22656">
        <ele>380.82</ele>
        <time>2016-05-02T09:02:27Z</time>
      </trkpt>
      <trkpt lat="47.92713" lon="7.22668">
        <ele>381.3</ele>
        <time>2016-05-02T09:02:41Z</time>
      </trkpt>
      <trkpt lat="47.92702" lon="7.22683">
        <ele>382.74</ele>
        <time>2016-05-02T09:02:56Z</time>
      </trkpt>
      <trkpt lat="47.92689" lon="7.22698">
        <ele>382.74</ele>
        <time>2016-05-02T09:03:14Z</time>
      </trkpt>
      <trkpt lat="47.92682" lon="7.22712">
        <ele>383.7</ele>
        <time>2016-05-02T09:03:28Z</time>
      </trkpt>
      <trkpt lat="47.92667" lon="7.22725">
        <ele>384.18</ele>
        <time>2016-05-02T09:03:41Z</time>
      </trkpt>
      <trkpt lat="47.92653" lon="7.22737">
        <ele>384.66</ele>
        <time>2016-05-02T09:03:56Z</time>
      </trkpt>
      <trkpt lat="47.92642" lon="7.22747">
        <ele>385.15</ele>
        <time>2016-05-02T09:04:10Z</time>
      </trkpt>
      <trkpt lat="47.92629" lon="7.22761">
        <ele>386.11</ele>
        <time>2016-05-02T09:04:26Z</time>
      </trkpt>
      <trkpt lat="47.92624" lon="7.22767">
        <ele>387.55</ele>
        <time>2016-05-02T09:04:33Z</time>
      </trkpt>
      <trkpt lat="47.92622" lon="7.22768">
        <ele>386.59</ele>
        <time>2016-05-02T09:04:35Z</time>
      </trkpt>
      <trkpt lat="47.92603" lon="7.22776">
        <ele>387.07</ele>
        <time>2016-05-02T09:04:53Z</time>
      </trkpt>
      <trkpt lat="47.92598" lon="7.22778">
        <ele>388.51</ele>
        <time>2016-05-02T09:05:12Z</time>
      </trkpt>
      <trkpt lat="47.92598" lon="7.22774">
        <ele>388.99</ele>
        <time>2016-05-02T09:05:57Z</time>
      </trkpt>
      <trkpt lat="47.92602" lon="7.22764">
        <ele>390.43</ele>
        <time>2016-05-02T09:06:15Z</time>
      </trkpt>
      <trkpt lat="47.92603" lon="7.2275">
        <ele>393.32</ele>
        <time>2016-05-02T09:06:27Z</time>
      </trkpt>
      <trkpt lat="47.92604" lon="7.22749">
        <ele>392.36</ele>
        <time>2016-05-02T09:06:28Z</time>
      </trkpt>
      <trkpt lat="47.92607" lon="7.22732">
        <ele>396.2</ele>
        <time>2016-05-02T09:06:46Z</time>
      </trkpt>
      <trkpt lat="47.92609" lon="7.22733">
        <ele>393.8</ele>
        <time>2016-05-02T09:06:47Z</time>
      </trkpt>
      <trkpt lat="47.92613" lon="7.22723">
        <ele>396.68</ele>
        <time>2016-05-02T09:06:58Z</time>
      </trkpt>
      <trkpt lat="47.92615" lon="7.22712">
        <ele>396.68</ele>
        <time>2016-05-02T09:07:13Z</time>
      </trkpt>
      <trkpt lat="47.92615" lon="7.22711">
        <ele>398.6</ele>
        <time>2016-05-02T09:07:14Z</time>
      </trkpt>
      <trkpt lat="47.92621" lon="7.22697">
        <ele>399.08</ele>
        <time>2016-05-02T09:07:29Z</time>
      </trkpt>
      <trkpt lat="47.92621" lon="7.22694">
        <ele>398.12</ele>
        <time>2016-05-02T09:07:31Z</time>
      </trkpt>
      <trkpt lat="47.92619" lon="7.22688">
        <ele>401.01</ele>
        <time>2016-05-02T09:07:39Z</time>
      </trkpt>
      <trkpt lat="47.92621" lon="7.22686">
        <ele>401.01</ele>
        <time>2016-05-02T09:07:43Z</time>
      </trkpt>
      <trkpt lat="47.92622" lon="7.22685">
        <ele>400.05</ele>
        <time>2016-05-02T09:07:45Z</time>
      </trkpt>
      <trkpt lat="47.9262" lon="7.22681">
        <ele>400.05</ele>
        <time>2016-05-02T09:07:48Z</time>
      </trkpt>
      <trkpt lat="47.92618" lon="7.22675">
        <ele>402.93</ele>
        <time>2016-05-02T09:07:53Z</time>
      </trkpt>
      <trkpt lat="47.92618" lon="7.22671">
        <ele>399.08</ele>
        <time>2016-05-02T09:07:57Z</time>
      </trkpt>
      <trkpt lat="47.92619" lon="7.22667">
        <ele>403.41</ele>
        <time>2016-05-02T09:08:01Z</time>
      </trkpt>
      <trkpt lat="47.92631" lon="7.22639">
        <ele>403.41</ele>
        <time>2016-05-02T09:08:22Z</time>
      </trkpt>
      <trkpt lat="47.9264" lon="7.22627">
        <ele>407.74</ele>
        <time>2016-05-02T09:08:29Z</time>
      </trkpt>
      <trkpt lat="47.92641" lon="7.22627">
        <ele>403.41</ele>
        <time>2016-05-02T09:08:30Z</time>
      </trkpt>
      <trkpt lat="47.92644" lon="7.22624">
        <ele>407.26</ele>
        <time>2016-05-02T09:08:34Z</time>
      </trkpt>
      <trkpt lat="47.92645" lon="7.22623">
        <ele>406.77</ele>
        <time>2016-05-02T09:08:35Z</time>
      </trkpt>
      <trkpt lat="47.92647" lon="7.22622">
        <ele>405.81</ele>
        <time>2016-05-02T09:08:37Z</time>
      </trkpt>
      <trkpt lat="47.92658" lon="7.22614">
        <ele>409.66</ele>
        <time>2016-05-02T09:08:45Z</time>
      </trkpt>
      <trkpt lat="47.92666" lon="7.22598">
        <ele>408.7</ele>
        <time>2016-05-02T09:09:05Z</time>
      </trkpt>
      <trkpt lat="47.9267" lon="7.22586">
        <ele>412.54</ele>
        <time>2016-05-02T09:09:18Z</time>
      </trkpt>
      <trkpt lat="47.9267" lon="7.22585">
        <ele>409.18</ele>
        <time>2016-05-02T09:09:19Z</time>
      </trkpt>
      <trkpt lat="47.92672" lon="7.22579">
        <ele>412.06</ele>
        <time>2016-05-02T09:09:23Z</time>
      </trkpt>
      <trkpt lat="47.92676" lon="7.22575">
        <ele>412.54</ele>
        <time>2016-05-02T09:09:27Z</time>
      </trkpt>
      <trkpt lat="47.92676" lon="7.22557">
        <ele>412.54</ele>
        <time>2016-05-02T09:09:46Z</time>
      </trkpt>
      <trkpt lat="47.92675" lon="7.22537">
        <ele>414.95</ele>
        <time>2016-05-02T09:10:04Z</time>
      </trkpt>
      <trkpt lat="47.92681" lon="7.22519">
        <ele>416.39</ele>
        <time>2016-05-02T09:10:24Z</time>
      </trkpt>
      <trkpt lat="47.92687" lon="7.22501">
        <ele>417.83</ele>
        <time>2016-05-02T09:10:43Z</time>
      </trkpt>
      <trkpt lat="47.92693" lon="7.2249">
        <ele>419.27</ele>
        <time>2016-05-02T09:11:00Z</time>
      </trkpt>
      <trkpt lat="47.92693" lon="7.22477">
        <ele>419.27</ele>
        <time>2016-05-02T09:11:18Z</time>
      </trkpt>
      <trkpt lat="47.92697" lon="7.22458">
        <ele>421.68</ele>
        <time>2016-05-02T09:11:37Z</time>
      </trkpt>
      <trkpt lat="47.92701" lon="7.22437">
        <ele>424.08</ele>
        <time>2016-05-02T09:11:56Z</time>
      </trkpt>
      <trkpt lat="47.92698" lon="7.22404">
        <ele>427.44</ele>
        <time>2016-05-02T09:12:15Z</time>
      </trkpt>
      <trkpt lat="47.92699" lon="7.22379">
        <ele>428.4</ele>
        <time>2016-05-02T09:12:33Z</time>
      </trkpt>
      <trkpt lat="47.92701" lon="7.22374">
        <ele>429.85</ele>
        <time>2016-05-02T09:12:38Z</time>
      </trkpt>
      <trkpt lat="47.92696" lon="7.22352">
        <ele>431.77</ele>
        <time>2016-05-02T09:12:55Z</time>
      </trkpt>
      <trkpt lat="47.92698" lon="7.22342">
        <ele>435.13</ele>
        <time>2016-05-02T09:13:09Z</time>
      </trkpt>
      <trkpt lat="47.92698" lon="7.22341">
        <ele>431.77</ele>
        <time>2016-05-02T09:13:10Z</time>
      </trkpt>
      <trkpt lat="47.92697" lon="7.22334">
        <ele>435.61</ele>
        <time>2016-05-02T09:13:20Z</time>
      </trkpt>
      <trkpt lat="47.9269" lon="7.22311">
        <ele>437.54</ele>
        <time>2016-05-02T09:13:40Z</time>
      </trkpt>
      <trkpt lat="47.92687" lon="7.22297">
        <ele>440.42</ele>
        <time>2016-05-02T09:13:57Z</time>
      </trkpt>
      <trkpt lat="47.92684" lon="7.2229">
        <ele>438.98</ele>
        <time>2016-05-02T09:14:16Z</time>
      </trkpt>
      <trkpt lat="47.92688" lon="7.22267">
        <ele>440.42</ele>
        <time>2016-05-02T09:14:29Z</time>
      </trkpt>
      <trkpt lat="47.92686" lon="7.22252">
        <ele>442.34</ele>
        <time>2016-05-02T09:14:44Z</time>
      </trkpt>
      <trkpt lat="47.92683" lon="7.22244">
        <ele>445.23</ele>
        <time>2016-05-02T09:14:54Z</time>
      </trkpt>
      <trkpt lat="47.92683" lon="7.22243">
        <ele>441.38</ele>
        <time>2016-05-02T09:14:56Z</time>
      </trkpt>
      <trkpt lat="47.92682" lon="7.22243">
        <ele>443.31</ele>
        <time>2016-05-02T09:14:57Z</time>
      </trkpt>
      <trkpt lat="47.92683" lon="7.22239">
        <ele>449.07</ele>
        <time>2016-05-02T09:15:10Z</time>
      </trkpt>
      <trkpt lat="47.92683" lon="7.22238">
        <ele>442.82</ele>
        <time>2016-05-02T09:15:11Z</time>
      </trkpt>
      <trkpt lat="47.92684" lon="7.22237">
        <ele>444.75</ele>
        <time>2016-05-02T09:15:12Z</time>
      </trkpt>
      <trkpt lat="47.92682" lon="7.22226">
        <ele>449.07</ele>
        <time>2016-05-02T09:15:21Z</time>
      </trkpt>
      <trkpt lat="47.92682" lon="7.22225">
        <ele>445.23</ele>
        <time>2016-05-02T09:15:22Z</time>
      </trkpt>
      <trkpt lat="47.9268" lon="7.22222">
        <ele>449.55</ele>
        <time>2016-05-02T09:15:28Z</time>
      </trkpt>
      <trkpt lat="47.92679" lon="7.22221">
        <ele>446.67</ele>
        <time>2016-05-02T09:15:29Z</time>
      </trkpt>
      <trkpt lat="47.92677" lon="7.22218">
        <ele>450.03</ele>
        <time>2016-05-02T09:15:32Z</time>
      </trkpt>
      <trkpt lat="47.92677" lon="7.22217">
        <ele>446.19</ele>
        <time>2016-05-02T09:15:34Z</time>
      </trkpt>
      <trkpt lat="47.92675" lon="7.22216">
        <ele>449.55</ele>
        <time>2016-05-02T09:15:37Z</time>
      </trkpt>
      <trkpt lat="47.92678" lon="7.22203">
        <ele>451.48</ele>
        <time>2016-05-02T09:15:50Z</time>
      </trkpt>
      <trkpt lat="47.92687" lon="7.22181">
        <ele>455.32</ele>
        <time>2016-05-02T09:16:09Z</time>
      </trkpt>
      <trkpt lat="47.92687" lon="7.22157">
        <ele>454.84</ele>
        <time>2016-05-02T09:16:28Z</time>
      </trkpt>
      <trkpt lat="47.92689" lon="7.22159">
        <ele>455.32</ele>
        <time>2016-05-02T09:16:53Z</time>
      </trkpt>
      <trkpt lat="47.92685" lon="7.22152">
        <ele>457.24</ele>
        <time>2016-05-02T09:17:08Z</time>
      </trkpt>
      <trkpt lat="47.92685" lon="7.22135">
        <ele>460.13</ele>
        <time>2016-05-02T09:17:27Z</time>
      </trkpt>
      <trkpt lat="47.92691" lon="7.22111">
        <ele>461.57</ele>
        <time>2016-05-02T09:17:45Z</time>
      </trkpt>
      <trkpt lat="47.92686" lon="7.22092">
        <ele>464.45</ele>
        <time>2016-05-02T09:18:01Z</time>
      </trkpt>
      <trkpt lat="47.92693" lon="7.22074">
        <ele>465.42</ele>
        <time>2016-05-02T09:18:14Z</time>
      </trkpt>
      <trkpt lat="47.92702" lon="7.22059">
        <ele>467.34</ele>
        <time>2016-05-02T09:18:28Z</time>
      </trkpt>
      <trkpt lat="47.92699" lon="7.22049">
        <ele>469.26</ele>
        <time>2016-05-02T09:18:41Z</time>
      </trkpt>
      <trkpt lat="47.92695" lon="7.22051">
        <ele>468.78</ele>
        <time>2016-05-02T09:18:56Z</time>
      </trkpt>
      <trkpt lat="47.92692" lon="7.2205">
        <ele>468.78</ele>
        <time>2016-05-02T09:19:21Z</time>
      </trkpt>
      <trkpt lat="47.92691" lon="7.2205">
        <ele>468.78</ele>
        <time>2016-05-02T09:19:58Z</time>
      </trkpt>
      <trkpt lat="47.9269" lon="7.22051">
        <ele>470.22</ele>
        <time>2016-05-02T09:21:11Z</time>
      </trkpt>
      <trkpt lat="47.92689" lon="7.22051">
        <ele>472.63</ele>
        <time>2016-05-02T09:21:20Z</time>
      </trkpt>
      <trkpt lat="47.92678" lon="7.22059">
        <ele>475.51</ele>
        <time>2016-05-02T09:21:38Z</time>
      </trkpt>
      <trkpt lat="47.92661" lon="7.22077">
        <ele>477.91</ele>
        <time>2016-05-02T09:22:03Z</time>
      </trkpt>
      <trkpt lat="47.92642" lon="7.22087">
        <ele>479.84</ele>
        <time>2016-05-02T09:22:24Z</time>
      </trkpt>
      <trkpt lat="47.92638" lon="7.22104">
        <ele>481.76</ele>
        <time>2016-05-02T09:22:45Z</time>
      </trkpt>
      <trkpt lat="47.92637" lon="7.22109">
        <ele>481.76</ele>
        <time>2016-05-02T09:22:53Z</time>
      </trkpt>
      <trkpt lat="47.9264" lon="7.22117">
        <ele>484.16</ele>
        <time>2016-05-02T09:23:06Z</time>
      </trkpt>
      <trkpt lat="47.92638" lon="7.22129">
        <ele>483.2</ele>
        <time>2016-05-02T09:23:35Z</time>
      </trkpt>
      <trkpt lat="47.92626" lon="7.22128">
        <ele>486.56</ele>
        <time>2016-05-02T09:23:51Z</time>
      </trkpt>
      <trkpt lat="47.92625" lon="7.2213">
        <ele>483.68</ele>
        <time>2016-05-02T09:23:53Z</time>
      </trkpt>
      <trkpt lat="47.92623" lon="7.22136">
        <ele>486.08</ele>
        <time>2016-05-02T09:23:58Z</time>
      </trkpt>
      <trkpt lat="47.92616" lon="7.22147">
        <ele>487.53</ele>
        <time>2016-05-02T09:24:15Z</time>
      </trkpt>
      <trkpt lat="47.92613" lon="7.22144">
        <ele>487.53</ele>
        <time>2016-05-02T09:24:25Z</time>
      </trkpt>
      <trkpt lat="47.92608" lon="7.2215">
        <ele>491.37</ele>
        <time>2016-05-02T09:24:44Z</time>
      </trkpt>
      <trkpt lat="47.92606" lon="7.22151">
        <ele>488.01</ele>
        <time>2016-05-02T09:24:45Z</time>
      </trkpt>
      <trkpt lat="47.92604" lon="7.22152">
        <ele>491.85</ele>
        <time>2016-05-02T09:24:46Z</time>
      </trkpt>
      <trkpt lat="47.92603" lon="7.22152">
        <ele>488.01</ele>
        <time>2016-05-02T09:24:47Z</time>
      </trkpt>
      <trkpt lat="47.92598" lon="7.22155">
        <ele>491.37</ele>
        <time>2016-05-02T09:24:52Z</time>
      </trkpt>
      <trkpt lat="47.92594" lon="7.2216">
        <ele>495.7</ele>
        <time>2016-05-02T09:25:04Z</time>
      </trkpt>
      <trkpt lat="47.92593" lon="7.22164">
        <ele>491.85</ele>
        <time>2016-05-02T09:25:05Z</time>
      </trkpt>
      <trkpt lat="47.92591" lon="7.22169">
        <ele>496.66</ele>
        <time>2016-05-02T09:25:08Z</time>
      </trkpt>
      <trkpt lat="47.92591" lon="7.22169">
        <ele>492.33</ele>
        <time>2016-05-02T09:25:09Z</time>
      </trkpt>
      <trkpt lat="47.92591" lon="7.22169">
        <ele>495.22</ele>
        <time>2016-05-02T09:25:13Z</time>
      </trkpt>
      <trkpt lat="47.9259" lon="7.22178">
        <ele>494.74</ele>
        <time>2016-05-02T09:25:28Z</time>
      </trkpt>
      <trkpt lat="47.92592" lon="7.22184">
        <ele>493.77</ele>
        <time>2016-05-02T09:25:45Z</time>
      </trkpt>
      <trkpt lat="47.92593" lon="7.22184">
        <ele>494.26</ele>
        <time>2016-05-02T09:26:32Z</time>
      </trkpt>
      <trkpt lat="47.92593" lon="7.22185">
        <ele>496.18</ele>
        <time>2016-05-02T09:29:46Z</time>
      </trkpt>
      <trkpt lat="47.92594" lon="7.22186">
        <ele>497.14</ele>
        <time>2016-05-02T09:30:35Z</time>
      </trkpt>
      <trkpt lat="47.92593" lon="7.22187">
        <ele>498.1</ele>
        <time>2016-05-02T09:31:06Z</time>
      </trkpt>
      <trkpt lat="47.92593" lon="7.22187">
        <ele>500.98</ele>
        <time>2016-05-02T09:31:22Z</time>
      </trkpt>
      <trkpt lat="47.9259" lon="7.22193">
        <ele>502.43</ele>
        <time>2016-05-02T09:31:36Z</time>
      </trkpt>
      <trkpt lat="47.9259" lon="7.22193">
        <ele>505.79</ele>
        <time>2016-05-02T09:31:47Z</time>
      </trkpt>
      <trkpt lat="47.9259" lon="7.22193">
        <ele>504.83</ele>
        <time>2016-05-02T09:31:57Z</time>
      </trkpt>
      <trkpt lat="47.9259" lon="7.22193">
        <ele>508.19</ele>
        <time>2016-05-02T09:31:59Z</time>
      </trkpt>
      <trkpt lat="47.9259" lon="7.22193">
        <ele>507.23</ele>
        <time>2016-05-02T09:32:00Z</time>
      </trkpt>
      <trkpt lat="47.9259" lon="7.22193">
        <ele>503.87</ele>
        <time>2016-05-02T09:32:01Z</time>
      </trkpt>
      <trkpt lat="47.9259" lon="7.22193">
        <ele>504.83</ele>
        <time>2016-05-02T09:32:02Z</time>
      </trkpt>
      <trkpt lat="47.9259" lon="7.22193">
        <ele>508.19</ele>
        <time>2016-05-02T09:32:03Z</time>
      </trkpt>
      <trkpt lat="47.9259" lon="7.22194">
        <ele>511.56</ele>
        <time>2016-05-02T09:32:20Z</time>
      </trkpt>
      <trkpt lat="47.9259" lon="7.22194">
        <ele>508.67</ele>
        <time>2016-05-02T09:32:31Z</time>
      </trkpt>
      <trkpt lat="47.9259" lon="7.22194">
        <ele>510.6</ele>
        <time>2016-05-02T09:32:33Z</time>
      </trkpt>
      <trkpt lat="47.9259" lon="7.22194">
        <ele>515.4</ele>
        <time>2016-05-02T09:32:41Z</time>
      </trkpt>
      <trkpt lat="47.9259" lon="7.22194">
        <ele>512.04</ele>
        <time>2016-05-02T09:32:42Z</time>
      </trkpt>
      <trkpt lat="47.9259" lon="7.22194">
        <ele>517.33</ele>
        <time>2016-05-02T09:32:52Z</time>
      </trkpt>
      <trkpt lat="47.9259" lon="7.22194">
        <ele>513.48</ele>
        <time>2016-05-02T09:32:53Z</time>
      </trkpt>
      <trkpt lat="47.9259" lon="7.22194">
        <ele>517.33</ele>
        <time>2016-05-02T09:33:02Z</time>
      </trkpt>
      <trkpt lat="47.9259" lon="7.22194">
        <ele>516.37</ele>
        <time>2016-05-02T09:33:03Z</time>
      </trkpt>
      <trkpt lat="47.9259" lon="7.22194">
        <ele>515.88</ele>
        <time>2016-05-02T09:33:07Z</time>
      </trkpt>
      <trkpt lat="47.9259" lon="7.22194">
        <ele>520.21</ele>
        <time>2016-05-02T09:33:09Z</time>
      </trkpt>
      <trkpt lat="47.9259" lon="7.22194">
        <ele>515.88</ele>
        <time>2016-05-02T09:33:10Z</time>
      </trkpt>
      <trkpt lat="47.9259" lon="7.22194">
        <ele>520.69</ele>
        <time>2016-05-02T09:33:13Z</time>
      </trkpt>
      <trkpt lat="47.9259" lon="7.22194">
        <ele>516.37</ele>
        <time>2016-05-02T09:33:14Z</time>
      </trkpt>
      <trkpt lat="47.9259" lon="7.22194">
        <ele>519.73</ele>
        <time>2016-05-02T09:33:17Z</time>
      </trkpt>
      <trkpt lat="47.9259" lon="7.22194">
        <ele>516.37</ele>
        <time>2016-05-02T09:33:32Z</time>
      </trkpt>
      <trkpt lat="47.9259" lon="7.22194">
        <ele>516.37</ele>
        <time>2016-05-02T09:33:33Z</time>
      </trkpt>
      <trkpt lat="47.9259" lon="7.22194">
        <ele>520.69</ele>
        <time>2016-05-02T09:33:34Z</time>
      </trkpt>
      <trkpt lat="47.9259" lon="7.22194">
        <ele>519.25</ele>
        <time>2016-05-02T09:33:35Z</time>
      </trkpt>
      <trkpt lat="47.9259" lon="7.22194">
        <ele>522.61</ele>
        <time>2016-05-02T09:33:49Z</time>
      </trkpt>
      <trkpt lat="47.9259" lon="7.22194">
        <ele>520.21</ele>
        <time>2016-05-02T09:33:53Z</time>
      </trkpt>
      <trkpt lat="47.9259" lon="7.22194">
        <ele>523.58</ele>
        <time>2016-05-02T09:34:03Z</time>
      </trkpt>
      <trkpt lat="47.92589" lon="7.22193">
        <ele>523.09</ele>
        <time>2016-05-02T09:34:19Z</time>
      </trkpt>
      <trkpt lat="47.92588" lon="7.22191">
        <ele>524.06</ele>
        <time>2016-05-02T09:34:35Z</time>
      </trkpt>
      <trkpt lat="47.92587" lon="7.22178">
        <ele>524.06</ele>
        <time>2016-05-02T09:35:04Z</time>
      </trkpt>
      <trkpt lat="47.92566" lon="7.22129">
        <ele>524.06</ele>
        <time>2016-05-02T09:35:17Z</time>
      </trkpt>
      <trkpt lat="47.92536" lon="7.22096">
        <ele>524.06</ele>
        <time>2016-05-02T09:35:33Z</time>
      </trkpt>
      <trkpt lat="47.92534" lon="7.22081">
        <ele>524.06</ele>
        <time>2016-05-02T09:35:51Z</time>
      </trkpt>
      <trkpt lat="47.92536" lon="7.22073">
        <ele>524.06</ele>
        <time>2016-05-02T09:36:08Z</time>
      </trkpt>
      <trkpt lat="47.92527" lon="7.2209">
        <ele>524.54</ele>
        <time>2016-05-02T09:36:32Z</time>
      </trkpt>
      <trkpt lat="47.92527" lon="7.22106">
        <ele>524.06</ele>
        <time>2016-05-02T09:36:51Z</time>
      </trkpt>
      <trkpt lat="47.92525" lon="7.22125">
        <ele>524.06</ele>
        <time>2016-05-02T09:37:07Z</time>
      </trkpt>
      <trkpt lat="47.92522" lon="7.22141">
        <ele>525.02</ele>
        <time>2016-05-02T09:37:19Z</time>
      </trkpt>
      <trkpt lat="47.9252" lon="7.22146">
        <ele>524.54</ele>
        <time>2016-05-02T09:37:23Z</time>
      </trkpt>
      <trkpt lat="47.92519" lon="7.2215">
        <ele>525.98</ele>
        <time>2016-05-02T09:37:26Z</time>
      </trkpt>
      <trkpt lat="47.92518" lon="7.22154">
        <ele>525.98</ele>
        <time>2016-05-02T09:37:28Z</time>
      </trkpt>
      <trkpt lat="47.92509" lon="7.22156">
        <ele>526.94</ele>
        <time>2016-05-02T09:37:39Z</time>
      </trkpt>
      <trkpt lat="47.92499" lon="7.22171">
        <ele>527.42</ele>
        <time>2016-05-02T09:37:59Z</time>
      </trkpt>
      <trkpt lat="47.92494" lon="7.22185">
        <ele>528.38</ele>
        <time>2016-05-02T09:38:28Z</time>
      </trkpt>
      <trkpt lat="47.92488" lon="7.22187">
        <ele>530.3</ele>
        <time>2016-05-02T09:38:52Z</time>
      </trkpt>
      <trkpt lat="47.92487" lon="7.22188">
        <ele>530.3</ele>
        <time>2016-05-02T09:38:53Z</time>
      </trkpt>
      <trkpt lat="47.92479" lon="7.22194">
        <ele>531.75</ele>
        <time>2016-05-02T09:39:03Z</time>
      </trkpt>
      <trkpt lat="47.92464" lon="7.22219">
        <ele>534.63</ele>
        <time>2016-05-02T09:39:21Z</time>
      </trkpt>
      <trkpt lat="47.92451" lon="7.22246">
        <ele>536.55</ele>
        <time>2016-05-02T09:39:46Z</time>
      </trkpt>
      <trkpt lat="47.92442" lon="7.22277">
        <ele>536.07</ele>
        <time>2016-05-02T09:40:05Z</time>
      </trkpt>
      <trkpt lat="47.92434" lon="7.22305">
        <ele>537.03</ele>
        <time>2016-05-02T09:40:26Z</time>
      </trkpt>
      <trkpt lat="47.92431" lon="7.22335">
        <ele>536.55</ele>
        <time>2016-05-02T09:40:45Z</time>
      </trkpt>
      <trkpt lat="47.92423" lon="7.22344">
        <ele>532.71</ele>
        <time>2016-05-02T09:40:57Z</time>
      </trkpt>
      <trkpt lat="47.92422" lon="7.22345">
        <ele>531.75</ele>
        <time>2016-05-02T09:41:12Z</time>
      </trkpt>
      <trkpt lat="47.92416" lon="7.2235">
        <ele>530.3</ele>
        <time>2016-05-02T09:41:21Z</time>
      </trkpt>
      <trkpt lat="47.92416" lon="7.22351">
        <ele>531.75</ele>
        <time>2016-05-02T09:41:23Z</time>
      </trkpt>
      <trkpt lat="47.92415" lon="7.22356">
        <ele>529.34</ele>
        <time>2016-05-02T09:41:26Z</time>
      </trkpt>
      <trkpt lat="47.92415" lon="7.22359">
        <ele>530.3</ele>
        <time>2016-05-02T09:41:28Z</time>
      </trkpt>
      <trkpt lat="47.92415" lon="7.22361">
        <ele>529.34</ele>
        <time>2016-05-02T09:41:30Z</time>
      </trkpt>
      <trkpt lat="47.92408" lon="7.22392">
        <ele>527.42</ele>
        <time>2016-05-02T09:41:48Z</time>
      </trkpt>
      <trkpt lat="47.92406" lon="7.22396">
        <ele>526.46</ele>
        <time>2016-05-02T09:41:51Z</time>
      </trkpt>
      <trkpt lat="47.92406" lon="7.22398">
        <ele>529.34</ele>
        <time>2016-05-02T09:41:53Z</time>
      </trkpt>
      <trkpt lat="47.92404" lon="7.22402">
        <ele>525.98</ele>
        <time>2016-05-02T09:42:00Z</time>
      </trkpt>
      <trkpt lat="47.92403" lon="7.224">
        <ele>529.34</ele>
        <time>2016-05-02T09:42:02Z</time>
      </trkpt>
      <trkpt lat="47.92399" lon="7.224">
        <ele>526.46</ele>
        <time>2016-05-02T09:42:06Z</time>
      </trkpt>
      <trkpt lat="47.92393" lon="7.22403">
        <ele>525.98</ele>
        <time>2016-05-02T09:42:14Z</time>
      </trkpt>
      <trkpt lat="47.92386" lon="7.22418">
        <ele>525.02</ele>
        <time>2016-05-02T09:42:30Z</time>
      </trkpt>
      <trkpt lat="47.92372" lon="7.22429">
        <ele>525.5</ele>
        <time>2016-05-02T09:42:50Z</time>
      </trkpt>
      <trkpt lat="47.92367" lon="7.2242">
        <ele>527.42</ele>
        <time>2016-05-02T09:43:14Z</time>
      </trkpt>
      <trkpt lat="47.92367" lon="7.22421">
        <ele>524.06</ele>
        <time>2016-05-02T09:43:15Z</time>
      </trkpt>
      <trkpt lat="47.92358" lon="7.22411">
        <ele>528.38</ele>
        <time>2016-05-02T09:43:37Z</time>
      </trkpt>
      <trkpt lat="47.92355" lon="7.2241">
        <ele>525.02</ele>
        <time>2016-05-02T09:43:58Z</time>
      </trkpt>
      <trkpt lat="47.92355" lon="7.2241">
        <ele>528.38</ele>
        <time>2016-05-02T09:43:59Z</time>
      </trkpt>
      <trkpt lat="47.9236" lon="7.22408">
        <ele>527.42</ele>
        <time>2016-05-02T09:44:25Z</time>
      </trkpt>
      <trkpt lat="47.9236" lon="7.22408">
        <ele>526.94</ele>
        <time>2016-05-02T09:44:30Z</time>
      </trkpt>
      <trkpt lat="47.9236" lon="7.22408">
        <ele>527.9</ele>
        <time>2016-05-02T09:44:32Z</time>
      </trkpt>
      <trkpt lat="47.92362" lon="7.22407">
        <ele>528.38</ele>
        <time>2016-05-02T09:45:03Z</time>
      </trkpt>
      <trkpt lat="47.92356" lon="7.22403">
        <ele>527.42</ele>
        <time>2016-05-02T09:45:16Z</time>
      </trkpt>
      <trkpt lat="47.92353" lon="7.22397">
        <ele>531.27</ele>
        <time>2016-05-02T09:45:23Z</time>
      </trkpt>
      <trkpt lat="47.92353" lon="7.22397">
        <ele>530.3</ele>
        <time>2016-05-02T09:45:24Z</time>
      </trkpt>
      <trkpt lat="47.92347" lon="7.22398">
        <ele>526.46</ele>
        <time>2016-05-02T09:45:32Z</time>
      </trkpt>
      <trkpt lat="47.92346" lon="7.22399">
        <ele>530.3</ele>
        <time>2016-05-02T09:45:34Z</time>
      </trkpt>
      <trkpt lat="47.92346" lon="7.22399">
        <ele>525.98</ele>
        <time>2016-05-02T09:45:35Z</time>
      </trkpt>
      <trkpt lat="47.92346" lon="7.22399">
        <ele>530.79</ele>
        <time>2016-05-02T09:45:36Z</time>
      </trkpt>
      <trkpt lat="47.92346" lon="7.22402">
        <ele>527.9</ele>
        <time>2016-05-02T09:45:39Z</time>
      </trkpt>
      <trkpt lat="47.92346" lon="7.22406">
        <ele>529.34</ele>
        <time>2016-05-02T09:45:46Z</time>
      </trkpt>
      <trkpt lat="47.92346" lon="7.22406">
        <ele>527.42</ele>
        <time>2016-05-02T09:45:49Z</time>
      </trkpt>
      <trkpt lat="47.92338" lon="7.22412">
        <ele>528.38</ele>
        <time>2016-05-02T09:46:22Z</time>
      </trkpt>
      <trkpt lat="47.92344" lon="7.22405">
        <ele>528.38</ele>
        <time>2016-05-02T09:46:50Z</time>
      </trkpt>
      <trkpt lat="47.92343" lon="7.22408">
        <ele>528.86</ele>
        <time>2016-05-02T09:47:16Z</time>
      </trkpt>
      <trkpt lat="47.92342" lon="7.22413">
        <ele>529.34</ele>
        <time>2016-05-02T09:47:27Z</time>
      </trkpt>
      <trkpt lat="47.92341" lon="7.22414">
        <ele>529.34</ele>
        <time>2016-05-02T09:47:32Z</time>
      </trkpt>
      <trkpt lat="47.92341" lon="7.22413">
        <ele>530.79</ele>
        <time>2016-05-02T09:47:35Z</time>
      </trkpt>
      <trkpt lat="47.92339" lon="7.22413">
        <ele>529.82</ele>
        <time>2016-05-02T09:47:37Z</time>
      </trkpt>
      <trkpt lat="47.92335" lon="7.22414">
        <ele>533.67</ele>
        <time>2016-05-02T09:47:55Z</time>
      </trkpt>
      <trkpt lat="47.92335" lon="7.22413">
        <ele>533.19</ele>
        <time>2016-05-02T09:47:56Z</time>
      </trkpt>
      <trkpt lat="47.92336" lon="7.22411">
        <ele>533.67</ele>
        <time>2016-05-02T09:48:18Z</time>
      </trkpt>
      <trkpt lat="47.92338" lon="7.22409">
        <ele>530.3</ele>
        <time>2016-05-02T09:48:23Z</time>
      </trkpt>
      <trkpt lat="47.92338" lon="7.22409">
        <ele>532.71</ele>
        <time>2016-05-02T09:48:24Z</time>
      </trkpt>
      <trkpt lat="47.92335" lon="7.22409">
        <ele>531.27</ele>
        <time>2016-05-02T09:48:30Z</time>
      </trkpt>
      <trkpt lat="47.92338" lon="7.22413">
        <ele>531.75</ele>
        <time>2016-05-02T09:48:34Z</time>
      </trkpt>
      <trkpt lat="47.92338" lon="7.22424">
        <ele>528.38</ele>
        <time>2016-05-02T09:48:41Z</time>
      </trkpt>
      <trkpt lat="47.92338" lon="7.22425">
        <ele>530.79</ele>
        <time>2016-05-02T09:48:42Z</time>
      </trkpt>
      <trkpt lat="47.92336" lon="7.22427">
        <ele>531.27</ele>
        <time>2016-05-02T09:48:46Z</time>
      </trkpt>
      <trkpt lat="47.92336" lon="7.22427">
        <ele>526.94</ele>
        <time>2016-05-02T09:49:08Z</time>
      </trkpt>
      <trkpt lat="47.92336" lon="7.22427">
        <ele>529.82</ele>
        <time>2016-05-02T09:49:09Z</time>
      </trkpt>
      <trkpt lat="47.92336" lon="7.22427">
        <ele>525.98</ele>
        <time>2016-05-02T09:49:12Z</time>
      </trkpt>
      <trkpt lat="47.92336" lon="7.22427">
        <ele>527.42</ele>
        <time>2016-05-02T09:49:13Z</time>
      </trkpt>
      <trkpt lat="47.92332" lon="7.22425">
        <ele>531.27</ele>
        <time>2016-05-02T09:49:20Z</time>
      </trkpt>
      <trkpt lat="47.9233" lon="7.22424">
        <ele>527.9</ele>
        <time>2016-05-02T09:49:22Z</time>
      </trkpt>
      <trkpt lat="47.92327" lon="7.22424">
        <ele>528.38</ele>
        <time>2016-05-02T09:49:26Z</time>
      </trkpt>
      <trkpt lat="47.92326" lon="7.22424">
        <ele>526.94</ele>
        <time>2016-05-02T09:49:27Z</time>
      </trkpt>
      <trkpt lat="47.92319" lon="7.22445">
        <ele>526.46</ele>
        <time>2016-05-02T09:49:47Z</time>
      </trkpt>
      <trkpt lat="47.92307" lon="7.22448">
        <ele>530.3</ele>
        <time>2016-05-02T09:50:07Z</time>
      </trkpt>
      <trkpt lat="47.92307" lon="7.22448">
        <ele>529.34</ele>
        <time>2016-05-02T09:50:08Z</time>
      </trkpt>
      <trkpt lat="47.92305" lon="7.22446">
        <ele>529.82</ele>
        <time>2016-05-02T09:50:13Z</time>
      </trkpt>
      <trkpt lat="47.92291" lon="7.22446">
        <ele>529.34</ele>
        <time>2016-05-02T09:50:32Z</time>
      </trkpt>
      <trkpt lat="47.92278" lon="7.22448">
        <ele>528.38</ele>
        <time>2016-05-02T09:50:44Z</time>
      </trkpt>
      <trkpt lat="47.92271" lon="7.22445">
        <ele>531.27</ele>
        <time>2016-05-02T09:50:53Z</time>
      </trkpt>
      <trkpt lat="47.92253" lon="7.22436">
        <ele>531.75</ele>
        <time>2016-05-02T09:51:18Z</time>
      </trkpt>
      <trkpt lat="47.92233" lon="7.22433">
        <ele>531.75</ele>
        <time>2016-05-02T09:51:44Z</time>
      </trkpt>
      <trkpt lat="47.92229" lon="7.22444">
        <ele>532.23</ele>
        <time>2016-05-02T09:52:05Z</time>
      </trkpt>
      <trkpt lat="47.92221" lon="7.22451">
        <ele>532.71</ele>
        <time>2016-05-02T09:52:25Z</time>
      </trkpt>
      <trkpt lat="47.92212" lon="7.22458">
        <ele>533.19</ele>
        <time>2016-05-02T09:52:30Z</time>
      </trkpt>
      <trkpt lat="47.92208" lon="7.22459">
        <ele>535.59</ele>
        <time>2016-05-02T09:52:35Z</time>
      </trkpt>
      <trkpt lat="47.92205" lon="7.22462">
        <ele>537.03</ele>
        <time>2016-05-02T09:52:46Z</time>
      </trkpt>
      <trkpt lat="47.92203" lon="7.22467">
        <ele>536.55</ele>
        <time>2016-05-02T09:52:50Z</time>
      </trkpt>
      <trkpt lat="47.92199" lon="7.22473">
        <ele>536.07</ele>
        <time>2016-05-02T09:52:55Z</time>
      </trkpt>
      <trkpt lat="47.92188" lon="7.22479">
        <ele>537.03</ele>
        <time>2016-05-02T09:53:30Z</time>
      </trkpt>
      <trkpt lat="47.92192" lon="7.22478">
        <ele>533.19</ele>
        <time>2016-05-02T09:53:41Z</time>
      </trkpt>
      <trkpt lat="47.92192" lon="7.22478">
        <ele>532.71</ele>
        <time>2016-05-02T09:53:50Z</time>
      </trkpt>
      <trkpt lat="47.92195" lon="7.22469">
        <ele>534.63</ele>
        <time>2016-05-02T09:54:00Z</time>
      </trkpt>
      <trkpt lat="47.92196" lon="7.22466">
        <ele>531.27</ele>
        <time>2016-05-02T09:54:02Z</time>
      </trkpt>
      <trkpt lat="47.92195" lon="7.22461">
        <ele>532.71</ele>
        <time>2016-05-02T09:54:14Z</time>
      </trkpt>
      <trkpt lat="47.92192" lon="7.22461">
        <ele>528.38</ele>
        <time>2016-05-02T09:54:17Z</time>
      </trkpt>
      <trkpt lat="47.92191" lon="7.22461">
        <ele>530.3</ele>
        <time>2016-05-02T09:54:18Z</time>
      </trkpt>
      <trkpt lat="47.92187" lon="7.22461">
        <ele>530.3</ele>
        <time>2016-05-02T09:54:36Z</time>
      </trkpt>
      <trkpt lat="47.9218" lon="7.22467">
        <ele>531.27</ele>
        <time>2016-05-02T09:55:15Z</time>
      </trkpt>
      <trkpt lat="47.92177" lon="7.22469">
        <ele>530.79</ele>
        <time>2016-05-02T09:55:24Z</time>
      </trkpt>
      <trkpt lat="47.92173" lon="7.22467">
        <ele>531.75</ele>
        <time>2016-05-02T09:55:41Z</time>
      </trkpt>
      <trkpt lat="47.92171" lon="7.22466">
        <ele>528.86</ele>
        <time>2016-05-02T09:55:42Z</time>
      </trkpt>
      <trkpt lat="47.92172" lon="7.22464">
        <ele>529.34</ele>
        <time>2016-05-02T09:55:44Z</time>
      </trkpt>
      <trkpt lat="47.92173" lon="7.22459">
        <ele>531.27</ele>
        <time>2016-05-02T09:55:49Z</time>
      </trkpt>
      <trkpt lat="47.92187" lon="7.22461">
        <ele>531.27</ele>
        <time>2016-05-02T09:56:17Z</time>
      </trkpt>
      <trkpt lat="47.92179" lon="7.2247">
        <ele>533.67</ele>
        <time>2016-05-02T09:56:28Z</time>
      </trkpt>
      <trkpt lat="47.92179" lon="7.2247">
        <ele>536.55</ele>
        <time>2016-05-02T09:56:44Z</time>
      </trkpt>
      <trkpt lat="47.92159" lon="7.22468">
        <ele>537.03</ele>
        <time>2016-05-02T09:57:08Z</time>
      </trkpt>
      <trkpt lat="47.92149" lon="7.22477">
        <ele>537.51</ele>
        <time>2016-05-02T09:57:33Z</time>
      </trkpt>
      <trkpt lat="47.92144" lon="7.2248">
        <ele>540.4</ele>
        <time>2016-05-02T09:57:59Z</time>
      </trkpt>
      <trkpt lat="47.92136" lon="7.22474">
        <ele>539.44</ele>
        <time>2016-05-02T09:58:16Z</time>
      </trkpt>
      <trkpt lat="47.9213" lon="7.22473">
        <ele>537.03</ele>
        <time>2016-05-02T09:58:39Z</time>
      </trkpt>
      <trkpt lat="47.92124" lon="7.22475">
        <ele>539.92</ele>
        <time>2016-05-02T09:58:44Z</time>
      </trkpt>
      <trkpt lat="47.9211" lon="7.22482">
        <ele>536.55</ele>
        <time>2016-05-02T09:58:50Z</time>
      </trkpt>
      <trkpt lat="47.92098" lon="7.22493">
        <ele>532.23</ele>
        <time>2016-05-02T09:58:58Z</time>
      </trkpt>
      <trkpt lat="47.92096" lon="7.22495">
        <ele>536.55</ele>
        <time>2016-05-02T09:59:01Z</time>
      </trkpt>
      <trkpt lat="47.92095" lon="7.22498">
        <ele>535.59</ele>
        <time>2016-05-02T09:59:02Z</time>
      </trkpt>
      <trkpt lat="47.92094" lon="7.22502">
        <ele>531.75</ele>
        <time>2016-05-02T09:59:04Z</time>
      </trkpt>
      <trkpt lat="47.92093" lon="7.22504">
        <ele>531.27</ele>
        <time>2016-05-02T09:59:05Z</time>
      </trkpt>
      <trkpt lat="47.92091" lon="7.2251">
        <ele>534.15</ele>
        <time>2016-05-02T09:59:08Z</time>
      </trkpt>
      <trkpt lat="47.92091" lon="7.22511">
        <ele>533.19</ele>
        <time>2016-05-02T09:59:09Z</time>
      </trkpt>
      <trkpt lat="47.92084" lon="7.22517">
        <ele>532.23</ele>
        <time>2016-05-02T09:59:27Z</time>
      </trkpt>
      <trkpt lat="47.92075" lon="7.22516">
        <ele>533.19</ele>
        <time>2016-05-02T09:59:48Z</time>
      </trkpt>
      <trkpt lat="47.92075" lon="7.22515">
        <ele>536.55</ele>
        <time>2016-05-02T09:59:50Z</time>
      </trkpt>
      <trkpt lat="47.92074" lon="7.22514">
        <ele>535.11</ele>
        <time>2016-05-02T09:59:51Z</time>
      </trkpt>
      <trkpt lat="47.92074" lon="7.22511">
        <ele>534.15</ele>
        <time>2016-05-02T09:59:56Z</time>
      </trkpt>
      <trkpt lat="47.92073" lon="7.22507">
        <ele>537.51</ele>
        <time>2016-05-02T09:59:59Z</time>
      </trkpt>
      <trkpt lat="47.92072" lon="7.22506">
        <ele>534.63</ele>
        <time>2016-05-02T10:00:00Z</time>
      </trkpt>
      <trkpt lat="47.92071" lon="7.22502">
        <ele>538.48</ele>
        <time>2016-05-02T10:00:05Z</time>
      </trkpt>
      <trkpt lat="47.9207" lon="7.22501">
        <ele>536.55</ele>
        <time>2016-05-02T10:00:06Z</time>
      </trkpt>
      <trkpt lat="47.92067" lon="7.22498">
        <ele>537.03</ele>
        <time>2016-05-02T10:00:11Z</time>
      </trkpt>
      <trkpt lat="47.92066" lon="7.22497">
        <ele>536.55</ele>
        <time>2016-05-02T10:00:13Z</time>
      </trkpt>
      <trkpt lat="47.92064" lon="7.22496">
        <ele>539.92</ele>
        <time>2016-05-02T10:00:15Z</time>
      </trkpt>
      <trkpt lat="47.92043" lon="7.22488">
        <ele>542.8</ele>
        <time>2016-05-02T10:00:34Z</time>
      </trkpt>
      <trkpt lat="47.92025" lon="7.22491">
        <ele>543.76</ele>
        <time>2016-05-02T10:00:56Z</time>
      </trkpt>
      <trkpt lat="47.92025" lon="7.22491">
        <ele>543.28</ele>
        <time>2016-05-02T10:00:57Z</time>
      </trkpt>
      <trkpt lat="47.92015" lon="7.22496">
        <ele>539.92</ele>
        <time>2016-05-02T10:01:07Z</time>
      </trkpt>
      <trkpt lat="47.92011" lon="7.22498">
        <ele>539.92</ele>
        <time>2016-05-02T10:01:11Z</time>
      </trkpt>
      <trkpt lat="47.92009" lon="7.22499">
        <ele>544.24</ele>
        <time>2016-05-02T10:01:13Z</time>
      </trkpt>
      <trkpt lat="47.92007" lon="7.225">
        <ele>540.4</ele>
        <time>2016-05-02T10:01:14Z</time>
      </trkpt>
      <trkpt lat="47.92006" lon="7.22502">
        <ele>540.88</ele>
        <time>2016-05-02T10:01:21Z</time>
      </trkpt>
      <trkpt lat="47.92006" lon="7.22502">
        <ele>537.51</ele>
        <time>2016-05-02T10:01:24Z</time>
      </trkpt>
      <trkpt lat="47.92003" lon="7.22502">
        <ele>540.88</ele>
        <time>2016-05-02T10:01:42Z</time>
      </trkpt>
      <trkpt lat="47.92002" lon="7.22501">
        <ele>537.51</ele>
        <time>2016-05-02T10:01:46Z</time>
      </trkpt>
      <trkpt lat="47.92" lon="7.225">
        <ele>541.36</ele>
        <time>2016-05-02T10:01:49Z</time>
      </trkpt>
      <trkpt lat="47.92" lon="7.225">
        <ele>541.36</ele>
        <time>2016-05-02T10:01:50Z</time>
      </trkpt>
      <trkpt lat="47.91989" lon="7.22501">
        <ele>544.72</ele>
        <time>2016-05-02T10:02:03Z</time>
      </trkpt>
      <trkpt lat="47.91987" lon="7.22501">
        <ele>538.96</ele>
        <time>2016-05-02T10:02:05Z</time>
      </trkpt>
      <trkpt lat="47.91987" lon="7.225">
        <ele>543.28</ele>
        <time>2016-05-02T10:02:06Z</time>
      </trkpt>
      <trkpt lat="47.91986" lon="7.225">
        <ele>540.4</ele>
        <time>2016-05-02T10:02:08Z</time>
      </trkpt>
      <trkpt lat="47.91985" lon="7.225">
        <ele>543.76</ele>
        <time>2016-05-02T10:02:09Z</time>
      </trkpt>
      <trkpt lat="47.91984" lon="7.225">
        <ele>540.4</ele>
        <time>2016-05-02T10:02:11Z</time>
      </trkpt>
      <trkpt lat="47.91983" lon="7.225">
        <ele>544.24</ele>
        <time>2016-05-02T10:02:12Z</time>
      </trkpt>
      <trkpt lat="47.91983" lon="7.22501">
        <ele>540.88</ele>
        <time>2016-05-02T10:02:13Z</time>
      </trkpt>
      <trkpt lat="47.91982" lon="7.225">
        <ele>544.24</ele>
        <time>2016-05-02T10:02:14Z</time>
      </trkpt>
      <trkpt lat="47.91982" lon="7.225">
        <ele>539.92</ele>
        <time>2016-05-02T10:02:15Z</time>
      </trkpt>
      <trkpt lat="47.91981" lon="7.22499">
        <ele>543.28</ele>
        <time>2016-05-02T10:02:18Z</time>
      </trkpt>
      <trkpt lat="47.91975" lon="7.22498">
        <ele>539.92</ele>
        <time>2016-05-02T10:02:24Z</time>
      </trkpt>
      <trkpt lat="47.91974" lon="7.22497">
        <ele>539.92</ele>
        <time>2016-05-02T10:02:25Z</time>
      </trkpt>
      <trkpt lat="47.91958" lon="7.22493">
        <ele>539.92</ele>
        <time>2016-05-02T10:02:42Z</time>
      </trkpt>
      <trkpt lat="47.91947" lon="7.22501">
        <ele>539.92</ele>
        <time>2016-05-02T10:02:53Z</time>
      </trkpt>
      <trkpt lat="47.91942" lon="7.225">
        <ele>540.88</ele>
        <time>2016-05-02T10:03:10Z</time>
      </trkpt>
      <trkpt lat="47.91936" lon="7.22497">
        <ele>542.8</ele>
        <time>2016-05-02T10:03:29Z</time>
      </trkpt>
      <trkpt lat="47.91928" lon="7.2249">
        <ele>542.32</ele>
        <time>2016-05-02T10:03:46Z</time>
      </trkpt>
      <trkpt lat="47.91913" lon="7.22489">
        <ele>541.84</ele>
        <time>2016-05-02T10:04:02Z</time>
      </trkpt>
      <trkpt lat="47.91901" lon="7.22484">
        <ele>544.72</ele>
        <time>2016-05-02T10:04:26Z</time>
      </trkpt>
      <trkpt lat="47.91891" lon="7.22486">
        <ele>544.72</ele>
        <time>2016-05-02T10:04:45Z</time>
      </trkpt>
      <trkpt lat="47.91874" lon="7.2249">
        <ele>543.76</ele>
        <time>2016-05-02T10:05:01Z</time>
      </trkpt>
      <trkpt lat="47.91861" lon="7.22493">
        <ele>543.76</ele>
        <time>2016-05-02T10:05:17Z</time>
      </trkpt>
      <trkpt lat="47.91854" lon="7.22493">
        <ele>542.32</ele>
        <time>2016-05-02T10:05:33Z</time>
      </trkpt>
      <trkpt lat="47.91849" lon="7.22486">
        <ele>542.8</ele>
        <time>2016-05-02T10:05:52Z</time>
      </trkpt>
      <trkpt lat="47.91838" lon="7.22478">
        <ele>541.36</ele>
        <time>2016-05-02T10:06:11Z</time>
      </trkpt>
      <trkpt lat="47.91824" lon="7.22469">
        <ele>541.36</ele>
        <time>2016-05-02T10:06:26Z</time>
      </trkpt>
      <trkpt lat="47.91817" lon="7.22467">
        <ele>539.44</ele>
        <time>2016-05-02T10:06:43Z</time>
      </trkpt>
      <trkpt lat="47.91809" lon="7.22466">
        <ele>540.4</ele>
        <time>2016-05-02T10:07:07Z</time>
      </trkpt>
      <trkpt lat="47.9178" lon="7.22458">
        <ele>539.92</ele>
        <time>2016-05-02T10:07:23Z</time>
      </trkpt>
      <trkpt lat="47.91768" lon="7.22465">
        <ele>539.92</ele>
        <time>2016-05-02T10:07:39Z</time>
      </trkpt>
      <trkpt lat="47.91769" lon="7.22464">
        <ele>539.92</ele>
        <time>2016-05-02T10:08:02Z</time>
      </trkpt>
      <trkpt lat="47.91767" lon="7.22461">
        <ele>540.4</ele>
        <time>2016-05-02T10:09:02Z</time>
      </trkpt>
      <trkpt lat="47.91768" lon="7.2246">
        <ele>538.96</ele>
        <time>2016-05-02T10:09:34Z</time>
      </trkpt>
      <trkpt lat="47.91769" lon="7.22459">
        <ele>540.88</ele>
        <time>2016-05-02T10:09:36Z</time>
      </trkpt>
      <trkpt lat="47.91771" lon="7.22454">
        <ele>540.4</ele>
        <time>2016-05-02T10:09:56Z</time>
      </trkpt>
      <trkpt lat="47.91768" lon="7.22451">
        <ele>539.92</ele>
        <time>2016-05-02T10:10:29Z</time>
      </trkpt>
      <trkpt lat="47.91765" lon="7.2245">
        <ele>541.36</ele>
        <time>2016-05-02T10:20:32Z</time>
      </trkpt>
      <trkpt lat="47.91762" lon="7.2245">
        <ele>541.84</ele>
        <time>2016-05-02T10:26:17Z</time>
      </trkpt>
      <trkpt lat="47.9176" lon="7.22454">
        <ele>542.8</ele>
        <time>2016-05-02T10:32:07Z</time>
      </trkpt>
      <trkpt lat="47.91759" lon="7.22455">
        <ele>544.24</ele>
        <time>2016-05-02T10:39:52Z</time>
      </trkpt>
      <trkpt lat="47.91759" lon="7.22454">
        <ele>545.2</ele>
        <time>2016-05-02T10:43:01Z</time>
      </trkpt>
      <trkpt lat="47.91759" lon="7.22453">
        <ele>545.69</ele>
        <time>2016-05-02T10:45:10Z</time>
      </trkpt>
      <trkpt lat="47.9176" lon="7.22453">
        <ele>546.17</ele>
        <time>2016-05-02T10:47:18Z</time>
      </trkpt>
      <trkpt lat="47.91761" lon="7.22449">
        <ele>549.05</ele>
        <time>2016-05-02T10:56:58Z</time>
      </trkpt>
      <trkpt lat="47.91762" lon="7.22444">
        <ele>549.53</ele>
        <time>2016-05-02T11:02:51Z</time>
      </trkpt>
      <trkpt lat="47.91762" lon="7.22442">
        <ele>550.49</ele>
        <time>2016-05-02T11:06:46Z</time>
      </trkpt>
      <trkpt lat="47.91759" lon="7.22451">
        <ele>553.38</ele>
        <time>2016-05-02T11:15:42Z</time>
      </trkpt>
      <trkpt lat="47.91756" lon="7.22451">
        <ele>554.34</ele>
        <time>2016-05-02T11:23:53Z</time>
      </trkpt>
      <trkpt lat="47.91755" lon="7.22452">
        <ele>555.3</ele>
        <time>2016-05-02T11:23:55Z</time>
      </trkpt>
      <trkpt lat="47.91756" lon="7.22453">
        <ele>550.01</ele>
        <time>2016-05-02T11:24:10Z</time>
      </trkpt>
      <trkpt lat="47.91756" lon="7.22453">
        <ele>553.86</ele>
        <time>2016-05-02T11:24:11Z</time>
      </trkpt>
      <trkpt lat="47.91756" lon="7.22453">
        <ele>557.7</ele>
        <time>2016-05-02T11:24:12Z</time>
      </trkpt>
      <trkpt lat="47.91756" lon="7.22453">
        <ele>555.78</ele>
        <time>2016-05-02T11:24:13Z</time>
      </trkpt>
      <trkpt lat="47.91756" lon="7.22453">
        <ele>550.97</ele>
        <time>2016-05-02T11:24:55Z</time>
      </trkpt>
      <trkpt lat="47.91756" lon="7.22453">
        <ele>554.82</ele>
        <time>2016-05-02T11:24:56Z</time>
      </trkpt>
      <trkpt lat="47.91756" lon="7.22454">
        <ele>553.86</ele>
        <time>2016-05-02T11:25:11Z</time>
      </trkpt>
      <trkpt lat="47.91762" lon="7.2246">
        <ele>555.3</ele>
        <time>2016-05-02T11:25:29Z</time>
      </trkpt>
      <trkpt lat="47.91762" lon="7.22463">
        <ele>551.45</ele>
        <time>2016-05-02T11:25:32Z</time>
      </trkpt>
      <trkpt lat="47.91762" lon="7.22463">
        <ele>554.82</ele>
        <time>2016-05-02T11:25:35Z</time>
      </trkpt>
      <trkpt lat="47.91771" lon="7.22479">
        <ele>551.45</ele>
        <time>2016-05-02T11:25:46Z</time>
      </trkpt>
      <trkpt lat="47.91771" lon="7.22479">
        <ele>551.45</ele>
        <time>2016-05-02T11:25:47Z</time>
      </trkpt>
      <trkpt lat="47.91781" lon="7.22493">
        <ele>548.09</ele>
        <time>2016-05-02T11:25:59Z</time>
      </trkpt>
      <trkpt lat="47.91791" lon="7.22507">
        <ele>546.65</ele>
        <time>2016-05-02T11:26:13Z</time>
      </trkpt>
      <trkpt lat="47.918" lon="7.22516">
        <ele>543.28</ele>
        <time>2016-05-02T11:26:27Z</time>
      </trkpt>
      <trkpt lat="47.91811" lon="7.22516">
        <ele>539.92</ele>
        <time>2016-05-02T11:26:40Z</time>
      </trkpt>
      <trkpt lat="47.91822" lon="7.22522">
        <ele>538.96</ele>
        <time>2016-05-02T11:26:57Z</time>
      </trkpt>
      <trkpt lat="47.91835" lon="7.22532">
        <ele>537.03</ele>
        <time>2016-05-02T11:27:11Z</time>
      </trkpt>
      <trkpt lat="47.9185" lon="7.22539">
        <ele>532.71</ele>
        <time>2016-05-02T11:27:26Z</time>
      </trkpt>
      <trkpt lat="47.91863" lon="7.22542">
        <ele>533.67</ele>
        <time>2016-05-02T11:27:43Z</time>
      </trkpt>
      <trkpt lat="47.91871" lon="7.22553">
        <ele>530.3</ele>
        <time>2016-05-02T11:27:56Z</time>
      </trkpt>
      <trkpt lat="47.91862" lon="7.22559">
        <ele>527.42</ele>
        <time>2016-05-02T11:28:11Z</time>
      </trkpt>
      <trkpt lat="47.91854" lon="7.22563">
        <ele>524.06</ele>
        <time>2016-05-02T11:28:22Z</time>
      </trkpt>
      <trkpt lat="47.91851" lon="7.22568">
        <ele>521.17</ele>
        <time>2016-05-02T11:28:31Z</time>
      </trkpt>
      <trkpt lat="47.91843" lon="7.22577">
        <ele>515.4</ele>
        <time>2016-05-02T11:28:40Z</time>
      </trkpt>
      <trkpt lat="47.91842" lon="7.22578">
        <ele>519.25</ele>
        <time>2016-05-02T11:28:41Z</time>
      </trkpt>
      <trkpt lat="47.91831" lon="7.22588">
        <ele>515.4</ele>
        <time>2016-05-02T11:28:54Z</time>
      </trkpt>
      <trkpt lat="47.9183" lon="7.22588">
        <ele>515.4</ele>
        <time>2016-05-02T11:28:55Z</time>
      </trkpt>
      <trkpt lat="47.91827" lon="7.22589">
        <ele>514.44</ele>
        <time>2016-05-02T11:28:58Z</time>
      </trkpt>
      <trkpt lat="47.91817" lon="7.22603">
        <ele>511.56</ele>
        <time>2016-05-02T11:29:12Z</time>
      </trkpt>
      <trkpt lat="47.91809" lon="7.22601">
        <ele>511.08</ele>
        <time>2016-05-02T11:29:31Z</time>
      </trkpt>
      <trkpt lat="47.91795" lon="7.22596">
        <ele>508.67</ele>
        <time>2016-05-02T11:29:47Z</time>
      </trkpt>
      <trkpt lat="47.91786" lon="7.22599">
        <ele>508.67</ele>
        <time>2016-05-02T11:30:08Z</time>
      </trkpt>
      <trkpt lat="47.91781" lon="7.22595">
        <ele>507.71</ele>
        <time>2016-05-02T11:30:57Z</time>
      </trkpt>
      <trkpt lat="47.91779" lon="7.22595">
        <ele>513.48</ele>
        <time>2016-05-02T11:30:59Z</time>
      </trkpt>
      <trkpt lat="47.91779" lon="7.22595">
        <ele>511.08</ele>
        <time>2016-05-02T11:31:00Z</time>
      </trkpt>
      <trkpt lat="47.91778" lon="7.22594">
        <ele>507.71</ele>
        <time>2016-05-02T11:31:06Z</time>
      </trkpt>
      <trkpt lat="47.91778" lon="7.22594">
        <ele>509.16</ele>
        <time>2016-05-02T11:31:09Z</time>
      </trkpt>
      <trkpt lat="47.91769" lon="7.2258">
        <ele>509.64</ele>
        <time>2016-05-02T11:31:27Z</time>
      </trkpt>
      <trkpt lat="47.91765" lon="7.22575">
        <ele>511.08</ele>
        <time>2016-05-02T11:31:33Z</time>
      </trkpt>
      <trkpt lat="47.91758" lon="7.22562">
        <ele>512.04</ele>
        <time>2016-05-02T11:31:44Z</time>
      </trkpt>
      <trkpt lat="47.91755" lon="7.22559">
        <ele>512.04</ele>
        <time>2016-05-02T11:31:48Z</time>
      </trkpt>
      <trkpt lat="47.91754" lon="7.22558">
        <ele>508.19</ele>
        <time>2016-05-02T11:31:49Z</time>
      </trkpt>
      <trkpt lat="47.91753" lon="7.22558">
        <ele>510.6</ele>
        <time>2016-05-02T11:31:50Z</time>
      </trkpt>
      <trkpt lat="47.91751" lon="7.22557">
        <ele>511.56</ele>
        <time>2016-05-02T11:31:52Z</time>
      </trkpt>
      <trkpt lat="47.91749" lon="7.22556">
        <ele>508.19</ele>
        <time>2016-05-02T11:31:53Z</time>
      </trkpt>
      <trkpt lat="47.91748" lon="7.22555">
        <ele>511.08</ele>
        <time>2016-05-02T11:31:54Z</time>
      </trkpt>
      <trkpt lat="47.9173" lon="7.22543">
        <ele>509.16</ele>
        <time>2016-05-02T11:32:10Z</time>
      </trkpt>
      <trkpt lat="47.91729" lon="7.22542">
        <ele>513</ele>
        <time>2016-05-02T11:32:11Z</time>
      </trkpt>
      <trkpt lat="47.91727" lon="7.22542">
        <ele>510.6</ele>
        <time>2016-05-02T11:32:12Z</time>
      </trkpt>
      <trkpt lat="47.91724" lon="7.22542">
        <ele>506.27</ele>
        <time>2016-05-02T11:32:14Z</time>
      </trkpt>
      <trkpt lat="47.91723" lon="7.22542">
        <ele>510.6</ele>
        <time>2016-05-02T11:32:15Z</time>
      </trkpt>
      <trkpt lat="47.91718" lon="7.22541">
        <ele>512.04</ele>
        <time>2016-05-02T11:32:19Z</time>
      </trkpt>
      <trkpt lat="47.91713" lon="7.22541">
        <ele>508.67</ele>
        <time>2016-05-02T11:32:22Z</time>
      </trkpt>
      <trkpt lat="47.91711" lon="7.22539">
        <ele>512.52</ele>
        <time>2016-05-02T11:32:24Z</time>
      </trkpt>
      <trkpt lat="47.91708" lon="7.22538">
        <ele>509.16</ele>
        <time>2016-05-02T11:32:26Z</time>
      </trkpt>
      <trkpt lat="47.91707" lon="7.22538">
        <ele>512.04</ele>
        <time>2016-05-02T11:32:28Z</time>
      </trkpt>
      <trkpt lat="47.91697" lon="7.22534">
        <ele>507.71</ele>
        <time>2016-05-02T11:32:35Z</time>
      </trkpt>
      <trkpt lat="47.91696" lon="7.22534">
        <ele>508.67</ele>
        <time>2016-05-02T11:32:36Z</time>
      </trkpt>
      <trkpt lat="47.91678" lon="7.22529">
        <ele>506.75</ele>
        <time>2016-05-02T11:32:52Z</time>
      </trkpt>
      <trkpt lat="47.91672" lon="7.22528">
        <ele>509.64</ele>
        <time>2016-05-02T11:32:56Z</time>
      </trkpt>
      <trkpt lat="47.91668" lon="7.22525">
        <ele>505.79</ele>
        <time>2016-05-02T11:33:00Z</time>
      </trkpt>
      <trkpt lat="47.9166" lon="7.22522">
        <ele>508.67</ele>
        <time>2016-05-02T11:33:06Z</time>
      </trkpt>
      <trkpt lat="47.91655" lon="7.22521">
        <ele>505.31</ele>
        <time>2016-05-02T11:33:10Z</time>
      </trkpt>
      <trkpt lat="47.91651" lon="7.22516">
        <ele>507.23</ele>
        <time>2016-05-02T11:33:14Z</time>
      </trkpt>
      <trkpt lat="47.91648" lon="7.22514">
        <ele>503.87</ele>
        <time>2016-05-02T11:33:18Z</time>
      </trkpt>
      <trkpt lat="47.91648" lon="7.22512">
        <ele>507.23</ele>
        <time>2016-05-02T11:33:19Z</time>
      </trkpt>
      <trkpt lat="47.91645" lon="7.22509">
        <ele>511.08</ele>
        <time>2016-05-02T11:33:23Z</time>
      </trkpt>
      <trkpt lat="47.91644" lon="7.22508">
        <ele>509.64</ele>
        <time>2016-05-02T11:33:24Z</time>
      </trkpt>
      <trkpt lat="47.91641" lon="7.22506">
        <ele>506.75</ele>
        <time>2016-05-02T11:33:26Z</time>
      </trkpt>
      <trkpt lat="47.91639" lon="7.22505">
        <ele>505.79</ele>
        <time>2016-05-02T11:33:28Z</time>
      </trkpt>
      <trkpt lat="47.91638" lon="7.22504">
        <ele>506.75</ele>
        <time>2016-05-02T11:33:30Z</time>
      </trkpt>
      <trkpt lat="47.91636" lon="7.22501">
        <ele>504.83</ele>
        <time>2016-05-02T11:33:32Z</time>
      </trkpt>
      <trkpt lat="47.91633" lon="7.22498">
        <ele>504.35</ele>
        <time>2016-05-02T11:33:36Z</time>
      </trkpt>
      <trkpt lat="47.91621" lon="7.22483">
        <ele>504.35</ele>
        <time>2016-05-02T11:33:53Z</time>
      </trkpt>
      <trkpt lat="47.91606" lon="7.22476">
        <ele>503.87</ele>
        <time>2016-05-02T11:34:06Z</time>
      </trkpt>
      <trkpt lat="47.9159" lon="7.22467">
        <ele>502.91</ele>
        <time>2016-05-02T11:34:20Z</time>
      </trkpt>
      <trkpt lat="47.91577" lon="7.22461">
        <ele>499.54</ele>
        <time>2016-05-02T11:34:31Z</time>
      </trkpt>
      <trkpt lat="47.9156" lon="7.22449">
        <ele>500.98</ele>
        <time>2016-05-02T11:34:48Z</time>
      </trkpt>
      <trkpt lat="47.91547" lon="7.22435">
        <ele>500.02</ele>
        <time>2016-05-02T11:35:04Z</time>
      </trkpt>
      <trkpt lat="47.91539" lon="7.22423">
        <ele>498.1</ele>
        <time>2016-05-02T11:35:17Z</time>
      </trkpt>
      <trkpt lat="47.91525" lon="7.22409">
        <ele>495.7</ele>
        <time>2016-05-02T11:35:33Z</time>
      </trkpt>
      <trkpt lat="47.9151" lon="7.22394">
        <ele>493.77</ele>
        <time>2016-05-02T11:35:50Z</time>
      </trkpt>
      <trkpt lat="47.91495" lon="7.22374">
        <ele>490.89</ele>
        <time>2016-05-02T11:36:06Z</time>
      </trkpt>
      <trkpt lat="47.91485" lon="7.22357">
        <ele>489.93</ele>
        <time>2016-05-02T11:36:21Z</time>
      </trkpt>
      <trkpt lat="47.91473" lon="7.22344">
        <ele>488.01</ele>
        <time>2016-05-02T11:36:33Z</time>
      </trkpt>
      <trkpt lat="47.91461" lon="7.22331">
        <ele>486.08</ele>
        <time>2016-05-02T11:36:48Z</time>
      </trkpt>
      <trkpt lat="47.91449" lon="7.22318">
        <ele>484.64</ele>
        <time>2016-05-02T11:37:03Z</time>
      </trkpt>
      <trkpt lat="47.91442" lon="7.22303">
        <ele>483.2</ele>
        <time>2016-05-02T11:37:17Z</time>
      </trkpt>
      <trkpt lat="47.91431" lon="7.22287">
        <ele>481.76</ele>
        <time>2016-05-02T11:37:30Z</time>
      </trkpt>
      <trkpt lat="47.91416" lon="7.22267">
        <ele>480.32</ele>
        <time>2016-05-02T11:37:44Z</time>
      </trkpt>
      <trkpt lat="47.91404" lon="7.22255">
        <ele>477.43</ele>
        <time>2016-05-02T11:37:58Z</time>
      </trkpt>
      <trkpt lat="47.91392" lon="7.22243">
        <ele>475.99</ele>
        <time>2016-05-02T11:38:11Z</time>
      </trkpt>
      <trkpt lat="47.91383" lon="7.22235">
        <ele>474.55</ele>
        <time>2016-05-02T11:38:23Z</time>
      </trkpt>
      <trkpt lat="47.91381" lon="7.22231">
        <ele>473.59</ele>
        <time>2016-05-02T11:38:27Z</time>
      </trkpt>
      <trkpt lat="47.91367" lon="7.22221">
        <ele>471.66</ele>
        <time>2016-05-02T11:38:41Z</time>
      </trkpt>
      <trkpt lat="47.91354" lon="7.22216">
        <ele>470.7</ele>
        <time>2016-05-02T11:38:55Z</time>
      </trkpt>
      <trkpt lat="47.91349" lon="7.22212">
        <ele>470.22</ele>
        <time>2016-05-02T11:39:03Z</time>
      </trkpt>
      <trkpt lat="47.91327" lon="7.22203">
        <ele>468.3</ele>
        <time>2016-05-02T11:39:20Z</time>
      </trkpt>
      <trkpt lat="47.9131" lon="7.22195">
        <ele>466.86</ele>
        <time>2016-05-02T11:39:35Z</time>
      </trkpt>
      <trkpt lat="47.91293" lon="7.22189">
        <ele>464.93</ele>
        <time>2016-05-02T11:39:51Z</time>
      </trkpt>
      <trkpt lat="47.91293" lon="7.22188">
        <ele>464.93</ele>
        <time>2016-05-02T11:39:52Z</time>
      </trkpt>
      <trkpt lat="47.91273" lon="7.22187">
        <ele>461.57</ele>
        <time>2016-05-02T11:40:09Z</time>
      </trkpt>
      <trkpt lat="47.91259" lon="7.22191">
        <ele>458.69</ele>
        <time>2016-05-02T11:40:23Z</time>
      </trkpt>
      <trkpt lat="47.91242" lon="7.22193">
        <ele>456.28</ele>
        <time>2016-05-02T11:40:38Z</time>
      </trkpt>
      <trkpt lat="47.91235" lon="7.22192">
        <ele>454.84</ele>
        <time>2016-05-02T11:40:45Z</time>
      </trkpt>
      <trkpt lat="47.91229" lon="7.22193">
        <ele>453.88</ele>
        <time>2016-05-02T11:40:50Z</time>
      </trkpt>
      <trkpt lat="47.91226" lon="7.2219">
        <ele>450.52</ele>
        <time>2016-05-02T11:40:54Z</time>
      </trkpt>
      <trkpt lat="47.91209" lon="7.22185">
        <ele>451.48</ele>
        <time>2016-05-02T11:41:09Z</time>
      </trkpt>
      <trkpt lat="47.91203" lon="7.22184">
        <ele>449.55</ele>
        <time>2016-05-02T11:41:15Z</time>
      </trkpt>
      <trkpt lat="47.91198" lon="7.2218">
        <ele>452.44</ele>
        <time>2016-05-02T11:41:19Z</time>
      </trkpt>
      <trkpt lat="47.91195" lon="7.2218">
        <ele>448.59</ele>
        <time>2016-05-02T11:41:21Z</time>
      </trkpt>
      <trkpt lat="47.91193" lon="7.22179">
        <ele>449.07</ele>
        <time>2016-05-02T11:41:22Z</time>
      </trkpt>
      <trkpt lat="47.9119" lon="7.2218">
        <ele>448.59</ele>
        <time>2016-05-02T11:41:28Z</time>
      </trkpt>
      <trkpt lat="47.91184" lon="7.22176">
        <ele>451.48</ele>
        <time>2016-05-02T11:41:32Z</time>
      </trkpt>
      <trkpt lat="47.9118" lon="7.22176">
        <ele>448.11</ele>
        <time>2016-05-02T11:41:35Z</time>
      </trkpt>
      <trkpt lat="47.91166" lon="7.22176">
        <ele>448.11</ele>
        <time>2016-05-02T11:41:44Z</time>
      </trkpt>
      <trkpt lat="47.91159" lon="7.22177">
        <ele>448.59</ele>
        <time>2016-05-02T11:41:50Z</time>
      </trkpt>
      <trkpt lat="47.91147" lon="7.22174">
        <ele>445.71</ele>
        <time>2016-05-02T11:42:00Z</time>
      </trkpt>
      <trkpt lat="47.91141" lon="7.22174">
        <ele>447.63</ele>
        <time>2016-05-02T11:42:07Z</time>
      </trkpt>
      <trkpt lat="47.91136" lon="7.22172">
        <ele>445.71</ele>
        <time>2016-05-02T11:42:11Z</time>
      </trkpt>
      <trkpt lat="47.91127" lon="7.22172">
        <ele>448.59</ele>
        <time>2016-05-02T11:42:18Z</time>
      </trkpt>
      <trkpt lat="47.91123" lon="7.22174">
        <ele>447.15</ele>
        <time>2016-05-02T11:42:22Z</time>
      </trkpt>
      <trkpt lat="47.91115" lon="7.22169">
        <ele>448.11</ele>
        <time>2016-05-02T11:42:29Z</time>
      </trkpt>
      <trkpt lat="47.91109" lon="7.22165">
        <ele>445.23</ele>
        <time>2016-05-02T11:42:35Z</time>
      </trkpt>
      <trkpt lat="47.91107" lon="7.22164">
        <ele>447.15</ele>
        <time>2016-05-02T11:42:38Z</time>
      </trkpt>
      <trkpt lat="47.911" lon="7.22162">
        <ele>447.15</ele>
        <time>2016-05-02T11:42:44Z</time>
      </trkpt>
      <trkpt lat="47.91096" lon="7.22159">
        <ele>445.23</ele>
        <time>2016-05-02T11:42:47Z</time>
      </trkpt>
      <trkpt lat="47.91094" lon="7.22157">
        <ele>447.63</ele>
        <time>2016-05-02T11:42:49Z</time>
      </trkpt>
      <trkpt lat="47.91091" lon="7.22155">
        <ele>449.07</ele>
        <time>2016-05-02T11:42:51Z</time>
      </trkpt>
      <trkpt lat="47.91072" lon="7.22159">
        <ele>446.19</ele>
        <time>2016-05-02T11:43:05Z</time>
      </trkpt>
      <trkpt lat="47.91066" lon="7.22157">
        <ele>445.23</ele>
        <time>2016-05-02T11:43:13Z</time>
      </trkpt>
      <trkpt lat="47.91049" lon="7.22159">
        <ele>443.79</ele>
        <time>2016-05-02T11:43:28Z</time>
      </trkpt>
      <trkpt lat="47.91049" lon="7.22159">
        <ele>443.31</ele>
        <time>2016-05-02T11:43:53Z</time>
      </trkpt>
      <trkpt lat="47.91046" lon="7.22171">
        <ele>442.82</ele>
        <time>2016-05-02T11:44:15Z</time>
      </trkpt>
      <trkpt lat="47.91045" lon="7.22173">
        <ele>442.82</ele>
        <time>2016-05-02T11:44:16Z</time>
      </trkpt>
      <trkpt lat="47.91041" lon="7.22179">
        <ele>442.34</ele>
        <time>2016-05-02T11:44:23Z</time>
      </trkpt>
      <trkpt lat="47.91034" lon="7.2218">
        <ele>441.38</ele>
        <time>2016-05-02T11:44:37Z</time>
      </trkpt>
      <trkpt lat="47.91033" lon="7.2218">
        <ele>441.86</ele>
        <time>2016-05-02T11:45:11Z</time>
      </trkpt>
      <trkpt lat="47.91031" lon="7.22178">
        <ele>440.9</ele>
        <time>2016-05-02T11:45:43Z</time>
      </trkpt>
      <trkpt lat="47.91028" lon="7.22175">
        <ele>441.86</ele>
        <time>2016-05-02T11:45:46Z</time>
      </trkpt>
      <trkpt lat="47.91013" lon="7.22165">
        <ele>440.42</ele>
        <time>2016-05-02T11:46:03Z</time>
      </trkpt>
      <trkpt lat="47.91007" lon="7.22161">
        <ele>432.73</ele>
        <time>2016-05-02T11:46:15Z</time>
      </trkpt>
      <trkpt lat="47.91006" lon="7.22161">
        <ele>436.58</ele>
        <time>2016-05-02T11:46:16Z</time>
      </trkpt>
      <trkpt lat="47.91005" lon="7.2216">
        <ele>440.42</ele>
        <time>2016-05-02T11:46:18Z</time>
      </trkpt>
      <trkpt lat="47.91004" lon="7.2216">
        <ele>437.54</ele>
        <time>2016-05-02T11:46:19Z</time>
      </trkpt>
      <trkpt lat="47.90988" lon="7.22157">
        <ele>433.69</ele>
        <time>2016-05-02T11:46:34Z</time>
      </trkpt>
      <trkpt lat="47.90987" lon="7.22156">
        <ele>436.1</ele>
        <time>2016-05-02T11:46:35Z</time>
      </trkpt>
      <trkpt lat="47.90987" lon="7.22156">
        <ele>437.06</ele>
        <time>2016-05-02T11:46:37Z</time>
      </trkpt>
      <trkpt lat="47.90985" lon="7.22155">
        <ele>436.58</ele>
        <time>2016-05-02T11:46:45Z</time>
      </trkpt>
      <trkpt lat="47.90985" lon="7.22155">
        <ele>436.1</ele>
        <time>2016-05-02T11:46:52Z</time>
      </trkpt>
      <trkpt lat="47.90985" lon="7.2216">
        <ele>435.13</ele>
        <time>2016-05-02T11:47:20Z</time>
      </trkpt>
      <trkpt lat="47.9098" lon="7.22157">
        <ele>437.06</ele>
        <time>2016-05-02T11:47:41Z</time>
      </trkpt>
      <trkpt lat="47.9098" lon="7.22157">
        <ele>433.69</ele>
        <time>2016-05-02T11:47:42Z</time>
      </trkpt>
      <trkpt lat="47.90979" lon="7.22157">
        <ele>433.69</ele>
        <time>2016-05-02T11:47:43Z</time>
      </trkpt>
      <trkpt lat="47.90978" lon="7.22157">
        <ele>437.54</ele>
        <time>2016-05-02T11:47:45Z</time>
      </trkpt>
      <trkpt lat="47.90977" lon="7.22157">
        <ele>436.58</ele>
        <time>2016-05-02T11:47:46Z</time>
      </trkpt>
      <trkpt lat="47.90969" lon="7.22159">
        <ele>436.58</ele>
        <time>2016-05-02T11:47:52Z</time>
      </trkpt>
      <trkpt lat="47.90967" lon="7.22159">
        <ele>432.73</ele>
        <time>2016-05-02T11:47:54Z</time>
      </trkpt>
      <trkpt lat="47.90966" lon="7.22159">
        <ele>432.73</ele>
        <time>2016-05-02T11:47:55Z</time>
      </trkpt>
      <trkpt lat="47.90961" lon="7.22159">
        <ele>436.1</ele>
        <time>2016-05-02T11:47:58Z</time>
      </trkpt>
      <trkpt lat="47.90959" lon="7.22159">
        <ele>430.81</ele>
        <time>2016-05-02T11:48:00Z</time>
      </trkpt>
      <trkpt lat="47.90956" lon="7.22158">
        <ele>434.17</ele>
        <time>2016-05-02T11:48:03Z</time>
      </trkpt>
      <trkpt lat="47.90954" lon="7.22159">
        <ele>435.13</ele>
        <time>2016-05-02T11:48:05Z</time>
      </trkpt>
      <trkpt lat="47.90952" lon="7.22161">
        <ele>432.73</ele>
        <time>2016-05-02T11:48:07Z</time>
      </trkpt>
      <trkpt lat="47.9095" lon="7.22162">
        <ele>431.29</ele>
        <time>2016-05-02T11:48:09Z</time>
      </trkpt>
      <trkpt lat="47.90947" lon="7.22162">
        <ele>427.92</ele>
        <time>2016-05-02T11:48:13Z</time>
      </trkpt>
      <trkpt lat="47.90941" lon="7.22162">
        <ele>430.33</ele>
        <time>2016-05-02T11:48:18Z</time>
      </trkpt>
      <trkpt lat="47.90936" lon="7.22162">
        <ele>426.96</ele>
        <time>2016-05-02T11:48:22Z</time>
      </trkpt>
      <trkpt lat="47.90925" lon="7.22157">
        <ele>428.89</ele>
        <time>2016-05-02T11:48:32Z</time>
      </trkpt>
      <trkpt lat="47.90923" lon="7.22158">
        <ele>422.16</ele>
        <time>2016-05-02T11:48:34Z</time>
      </trkpt>
      <trkpt lat="47.90922" lon="7.22158">
        <ele>426.96</ele>
        <time>2016-05-02T11:48:35Z</time>
      </trkpt>
      <trkpt lat="47.90908" lon="7.2216">
        <ele>424.56</ele>
        <time>2016-05-02T11:48:51Z</time>
      </trkpt>
      <trkpt lat="47.90895" lon="7.22157">
        <ele>422.16</ele>
        <time>2016-05-02T11:49:04Z</time>
      </trkpt>
      <trkpt lat="47.90893" lon="7.22158">
        <ele>422.16</ele>
        <time>2016-05-02T11:49:05Z</time>
      </trkpt>
      <trkpt lat="47.90886" lon="7.2216">
        <ele>418.31</ele>
        <time>2016-05-02T11:49:14Z</time>
      </trkpt>
      <trkpt lat="47.90885" lon="7.2216">
        <ele>418.31</ele>
        <time>2016-05-02T11:49:15Z</time>
      </trkpt>
      <trkpt lat="47.90876" lon="7.22159">
        <ele>416.87</ele>
        <time>2016-05-02T11:49:22Z</time>
      </trkpt>
      <trkpt lat="47.90872" lon="7.22163">
        <ele>416.39</ele>
        <time>2016-05-02T11:49:28Z</time>
      </trkpt>
      <trkpt lat="47.90863" lon="7.22166">
        <ele>413.02</ele>
        <time>2016-05-02T11:49:40Z</time>
      </trkpt>
      <trkpt lat="47.9086" lon="7.22167">
        <ele>409.66</ele>
        <time>2016-05-02T11:49:52Z</time>
      </trkpt>
      <trkpt lat="47.90855" lon="7.22169">
        <ele>407.74</ele>
        <time>2016-05-02T11:50:17Z</time>
      </trkpt>
      <trkpt lat="47.90848" lon="7.22178">
        <ele>406.29</ele>
        <time>2016-05-02T11:50:24Z</time>
      </trkpt>
      <trkpt lat="47.90844" lon="7.22181">
        <ele>409.18</ele>
        <time>2016-05-02T11:50:27Z</time>
      </trkpt>
      <trkpt lat="47.90835" lon="7.22191">
        <ele>405.81</ele>
        <time>2016-05-02T11:50:37Z</time>
      </trkpt>
      <trkpt lat="47.90825" lon="7.22198">
        <ele>407.26</ele>
        <time>2016-05-02T11:50:47Z</time>
      </trkpt>
      <trkpt lat="47.90821" lon="7.22199">
        <ele>402.93</ele>
        <time>2016-05-02T11:50:51Z</time>
      </trkpt>
      <trkpt lat="47.9082" lon="7.222">
        <ele>403.41</ele>
        <time>2016-05-02T11:50:52Z</time>
      </trkpt>
      <trkpt lat="47.90812" lon="7.22202">
        <ele>404.85</ele>
        <time>2016-05-02T11:51:00Z</time>
      </trkpt>
      <trkpt lat="47.90811" lon="7.22202">
        <ele>400.53</ele>
        <time>2016-05-02T11:51:01Z</time>
      </trkpt>
      <trkpt lat="47.9081" lon="7.22201">
        <ele>401.97</ele>
        <time>2016-05-02T11:51:02Z</time>
      </trkpt>
      <trkpt lat="47.90807" lon="7.22201">
        <ele>401.01</ele>
        <time>2016-05-02T11:51:06Z</time>
      </trkpt>
      <trkpt lat="47.90807" lon="7.22201">
        <ele>397.64</ele>
        <time>2016-05-02T11:51:09Z</time>
      </trkpt>
      <trkpt lat="47.90801" lon="7.22198">
        <ele>398.6</ele>
        <time>2016-05-02T11:51:13Z</time>
      </trkpt>
      <trkpt lat="47.90799" lon="7.22197">
        <ele>400.05</ele>
        <time>2016-05-02T11:51:15Z</time>
      </trkpt>
      <trkpt lat="47.90798" lon="7.22196">
        <ele>400.53</ele>
        <time>2016-05-02T11:51:16Z</time>
      </trkpt>
      <trkpt lat="47.90785" lon="7.22201">
        <ele>398.12</ele>
        <time>2016-05-02T11:51:29Z</time>
      </trkpt>
      <trkpt lat="47.9077" lon="7.22212">
        <ele>398.6</ele>
        <time>2016-05-02T11:51:44Z</time>
      </trkpt>
      <trkpt lat="47.90769" lon="7.22213">
        <ele>396.68</ele>
        <time>2016-05-02T11:51:46Z</time>
      </trkpt>
      <trkpt lat="47.90759" lon="7.22219">
        <ele>398.12</ele>
        <time>2016-05-02T11:51:55Z</time>
      </trkpt>
      <trkpt lat="47.90757" lon="7.2222">
        <ele>395.24</ele>
        <time>2016-05-02T11:51:58Z</time>
      </trkpt>
      <trkpt lat="47.90753" lon="7.22219">
        <ele>397.64</ele>
        <time>2016-05-02T11:52:02Z</time>
      </trkpt>
      <trkpt lat="47.90748" lon="7.22218">
        <ele>394.28</ele>
        <time>2016-05-02T11:52:05Z</time>
      </trkpt>
      <trkpt lat="47.90747" lon="7.22217">
        <ele>395.72</ele>
        <time>2016-05-02T11:52:06Z</time>
      </trkpt>
      <trkpt lat="47.90745" lon="7.22217">
        <ele>397.16</ele>
        <time>2016-05-02T11:52:07Z</time>
      </trkpt>
      <trkpt lat="47.9074" lon="7.22212">
        <ele>396.2</ele>
        <time>2016-05-02T11:52:27Z</time>
      </trkpt>
      <trkpt lat="47.9074" lon="7.22213">
        <ele>397.16</ele>
        <time>2016-05-02T11:52:45Z</time>
      </trkpt>
      <trkpt lat="47.90736" lon="7.22214">
        <ele>399.08</ele>
        <time>2016-05-02T11:52:48Z</time>
      </trkpt>
      <trkpt lat="47.90735" lon="7.22214">
        <ele>394.28</ele>
        <time>2016-05-02T11:52:49Z</time>
      </trkpt>
      <trkpt lat="47.90731" lon="7.22216">
        <ele>399.08</ele>
        <time>2016-05-02T11:52:52Z</time>
      </trkpt>
      <trkpt lat="47.90726" lon="7.22218">
        <ele>395.72</ele>
        <time>2016-05-02T11:52:56Z</time>
      </trkpt>
      <trkpt lat="47.90722" lon="7.22223">
        <ele>396.2</ele>
        <time>2016-05-02T11:53:01Z</time>
      </trkpt>
      <trkpt lat="47.9071" lon="7.22239">
        <ele>396.68</ele>
        <time>2016-05-02T11:53:16Z</time>
      </trkpt>
      <trkpt lat="47.907" lon="7.22241">
        <ele>395.72</ele>
        <time>2016-05-02T11:53:27Z</time>
      </trkpt>
      <trkpt lat="47.90686" lon="7.22249">
        <ele>395.72</ele>
        <time>2016-05-02T11:53:44Z</time>
      </trkpt>
      <trkpt lat="47.90686" lon="7.22249">
        <ele>395.24</ele>
        <time>2016-05-02T11:54:33Z</time>
      </trkpt>
      <trkpt lat="47.90686" lon="7.22249">
        <ele>394.28</ele>
        <time>2016-05-02T11:54:39Z</time>
      </trkpt>
      <trkpt lat="47.90683" lon="7.22249">
        <ele>396.2</ele>
        <time>2016-05-02T11:54:42Z</time>
      </trkpt>
      <trkpt lat="47.90678" lon="7.22248">
        <ele>393.8</ele>
        <time>2016-05-02T11:54:45Z</time>
      </trkpt>
      <trkpt lat="47.90666" lon="7.22249">
        <ele>395.24</ele>
        <time>2016-05-02T11:54:55Z</time>
      </trkpt>
      <trkpt lat="47.90664" lon="7.2225">
        <ele>393.32</ele>
        <time>2016-05-02T11:54:58Z</time>
      </trkpt>
      <trkpt lat="47.90655" lon="7.22254">
        <ele>394.28</ele>
        <time>2016-05-02T11:55:06Z</time>
      </trkpt>
      <trkpt lat="47.90645" lon="7.22262">
        <ele>391.39</ele>
        <time>2016-05-02T11:55:16Z</time>
      </trkpt>
      <trkpt lat="47.90643" lon="7.22262">
        <ele>394.76</ele>
        <time>2016-05-02T11:55:17Z</time>
      </trkpt>
      <trkpt lat="47.90642" lon="7.22262">
        <ele>391.39</ele>
        <time>2016-05-02T11:55:19Z</time>
      </trkpt>
      <trkpt lat="47.90638" lon="7.22263">
        <ele>395.24</ele>
        <time>2016-05-02T11:55:23Z</time>
      </trkpt>
      <trkpt lat="47.90633" lon="7.22269">
        <ele>392.84</ele>
        <time>2016-05-02T11:55:42Z</time>
      </trkpt>
      <trkpt lat="47.90634" lon="7.2228">
        <ele>394.76</ele>
        <time>2016-05-02T11:55:57Z</time>
      </trkpt>
      <trkpt lat="47.90635" lon="7.2228">
        <ele>393.32</ele>
        <time>2016-05-02T11:55:59Z</time>
      </trkpt>
      <trkpt lat="47.90634" lon="7.22282">
        <ele>393.32</ele>
        <time>2016-05-02T11:56:28Z</time>
      </trkpt>
      <trkpt lat="47.90635" lon="7.22281">
        <ele>391.39</ele>
        <time>2016-05-02T11:56:44Z</time>
      </trkpt>
      <trkpt lat="47.90636" lon="7.22279">
        <ele>392.84</ele>
        <time>2016-05-02T11:57:08Z</time>
      </trkpt>
      <trkpt lat="47.90636" lon="7.22273">
        <ele>393.8</ele>
        <time>2016-05-02T11:57:46Z</time>
      </trkpt>
      <trkpt lat="47.90642" lon="7.22275">
        <ele>393.32</ele>
        <time>2016-05-02T11:58:17Z</time>
      </trkpt>
      <trkpt lat="47.90647" lon="7.22276">
        <ele>392.36</ele>
        <time>2016-05-02T11:58:29Z</time>
      </trkpt>
      <trkpt lat="47.90647" lon="7.22276">
        <ele>393.32</ele>
        <time>2016-05-02T11:58:48Z</time>
      </trkpt>
      <trkpt lat="47.90647" lon="7.22276">
        <ele>393.32</ele>
        <time>2016-05-02T11:59:04Z</time>
      </trkpt>
      <trkpt lat="47.90652" lon="7.22281">
        <ele>394.28</ele>
        <time>2016-05-02T11:59:18Z</time>
      </trkpt>
      <trkpt lat="47.90655" lon="7.22285">
        <ele>393.8</ele>
        <time>2016-05-02T11:59:36Z</time>
      </trkpt>
      <trkpt lat="47.90669" lon="7.22293">
        <ele>393.8</ele>
        <time>2016-05-02T11:59:49Z</time>
      </trkpt>
      <trkpt lat="47.90679" lon="7.22292">
        <ele>395.72</ele>
        <time>2016-05-02T12:00:05Z</time>
      </trkpt>
      <trkpt lat="47.90684" lon="7.22295">
        <ele>396.2</ele>
        <time>2016-05-02T12:00:09Z</time>
      </trkpt>
      <trkpt lat="47.90692" lon="7.22309">
        <ele>397.64</ele>
        <time>2016-05-02T12:00:23Z</time>
      </trkpt>
      <trkpt lat="47.90703" lon="7.22323">
        <ele>399.08</ele>
        <time>2016-05-02T12:00:40Z</time>
      </trkpt>
      <trkpt lat="47.907" lon="7.22317">
        <ele>397.64</ele>
        <time>2016-05-02T12:00:53Z</time>
      </trkpt>
      <trkpt lat="47.90695" lon="7.22297">
        <ele>395.24</ele>
        <time>2016-05-02T12:01:10Z</time>
      </trkpt>
      <trkpt lat="47.90699" lon="7.22271">
        <ele>394.76</ele>
        <time>2016-05-02T12:01:29Z</time>
      </trkpt>
      <trkpt lat="47.90703" lon="7.22261">
        <ele>394.28</ele>
        <time>2016-05-02T12:01:35Z</time>
      </trkpt>
      <trkpt lat="47.90705" lon="7.22258">
        <ele>393.8</ele>
        <time>2016-05-02T12:01:37Z</time>
      </trkpt>
      <trkpt lat="47.90717" lon="7.22237">
        <ele>392.84</ele>
        <time>2016-05-02T12:01:53Z</time>
      </trkpt>
      <trkpt lat="47.90735" lon="7.22221">
        <ele>392.36</ele>
        <time>2016-05-02T12:02:12Z</time>
      </trkpt>
      <trkpt lat="47.90742" lon="7.22221">
        <ele>391.87</ele>
        <time>2016-05-02T12:02:20Z</time>
      </trkpt>
      <trkpt lat="47.90765" lon="7.22219">
        <ele>392.84</ele>
        <time>2016-05-02T12:02:42Z</time>
      </trkpt>
      <trkpt lat="47.90775" lon="7.22207">
        <ele>392.36</ele>
        <time>2016-05-02T12:02:54Z</time>
      </trkpt>
      <trkpt lat="47.90781" lon="7.22204">
        <ele>392.36</ele>
        <time>2016-05-02T12:03:00Z</time>
      </trkpt>
      <trkpt lat="47.90785" lon="7.22204">
        <ele>391.87</ele>
        <time>2016-05-02T12:03:17Z</time>
      </trkpt>
      <trkpt lat="47.90779" lon="7.22204">
        <ele>391.87</ele>
        <time>2016-05-02T12:03:36Z</time>
      </trkpt>
      <trkpt lat="47.90779" lon="7.22204">
        <ele>390.91</ele>
        <time>2016-05-02T12:04:12Z</time>
      </trkpt>
      <trkpt lat="47.90777" lon="7.22203">
        <ele>391.39</ele>
        <time>2016-05-02T12:04:31Z</time>
      </trkpt>
      <trkpt lat="47.90777" lon="7.22203">
        <ele>393.32</ele>
        <time>2016-05-02T12:05:28Z</time>
      </trkpt>
      <trkpt lat="47.90777" lon="7.22203">
        <ele>389.95</ele>
        <time>2016-05-02T12:05:29Z</time>
      </trkpt>
      <trkpt lat="47.90777" lon="7.22203">
        <ele>391.87</ele>
        <time>2016-05-02T12:05:30Z</time>
      </trkpt>
      <trkpt lat="47.90777" lon="7.22203">
        <ele>391.39</ele>
        <time>2016-05-02T12:05:38Z</time>
      </trkpt>
      <trkpt lat="47.90777" lon="7.22203">
        <ele>391.39</ele>
        <time>2016-05-02T12:06:53Z</time>
      </trkpt>
      <trkpt lat="47.90777" lon="7.22203">
        <ele>389.95</ele>
        <time>2016-05-02T12:07:36Z</time>
      </trkpt>
      <trkpt lat="47.90778" lon="7.22204">
        <ele>389.95</ele>
        <time>2016-05-02T12:08:39Z</time>
      </trkpt>
      <trkpt lat="47.90779" lon="7.22205">
        <ele>390.91</ele>
        <time>2016-05-02T12:09:00Z</time>
      </trkpt>
      <trkpt lat="47.90782" lon="7.22204">
        <ele>388.99</ele>
        <time>2016-05-02T12:09:03Z</time>
      </trkpt>
      <trkpt lat="47.90786" lon="7.22206">
        <ele>391.39</ele>
        <time>2016-05-02T12:09:11Z</time>
      </trkpt>
      <trkpt lat="47.90794" lon="7.22207">
        <ele>395.24</ele>
        <time>2016-05-02T12:09:29Z</time>
      </trkpt>
      <trkpt lat="47.9081" lon="7.22217">
        <ele>396.2</ele>
        <time>2016-05-02T12:09:49Z</time>
      </trkpt>
      <trkpt lat="47.90822" lon="7.22208">
        <ele>398.6</ele>
        <time>2016-05-02T12:10:07Z</time>
      </trkpt>
      <trkpt lat="47.9083" lon="7.22197">
        <ele>400.05</ele>
        <time>2016-05-02T12:10:22Z</time>
      </trkpt>
      <trkpt lat="47.90848" lon="7.22179">
        <ele>402.45</ele>
        <time>2016-05-02T12:10:37Z</time>
      </trkpt>
      <trkpt lat="47.90853" lon="7.2217">
        <ele>402.93</ele>
        <time>2016-05-02T12:10:53Z</time>
      </trkpt>
      <trkpt lat="47.90862" lon="7.2215">
        <ele>405.81</ele>
        <time>2016-05-02T12:11:09Z</time>
      </trkpt>
      <trkpt lat="47.90868" lon="7.22147">
        <ele>408.22</ele>
        <time>2016-05-02T12:11:23Z</time>
      </trkpt>
      <trkpt lat="47.90872" lon="7.22153">
        <ele>409.66</ele>
        <time>2016-05-02T12:11:36Z</time>
      </trkpt>
      <trkpt lat="47.90877" lon="7.22162">
        <ele>411.1</ele>
        <time>2016-05-02T12:11:53Z</time>
      </trkpt>
      <trkpt lat="47.90885" lon="7.22162">
        <ele>412.54</ele>
        <time>2016-05-02T12:12:11Z</time>
      </trkpt>
      <trkpt lat="47.90902" lon="7.2216">
        <ele>413.98</ele>
        <time>2016-05-02T12:12:25Z</time>
      </trkpt>
      <trkpt lat="47.90906" lon="7.22161">
        <ele>414.95</ele>
        <time>2016-05-02T12:12:35Z</time>
      </trkpt>
      <trkpt lat="47.90919" lon="7.22162">
        <ele>415.91</ele>
        <time>2016-05-02T12:12:55Z</time>
      </trkpt>
      <trkpt lat="47.90922" lon="7.22163">
        <ele>420.23</ele>
        <time>2016-05-02T12:12:58Z</time>
      </trkpt>
      <trkpt lat="47.90923" lon="7.22163">
        <ele>416.39</ele>
        <time>2016-05-02T12:12:59Z</time>
      </trkpt>
      <trkpt lat="47.90925" lon="7.22164">
        <ele>418.79</ele>
        <time>2016-05-02T12:13:02Z</time>
      </trkpt>
      <trkpt lat="47.90927" lon="7.22166">
        <ele>417.35</ele>
        <time>2016-05-02T12:13:05Z</time>
      </trkpt>
      <trkpt lat="47.90928" lon="7.22166">
        <ele>421.68</ele>
        <time>2016-05-02T12:13:06Z</time>
      </trkpt>
      <trkpt lat="47.90929" lon="7.22167">
        <ele>419.27</ele>
        <time>2016-05-02T12:13:07Z</time>
      </trkpt>
      <trkpt lat="47.90942" lon="7.22168">
        <ele>423.6</ele>
        <time>2016-05-02T12:13:22Z</time>
      </trkpt>
      <trkpt lat="47.90942" lon="7.22168">
        <ele>421.68</ele>
        <time>2016-05-02T12:13:23Z</time>
      </trkpt>
      <trkpt lat="47.90943" lon="7.22169">
        <ele>419.27</ele>
        <time>2016-05-02T12:13:25Z</time>
      </trkpt>
      <trkpt lat="47.90943" lon="7.22169">
        <ele>422.64</ele>
        <time>2016-05-02T12:13:26Z</time>
      </trkpt>
      <trkpt lat="47.90954" lon="7.2217">
        <ele>425.52</ele>
        <time>2016-05-02T12:13:38Z</time>
      </trkpt>
      <trkpt lat="47.90955" lon="7.22169">
        <ele>425.52</ele>
        <time>2016-05-02T12:13:39Z</time>
      </trkpt>
      <trkpt lat="47.90957" lon="7.22169">
        <ele>420.71</ele>
        <time>2016-05-02T12:13:42Z</time>
      </trkpt>
      <trkpt lat="47.90958" lon="7.2217">
        <ele>425.52</ele>
        <time>2016-05-02T12:13:44Z</time>
      </trkpt>
      <trkpt lat="47.90976" lon="7.22166">
        <ele>425.52</ele>
        <time>2016-05-02T12:14:04Z</time>
      </trkpt>
      <trkpt lat="47.90985" lon="7.22165">
        <ele>428.89</ele>
        <time>2016-05-02T12:14:13Z</time>
      </trkpt>
      <trkpt lat="47.90985" lon="7.22166">
        <ele>424.56</ele>
        <time>2016-05-02T12:14:14Z</time>
      </trkpt>
      <trkpt lat="47.90986" lon="7.22166">
        <ele>428.4</ele>
        <time>2016-05-02T12:14:15Z</time>
      </trkpt>
      <trkpt lat="47.91004" lon="7.22171">
        <ele>429.37</ele>
        <time>2016-05-02T12:14:35Z</time>
      </trkpt>
      <trkpt lat="47.91023" lon="7.22177">
        <ele>429.37</ele>
        <time>2016-05-02T12:14:56Z</time>
      </trkpt>
      <trkpt lat="47.91024" lon="7.22179">
        <ele>432.73</ele>
        <time>2016-05-02T12:14:58Z</time>
      </trkpt>
      <trkpt lat="47.9103" lon="7.22182">
        <ele>430.81</ele>
        <time>2016-05-02T12:15:02Z</time>
      </trkpt>
      <trkpt lat="47.91038" lon="7.22183">
        <ele>431.77</ele>
        <time>2016-05-02T12:15:14Z</time>
      </trkpt>
      <trkpt lat="47.91044" lon="7.22177">
        <ele>431.77</ele>
        <time>2016-05-02T12:15:28Z</time>
      </trkpt>
      <trkpt lat="47.91055" lon="7.22165">
        <ele>433.69</ele>
        <time>2016-05-02T12:15:48Z</time>
      </trkpt>
      <trkpt lat="47.91062" lon="7.22154">
        <ele>432.73</ele>
        <time>2016-05-02T12:16:06Z</time>
      </trkpt>
      <trkpt lat="47.91063" lon="7.22147">
        <ele>434.17</ele>
        <time>2016-05-02T12:16:39Z</time>
      </trkpt>
      <trkpt lat="47.91065" lon="7.22126">
        <ele>437.06</ele>
        <time>2016-05-02T12:16:57Z</time>
      </trkpt>
      <trkpt lat="47.91067" lon="7.22113">
        <ele>440.42</ele>
        <time>2016-05-02T12:17:16Z</time>
      </trkpt>
      <trkpt lat="47.91071" lon="7.22093">
        <ele>444.27</ele>
        <time>2016-05-02T12:17:40Z</time>
      </trkpt>
      <trkpt lat="47.91073" lon="7.22086">
        <ele>445.23</ele>
        <time>2016-05-02T12:17:48Z</time>
      </trkpt>
      <trkpt lat="47.91074" lon="7.22075">
        <ele>448.11</ele>
        <time>2016-05-02T12:18:09Z</time>
      </trkpt>
      <trkpt lat="47.91076" lon="7.22064">
        <ele>451</ele>
        <time>2016-05-02T12:18:26Z</time>
      </trkpt>
      <trkpt lat="47.91076" lon="7.22048">
        <ele>454.84</ele>
        <time>2016-05-02T12:18:48Z</time>
      </trkpt>
      <trkpt lat="47.91075" lon="7.22048">
        <ele>454.84</ele>
        <time>2016-05-02T12:18:58Z</time>
      </trkpt>
      <trkpt lat="47.91077" lon="7.22049">
        <ele>458.21</ele>
        <time>2016-05-02T12:19:16Z</time>
      </trkpt>
      <trkpt lat="47.91081" lon="7.22056">
        <ele>458.69</ele>
        <time>2016-05-02T12:19:45Z</time>
      </trkpt>
      <trkpt lat="47.91082" lon="7.22056">
        <ele>455.8</ele>
        <time>2016-05-02T12:20:22Z</time>
      </trkpt>
      <trkpt lat="47.91083" lon="7.22058">
        <ele>459.17</ele>
        <time>2016-05-02T12:20:31Z</time>
      </trkpt>
      <trkpt lat="47.91083" lon="7.22058">
        <ele>455.32</ele>
        <time>2016-05-02T12:20:34Z</time>
      </trkpt>
      <trkpt lat="47.91084" lon="7.22059">
        <ele>460.61</ele>
        <time>2016-05-02T12:20:36Z</time>
      </trkpt>
      <trkpt lat="47.91085" lon="7.22059">
        <ele>457.72</ele>
        <time>2016-05-02T12:20:37Z</time>
      </trkpt>
      <trkpt lat="47.91088" lon="7.22063">
        <ele>460.61</ele>
        <time>2016-05-02T12:20:40Z</time>
      </trkpt>
      <trkpt lat="47.91089" lon="7.22065">
        <ele>457.72</ele>
        <time>2016-05-02T12:20:42Z</time>
      </trkpt>
      <trkpt lat="47.9109" lon="7.22066">
        <ele>459.17</ele>
        <time>2016-05-02T12:20:43Z</time>
      </trkpt>
      <trkpt lat="47.91097" lon="7.22075">
        <ele>462.05</ele>
        <time>2016-05-02T12:21:00Z</time>
      </trkpt>
      <trkpt lat="47.91102" lon="7.2208">
        <ele>462.53</ele>
        <time>2016-05-02T12:21:15Z</time>
      </trkpt>
      <trkpt lat="47.91103" lon="7.22081">
        <ele>466.86</ele>
        <time>2016-05-02T12:21:20Z</time>
      </trkpt>
      <trkpt lat="47.91103" lon="7.22081">
        <ele>463.49</ele>
        <time>2016-05-02T12:21:26Z</time>
      </trkpt>
      <trkpt lat="47.9111" lon="7.22086">
        <ele>466.86</ele>
        <time>2016-05-02T12:21:31Z</time>
      </trkpt>
      <trkpt lat="47.9111" lon="7.22086">
        <ele>467.34</ele>
        <time>2016-05-02T12:21:32Z</time>
      </trkpt>
      <trkpt lat="47.91111" lon="7.22087">
        <ele>463.97</ele>
        <time>2016-05-02T12:21:35Z</time>
      </trkpt>
      <trkpt lat="47.91111" lon="7.22087">
        <ele>466.86</ele>
        <time>2016-05-02T12:21:36Z</time>
      </trkpt>
      <trkpt lat="47.91111" lon="7.22087">
        <ele>465.42</ele>
        <time>2016-05-02T12:21:39Z</time>
      </trkpt>
      <trkpt lat="47.91114" lon="7.2209">
        <ele>465.9</ele>
        <time>2016-05-02T12:21:41Z</time>
      </trkpt>
      <trkpt lat="47.91116" lon="7.22092">
        <ele>467.34</ele>
        <time>2016-05-02T12:21:44Z</time>
      </trkpt>
      <trkpt lat="47.91125" lon="7.22097">
        <ele>467.82</ele>
        <time>2016-05-02T12:21:51Z</time>
      </trkpt>
      <trkpt lat="47.9113" lon="7.22099">
        <ele>469.74</ele>
        <time>2016-05-02T12:21:56Z</time>
      </trkpt>
      <trkpt lat="47.91134" lon="7.22102">
        <ele>472.63</ele>
        <time>2016-05-02T12:22:10Z</time>
      </trkpt>
      <trkpt lat="47.91134" lon="7.22102">
        <ele>469.74</ele>
        <time>2016-05-02T12:22:11Z</time>
      </trkpt>
      <trkpt lat="47.91138" lon="7.22102">
        <ele>473.11</ele>
        <time>2016-05-02T12:22:29Z</time>
      </trkpt>
      <trkpt lat="47.91138" lon="7.22102">
        <ele>469.74</ele>
        <time>2016-05-02T12:22:30Z</time>
      </trkpt>
      <trkpt lat="47.91138" lon="7.22102">
        <ele>473.59</ele>
        <time>2016-05-02T12:22:32Z</time>
      </trkpt>
      <trkpt lat="47.91138" lon="7.22102">
        <ele>470.22</ele>
        <time>2016-05-02T12:22:33Z</time>
      </trkpt>
      <trkpt lat="47.91142" lon="7.22102">
        <ele>474.55</ele>
        <time>2016-05-02T12:22:36Z</time>
      </trkpt>
      <trkpt lat="47.91143" lon="7.22102">
        <ele>471.18</ele>
        <time>2016-05-02T12:22:37Z</time>
      </trkpt>
      <trkpt lat="47.91143" lon="7.22102">
        <ele>474.55</ele>
        <time>2016-05-02T12:22:40Z</time>
      </trkpt>
      <trkpt lat="47.91143" lon="7.22102">
        <ele>471.18</ele>
        <time>2016-05-02T12:22:44Z</time>
      </trkpt>
      <trkpt lat="47.91143" lon="7.22102">
        <ele>475.03</ele>
        <time>2016-05-02T12:22:47Z</time>
      </trkpt>
      <trkpt lat="47.91143" lon="7.22102">
        <ele>471.66</ele>
        <time>2016-05-02T12:22:49Z</time>
      </trkpt>
      <trkpt lat="47.91147" lon="7.22099">
        <ele>475.51</ele>
        <time>2016-05-02T12:22:51Z</time>
      </trkpt>
      <trkpt lat="47.91153" lon="7.22082">
        <ele>477.91</ele>
        <time>2016-05-02T12:23:11Z</time>
      </trkpt>
      <trkpt lat="47.91153" lon="7.2208">
        <ele>473.59</ele>
        <time>2016-05-02T12:23:14Z</time>
      </trkpt>
      <trkpt lat="47.91153" lon="7.22079">
        <ele>476.95</ele>
        <time>2016-05-02T12:23:15Z</time>
      </trkpt>
      <trkpt lat="47.91152" lon="7.22077">
        <ele>480.32</ele>
        <time>2016-05-02T12:23:18Z</time>
      </trkpt>
      <trkpt lat="47.91152" lon="7.2205">
        <ele>480.32</ele>
        <time>2016-05-02T12:23:39Z</time>
      </trkpt>
      <trkpt lat="47.91151" lon="7.22049">
        <ele>483.2</ele>
        <time>2016-05-02T12:23:45Z</time>
      </trkpt>
      <trkpt lat="47.9115" lon="7.22031">
        <ele>486.56</ele>
        <time>2016-05-02T12:24:00Z</time>
      </trkpt>
      <trkpt lat="47.9115" lon="7.2203">
        <ele>483.68</ele>
        <time>2016-05-02T12:24:01Z</time>
      </trkpt>
      <trkpt lat="47.9115" lon="7.22025">
        <ele>487.05</ele>
        <time>2016-05-02T12:24:07Z</time>
      </trkpt>
      <trkpt lat="47.9115" lon="7.22025">
        <ele>485.6</ele>
        <time>2016-05-02T12:24:08Z</time>
      </trkpt>
      <trkpt lat="47.91147" lon="7.22016">
        <ele>484.64</ele>
        <time>2016-05-02T12:24:16Z</time>
      </trkpt>
      <trkpt lat="47.91147" lon="7.22004">
        <ele>488.49</ele>
        <time>2016-05-02T12:24:26Z</time>
      </trkpt>
      <trkpt lat="47.91142" lon="7.22004">
        <ele>485.6</ele>
        <time>2016-05-02T12:24:33Z</time>
      </trkpt>
      <trkpt lat="47.9114" lon="7.22005">
        <ele>489.45</ele>
        <time>2016-05-02T12:24:36Z</time>
      </trkpt>
      <trkpt lat="47.9114" lon="7.22005">
        <ele>488.01</ele>
        <time>2016-05-02T12:24:40Z</time>
      </trkpt>
      <trkpt lat="47.9114" lon="7.22005">
        <ele>488.97</ele>
        <time>2016-05-02T12:24:42Z</time>
      </trkpt>
      <trkpt lat="47.91141" lon="7.22006">
        <ele>489.93</ele>
        <time>2016-05-02T12:25:19Z</time>
      </trkpt>
      <trkpt lat="47.91144" lon="7.22011">
        <ele>489.45</ele>
        <time>2016-05-02T12:25:41Z</time>
      </trkpt>
      <trkpt lat="47.91146" lon="7.22018">
        <ele>492.81</ele>
        <time>2016-05-02T12:25:46Z</time>
      </trkpt>
      <trkpt lat="47.91146" lon="7.22019">
        <ele>492.81</ele>
        <time>2016-05-02T12:25:47Z</time>
      </trkpt>
      <trkpt lat="47.91147" lon="7.22021">
        <ele>491.37</ele>
        <time>2016-05-02T12:25:49Z</time>
      </trkpt>
      <trkpt lat="47.91156" lon="7.22027">
        <ele>492.81</ele>
        <time>2016-05-02T12:26:08Z</time>
      </trkpt>
      <trkpt lat="47.91158" lon="7.2203">
        <ele>491.37</ele>
        <time>2016-05-02T12:26:13Z</time>
      </trkpt>
      <trkpt lat="47.91158" lon="7.2203">
        <ele>493.29</ele>
        <time>2016-05-02T12:26:15Z</time>
      </trkpt>
      <trkpt lat="47.91166" lon="7.22038">
        <ele>495.22</ele>
        <time>2016-05-02T12:26:30Z</time>
      </trkpt>
      <trkpt lat="47.91168" lon="7.22038">
        <ele>496.66</ele>
        <time>2016-05-02T12:26:33Z</time>
      </trkpt>
      <trkpt lat="47.91176" lon="7.2204">
        <ele>493.29</ele>
        <time>2016-05-02T12:26:46Z</time>
      </trkpt>
      <trkpt lat="47.91176" lon="7.2204">
        <ele>493.77</ele>
        <time>2016-05-02T12:26:47Z</time>
      </trkpt>
      <trkpt lat="47.91179" lon="7.22041">
        <ele>495.7</ele>
        <time>2016-05-02T12:26:49Z</time>
      </trkpt>
      <trkpt lat="47.91181" lon="7.22042">
        <ele>499.06</ele>
        <time>2016-05-02T12:26:54Z</time>
      </trkpt>
      <trkpt lat="47.91188" lon="7.22045">
        <ele>501.95</ele>
        <time>2016-05-02T12:27:10Z</time>
      </trkpt>
      <trkpt lat="47.91191" lon="7.22044">
        <ele>498.58</ele>
        <time>2016-05-02T12:27:13Z</time>
      </trkpt>
      <trkpt lat="47.91192" lon="7.22044">
        <ele>498.58</ele>
        <time>2016-05-02T12:27:14Z</time>
      </trkpt>
      <trkpt lat="47.91198" lon="7.22042">
        <ele>501.95</ele>
        <time>2016-05-02T12:27:20Z</time>
      </trkpt>
      <trkpt lat="47.91204" lon="7.22042">
        <ele>505.79</ele>
        <time>2016-05-02T12:27:38Z</time>
      </trkpt>
      <trkpt lat="47.91204" lon="7.22042">
        <ele>504.83</ele>
        <time>2016-05-02T12:27:39Z</time>
      </trkpt>
      <trkpt lat="47.91204" lon="7.22042">
        <ele>503.87</ele>
        <time>2016-05-02T12:27:42Z</time>
      </trkpt>
      <trkpt lat="47.91208" lon="7.22044">
        <ele>503.87</ele>
        <time>2016-05-02T12:27:59Z</time>
      </trkpt>
      <trkpt lat="47.91208" lon="7.22044">
        <ele>505.31</ele>
        <time>2016-05-02T12:28:02Z</time>
      </trkpt>
      <trkpt lat="47.91222" lon="7.22043">
        <ele>508.19</ele>
        <time>2016-05-02T12:28:15Z</time>
      </trkpt>
      <trkpt lat="47.91223" lon="7.22044">
        <ele>510.12</ele>
        <time>2016-05-02T12:28:18Z</time>
      </trkpt>
      <trkpt lat="47.91228" lon="7.22044">
        <ele>506.75</ele>
        <time>2016-05-02T12:28:28Z</time>
      </trkpt>
      <trkpt lat="47.91228" lon="7.22044">
        <ele>511.56</ele>
        <time>2016-05-02T12:28:29Z</time>
      </trkpt>
      <trkpt lat="47.9124" lon="7.22041">
        <ele>512.52</ele>
        <time>2016-05-02T12:28:42Z</time>
      </trkpt>
      <trkpt lat="47.91259" lon="7.22038">
        <ele>516.85</ele>
        <time>2016-05-02T12:28:58Z</time>
      </trkpt>
      <trkpt lat="47.9126" lon="7.22038">
        <ele>512.04</ele>
        <time>2016-05-02T12:29:01Z</time>
      </trkpt>
      <trkpt lat="47.9126" lon="7.22038">
        <ele>518.29</ele>
        <time>2016-05-02T12:29:02Z</time>
      </trkpt>
      <trkpt lat="47.91265" lon="7.22033">
        <ele>513</ele>
        <time>2016-05-02T12:29:12Z</time>
      </trkpt>
      <trkpt lat="47.91266" lon="7.22032">
        <ele>517.81</ele>
        <time>2016-05-02T12:29:13Z</time>
      </trkpt>
      <trkpt lat="47.91267" lon="7.2203">
        <ele>514.44</ele>
        <time>2016-05-02T12:29:16Z</time>
      </trkpt>
      <trkpt lat="47.91267" lon="7.2203">
        <ele>518.77</ele>
        <time>2016-05-02T12:29:17Z</time>
      </trkpt>
      <trkpt lat="47.91267" lon="7.22027">
        <ele>517.81</ele>
        <time>2016-05-02T12:29:46Z</time>
      </trkpt>
      <trkpt lat="47.91266" lon="7.22018">
        <ele>521.17</ele>
        <time>2016-05-02T12:30:39Z</time>
      </trkpt>
      <trkpt lat="47.91265" lon="7.22018">
        <ele>521.17</ele>
        <time>2016-05-02T12:30:43Z</time>
      </trkpt>
      <trkpt lat="47.91265" lon="7.22018">
        <ele>520.69</ele>
        <time>2016-05-02T12:30:49Z</time>
      </trkpt>
      <trkpt lat="47.91265" lon="7.22018">
        <ele>522.13</ele>
        <time>2016-05-02T12:30:51Z</time>
      </trkpt>
      <trkpt lat="47.91265" lon="7.22018">
        <ele>526.46</ele>
        <time>2016-05-02T12:30:55Z</time>
      </trkpt>
      <trkpt lat="47.91265" lon="7.22018">
        <ele>522.61</ele>
        <time>2016-05-02T12:30:56Z</time>
      </trkpt>
      <trkpt lat="47.91263" lon="7.22017">
        <ele>526.46</ele>
        <time>2016-05-02T12:31:00Z</time>
      </trkpt>
      <trkpt lat="47.91257" lon="7.22011">
        <ele>523.09</ele>
        <time>2016-05-02T12:31:06Z</time>
      </trkpt>
      <trkpt lat="47.91256" lon="7.22007">
        <ele>527.42</ele>
        <time>2016-05-02T12:31:08Z</time>
      </trkpt>
      <trkpt lat="47.91255" lon="7.22006">
        <ele>524.54</ele>
        <time>2016-05-02T12:31:09Z</time>
      </trkpt>
      <trkpt lat="47.91253" lon="7.22002">
        <ele>528.38</ele>
        <time>2016-05-02T12:31:21Z</time>
      </trkpt>
      <trkpt lat="47.91253" lon="7.22002">
        <ele>528.38</ele>
        <time>2016-05-02T12:31:39Z</time>
      </trkpt>
      <trkpt lat="47.91252" lon="7.21997">
        <ele>530.3</ele>
        <time>2016-05-02T12:31:57Z</time>
      </trkpt>
      <trkpt lat="47.91252" lon="7.21997">
        <ele>531.27</ele>
        <time>2016-05-02T12:32:19Z</time>
      </trkpt>
      <trkpt lat="47.91252" lon="7.21997">
        <ele>530.3</ele>
        <time>2016-05-02T12:32:27Z</time>
      </trkpt>
      <trkpt lat="47.91255" lon="7.21986">
        <ele>525.98</ele>
        <time>2016-05-02T12:32:42Z</time>
      </trkpt>
      <trkpt lat="47.91255" lon="7.21986">
        <ele>532.23</ele>
        <time>2016-05-02T12:32:43Z</time>
      </trkpt>
      <trkpt lat="47.91255" lon="7.21985">
        <ele>528.38</ele>
        <time>2016-05-02T12:33:32Z</time>
      </trkpt>
      <trkpt lat="47.91256" lon="7.21981">
        <ele>533.19</ele>
        <time>2016-05-02T12:33:37Z</time>
      </trkpt>
      <trkpt lat="47.91256" lon="7.21981">
        <ele>529.34</ele>
        <time>2016-05-02T12:33:38Z</time>
      </trkpt>
      <trkpt lat="47.91255" lon="7.21965">
        <ele>530.79</ele>
        <time>2016-05-02T12:34:00Z</time>
      </trkpt>
      <trkpt lat="47.91252" lon="7.2192">
        <ele>530.3</ele>
        <time>2016-05-02T12:34:19Z</time>
      </trkpt>
      <trkpt lat="47.91264" lon="7.21885">
        <ele>530.79</ele>
        <time>2016-05-02T12:34:38Z</time>
      </trkpt>
      <trkpt lat="47.91273" lon="7.21868">
        <ele>530.79</ele>
        <time>2016-05-02T12:34:55Z</time>
      </trkpt>
      <trkpt lat="47.91285" lon="7.21865">
        <ele>528.86</ele>
        <time>2016-05-02T12:35:13Z</time>
      </trkpt>
      <trkpt lat="47.91285" lon="7.21865">
        <ele>525.5</ele>
        <time>2016-05-02T12:35:24Z</time>
      </trkpt>
      <trkpt lat="47.91285" lon="7.21865">
        <ele>529.34</ele>
        <time>2016-05-02T12:35:25Z</time>
      </trkpt>
      <trkpt lat="47.91285" lon="7.21865">
        <ele>528.86</ele>
        <time>2016-05-02T12:36:04Z</time>
      </trkpt>
      <trkpt lat="47.91289" lon="7.21857">
        <ele>531.27</ele>
        <time>2016-05-02T12:36:32Z</time>
      </trkpt>
      <trkpt lat="47.91291" lon="7.21856">
        <ele>526.94</ele>
        <time>2016-05-02T12:36:33Z</time>
      </trkpt>
      <trkpt lat="47.91291" lon="7.21855">
        <ele>529.34</ele>
        <time>2016-05-02T12:36:34Z</time>
      </trkpt>
      <trkpt lat="47.91291" lon="7.21854">
        <ele>533.19</ele>
        <time>2016-05-02T12:36:35Z</time>
      </trkpt>
      <trkpt lat="47.91291" lon="7.21853">
        <ele>529.82</ele>
        <time>2016-05-02T12:36:36Z</time>
      </trkpt>
      <trkpt lat="47.91293" lon="7.2185">
        <ele>531.75</ele>
        <time>2016-05-02T12:36:43Z</time>
      </trkpt>
      <trkpt lat="47.91295" lon="7.21851">
        <ele>530.3</ele>
        <time>2016-05-02T12:36:47Z</time>
      </trkpt>
      <trkpt lat="47.91311" lon="7.21837">
        <ele>530.79</ele>
        <time>2016-05-02T12:37:08Z</time>
      </trkpt>
      <trkpt lat="47.91326" lon="7.21821">
        <ele>531.75</ele>
        <time>2016-05-02T12:37:24Z</time>
      </trkpt>
      <trkpt lat="47.91328" lon="7.21818">
        <ele>532.71</ele>
        <time>2016-05-02T12:37:29Z</time>
      </trkpt>
      <trkpt lat="47.91333" lon="7.21811">
        <ele>533.19</ele>
        <time>2016-05-02T12:37:46Z</time>
      </trkpt>
      <trkpt lat="47.91333" lon="7.21811">
        <ele>532.23</ele>
        <time>2016-05-02T12:37:47Z</time>
      </trkpt>
      <trkpt lat="47.91345" lon="7.21809">
        <ele>533.67</ele>
        <time>2016-05-02T12:38:07Z</time>
      </trkpt>
      <trkpt lat="47.91345" lon="7.21808">
        <ele>533.67</ele>
        <time>2016-05-02T12:38:16Z</time>
      </trkpt>
      <trkpt lat="47.91354" lon="7.21801">
        <ele>530.3</ele>
        <time>2016-05-02T12:38:29Z</time>
      </trkpt>
      <trkpt lat="47.91355" lon="7.21799">
        <ele>534.15</ele>
        <time>2016-05-02T12:38:33Z</time>
      </trkpt>
      <trkpt lat="47.91359" lon="7.21793">
        <ele>530.79</ele>
        <time>2016-05-02T12:38:38Z</time>
      </trkpt>
      <trkpt lat="47.91366" lon="7.2179">
        <ele>534.15</ele>
        <time>2016-05-02T12:38:43Z</time>
      </trkpt>
      <trkpt lat="47.91378" lon="7.21783">
        <ele>532.71</ele>
        <time>2016-05-02T12:38:56Z</time>
      </trkpt>
      <trkpt lat="47.91382" lon="7.21781">
        <ele>535.59</ele>
        <time>2016-05-02T12:38:58Z</time>
      </trkpt>
      <trkpt lat="47.91391" lon="7.21775">
        <ele>531.75</ele>
        <time>2016-05-02T12:39:02Z</time>
      </trkpt>
      <trkpt lat="47.91391" lon="7.21775">
        <ele>535.11</ele>
        <time>2016-05-02T12:39:03Z</time>
      </trkpt>
      <trkpt lat="47.91393" lon="7.21774">
        <ele>531.27</ele>
        <time>2016-05-02T12:39:06Z</time>
      </trkpt>
      <trkpt lat="47.91394" lon="7.21772">
        <ele>534.63</ele>
        <time>2016-05-02T12:39:08Z</time>
      </trkpt>
      <trkpt lat="47.91402" lon="7.21761">
        <ele>533.67</ele>
        <time>2016-05-02T12:39:15Z</time>
      </trkpt>
      <trkpt lat="47.91419" lon="7.21753">
        <ele>534.63</ele>
        <time>2016-05-02T12:39:33Z</time>
      </trkpt>
      <trkpt lat="47.91426" lon="7.21747">
        <ele>534.63</ele>
        <time>2016-05-02T12:39:44Z</time>
      </trkpt>
      <trkpt lat="47.91427" lon="7.21745">
        <ele>531.27</ele>
        <time>2016-05-02T12:39:47Z</time>
      </trkpt>
      <trkpt lat="47.91428" lon="7.21745">
        <ele>534.63</ele>
        <time>2016-05-02T12:39:50Z</time>
      </trkpt>
      <trkpt lat="47.91429" lon="7.21743">
        <ele>531.27</ele>
        <time>2016-05-02T12:39:52Z</time>
      </trkpt>
      <trkpt lat="47.9143" lon="7.21743">
        <ele>535.59</ele>
        <time>2016-05-02T12:39:53Z</time>
      </trkpt>
      <trkpt lat="47.91429" lon="7.21742">
        <ele>532.71</ele>
        <time>2016-05-02T12:39:57Z</time>
      </trkpt>
      <trkpt lat="47.91429" lon="7.21742">
        <ele>536.07</ele>
        <time>2016-05-02T12:39:59Z</time>
      </trkpt>
      <trkpt lat="47.91429" lon="7.21742">
        <ele>532.23</ele>
        <time>2016-05-02T12:40:00Z</time>
      </trkpt>
      <trkpt lat="47.91429" lon="7.21742">
        <ele>535.59</ele>
        <time>2016-05-02T12:40:05Z</time>
      </trkpt>
      <trkpt lat="47.91429" lon="7.21742">
        <ele>532.71</ele>
        <time>2016-05-02T12:40:09Z</time>
      </trkpt>
      <trkpt lat="47.9143" lon="7.21741">
        <ele>536.07</ele>
        <time>2016-05-02T12:40:11Z</time>
      </trkpt>
      <trkpt lat="47.91431" lon="7.2174">
        <ele>533.19</ele>
        <time>2016-05-02T12:40:13Z</time>
      </trkpt>
      <trkpt lat="47.91432" lon="7.21739">
        <ele>533.19</ele>
        <time>2016-05-02T12:40:14Z</time>
      </trkpt>
      <trkpt lat="47.91432" lon="7.21739">
        <ele>531.27</ele>
        <time>2016-05-02T12:40:19Z</time>
      </trkpt>
      <trkpt lat="47.91433" lon="7.21736">
        <ele>535.11</ele>
        <time>2016-05-02T12:40:21Z</time>
      </trkpt>
      <trkpt lat="47.91434" lon="7.21734">
        <ele>534.63</ele>
        <time>2016-05-02T12:40:22Z</time>
      </trkpt>
      <trkpt lat="47.91435" lon="7.21729">
        <ele>530.3</ele>
        <time>2016-05-02T12:40:24Z</time>
      </trkpt>
      <trkpt lat="47.91436" lon="7.21726">
        <ele>533.67</ele>
        <time>2016-05-02T12:40:25Z</time>
      </trkpt>
      <trkpt lat="47.9144" lon="7.2172">
        <ele>534.63</ele>
        <time>2016-05-02T12:40:27Z</time>
      </trkpt>
      <trkpt lat="47.91442" lon="7.21715">
        <ele>529.82</ele>
        <time>2016-05-02T12:40:29Z</time>
      </trkpt>
      <trkpt lat="47.91442" lon="7.21715">
        <ele>533.67</ele>
        <time>2016-05-02T12:40:30Z</time>
      </trkpt>
      <trkpt lat="47.91443" lon="7.21714">
        <ele>536.07</ele>
        <time>2016-05-02T12:40:37Z</time>
      </trkpt>
      <trkpt lat="47.91446" lon="7.21713">
        <ele>531.75</ele>
        <time>2016-05-02T12:40:38Z</time>
      </trkpt>
      <trkpt lat="47.91446" lon="7.21713">
        <ele>534.63</ele>
        <time>2016-05-02T12:40:39Z</time>
      </trkpt>
      <trkpt lat="47.91446" lon="7.21713">
        <ele>530.79</ele>
        <time>2016-05-02T12:40:40Z</time>
      </trkpt>
      <trkpt lat="47.91446" lon="7.21713">
        <ele>535.11</ele>
        <time>2016-05-02T12:40:41Z</time>
      </trkpt>
      <trkpt lat="47.9145" lon="7.2171">
        <ele>531.27</ele>
        <time>2016-05-02T12:40:42Z</time>
      </trkpt>
      <trkpt lat="47.9145" lon="7.2171">
        <ele>536.55</ele>
        <time>2016-05-02T12:40:43Z</time>
      </trkpt>
      <trkpt lat="47.91456" lon="7.21703">
        <ele>531.75</ele>
        <time>2016-05-02T12:40:46Z</time>
      </trkpt>
      <trkpt lat="47.91462" lon="7.21699">
        <ele>536.07</ele>
        <time>2016-05-02T12:40:48Z</time>
      </trkpt>
      <trkpt lat="47.91477" lon="7.2169">
        <ele>532.71</ele>
        <time>2016-05-02T12:40:58Z</time>
      </trkpt>
      <trkpt lat="47.91484" lon="7.21684">
        <ele>537.03</ele>
        <time>2016-05-02T12:41:03Z</time>
      </trkpt>
      <trkpt lat="47.91488" lon="7.21682">
        <ele>532.71</ele>
        <time>2016-05-02T12:41:10Z</time>
      </trkpt>
      <trkpt lat="47.91492" lon="7.21679">
        <ele>536.07</ele>
        <time>2016-05-02T12:41:14Z</time>
      </trkpt>
      <trkpt lat="47.91501" lon="7.21673">
        <ele>535.11</ele>
        <time>2016-05-02T12:41:23Z</time>
      </trkpt>
      <trkpt lat="47.91503" lon="7.21671">
        <ele>536.07</ele>
        <time>2016-05-02T12:41:25Z</time>
      </trkpt>
      <trkpt lat="47.91518" lon="7.21648">
        <ele>536.07</ele>
        <time>2016-05-02T12:41:42Z</time>
      </trkpt>
      <trkpt lat="47.91535" lon="7.21634">
        <ele>536.07</ele>
        <time>2016-05-02T12:41:58Z</time>
      </trkpt>
      <trkpt lat="47.91536" lon="7.21633">
        <ele>536.55</ele>
        <time>2016-05-02T12:41:59Z</time>
      </trkpt>
      <trkpt lat="47.9155" lon="7.21621">
        <ele>536.55</ele>
        <time>2016-05-02T12:42:15Z</time>
      </trkpt>
      <trkpt lat="47.91563" lon="7.21611">
        <ele>536.07</ele>
        <time>2016-05-02T12:42:31Z</time>
      </trkpt>
      <trkpt lat="47.91576" lon="7.21611">
        <ele>535.59</ele>
        <time>2016-05-02T12:42:44Z</time>
      </trkpt>
      <trkpt lat="47.9159" lon="7.21621">
        <ele>536.55</ele>
        <time>2016-05-02T12:42:58Z</time>
      </trkpt>
      <trkpt lat="47.91602" lon="7.21632">
        <ele>537.03</ele>
        <time>2016-05-02T12:43:12Z</time>
      </trkpt>
      <trkpt lat="47.9162" lon="7.21645">
        <ele>537.99</ele>
        <time>2016-05-02T12:43:30Z</time>
      </trkpt>
      <trkpt lat="47.91636" lon="7.21654">
        <ele>537.99</ele>
        <time>2016-05-02T12:43:46Z</time>
      </trkpt>
      <trkpt lat="47.91652" lon="7.2166">
        <ele>537.51</ele>
        <time>2016-05-02T12:44:02Z</time>
      </trkpt>
      <trkpt lat="47.91666" lon="7.21674">
        <ele>536.55</ele>
        <time>2016-05-02T12:44:20Z</time>
      </trkpt>
      <trkpt lat="47.9167" lon="7.21685">
        <ele>537.99</ele>
        <time>2016-05-02T12:44:32Z</time>
      </trkpt>
      <trkpt lat="47.9168" lon="7.21692">
        <ele>538.96</ele>
        <time>2016-05-02T12:44:42Z</time>
      </trkpt>
      <trkpt lat="47.91686" lon="7.21692">
        <ele>538.48</ele>
        <time>2016-05-02T12:45:01Z</time>
      </trkpt>
      <trkpt lat="47.91699" lon="7.21699">
        <ele>533.67</ele>
        <time>2016-05-02T12:45:17Z</time>
      </trkpt>
      <trkpt lat="47.91701" lon="7.217">
        <ele>537.51</ele>
        <time>2016-05-02T12:45:18Z</time>
      </trkpt>
      <trkpt lat="47.91711" lon="7.21703">
        <ele>537.03</ele>
        <time>2016-05-02T12:45:23Z</time>
      </trkpt>
      <trkpt lat="47.91713" lon="7.21704">
        <ele>535.59</ele>
        <time>2016-05-02T12:45:32Z</time>
      </trkpt>
      <trkpt lat="47.91736" lon="7.21708">
        <ele>538.96</ele>
        <time>2016-05-02T12:45:47Z</time>
      </trkpt>
      <trkpt lat="47.91762" lon="7.2172">
        <ele>538.48</ele>
        <time>2016-05-02T12:46:13Z</time>
      </trkpt>
      <trkpt lat="47.91774" lon="7.2172">
        <ele>539.92</ele>
        <time>2016-05-02T12:46:20Z</time>
      </trkpt>
      <trkpt lat="47.91777" lon="7.21721">
        <ele>536.07</ele>
        <time>2016-05-02T12:46:23Z</time>
      </trkpt>
      <trkpt lat="47.9179" lon="7.21721">
        <ele>539.44</ele>
        <time>2016-05-02T12:46:30Z</time>
      </trkpt>
      <trkpt lat="47.91813" lon="7.21724">
        <ele>536.07</ele>
        <time>2016-05-02T12:46:45Z</time>
      </trkpt>
      <trkpt lat="47.91813" lon="7.21724">
        <ele>539.44</ele>
        <time>2016-05-02T12:46:46Z</time>
      </trkpt>
      <trkpt lat="47.91814" lon="7.21723">
        <ele>537.03</ele>
        <time>2016-05-02T12:46:50Z</time>
      </trkpt>
      <trkpt lat="47.91817" lon="7.21724">
        <ele>539.44</ele>
        <time>2016-05-02T12:46:52Z</time>
      </trkpt>
      <trkpt lat="47.91828" lon="7.21722">
        <ele>539.92</ele>
        <time>2016-05-02T12:47:15Z</time>
      </trkpt>
      <trkpt lat="47.9183" lon="7.21722">
        <ele>536.55</ele>
        <time>2016-05-02T12:47:18Z</time>
      </trkpt>
      <trkpt lat="47.9183" lon="7.21722">
        <ele>539.92</ele>
        <time>2016-05-02T12:47:20Z</time>
      </trkpt>
      <trkpt lat="47.91834" lon="7.21723">
        <ele>536.07</ele>
        <time>2016-05-02T12:47:22Z</time>
      </trkpt>
      <trkpt lat="47.91836" lon="7.21723">
        <ele>538.48</ele>
        <time>2016-05-02T12:47:23Z</time>
      </trkpt>
      <trkpt lat="47.91839" lon="7.21723">
        <ele>539.44</ele>
        <time>2016-05-02T12:47:25Z</time>
      </trkpt>
      <trkpt lat="47.91851" lon="7.21721">
        <ele>540.4</ele>
        <time>2016-05-02T12:47:29Z</time>
      </trkpt>
      <trkpt lat="47.91875" lon="7.21722">
        <ele>537.03</ele>
        <time>2016-05-02T12:47:45Z</time>
      </trkpt>
      <trkpt lat="47.91876" lon="7.21723">
        <ele>539.92</ele>
        <time>2016-05-02T12:47:48Z</time>
      </trkpt>
      <trkpt lat="47.91886" lon="7.21728">
        <ele>536.07</ele>
        <time>2016-05-02T12:47:57Z</time>
      </trkpt>
      <trkpt lat="47.91888" lon="7.21728">
        <ele>537.03</ele>
        <time>2016-05-02T12:47:58Z</time>
      </trkpt>
      <trkpt lat="47.9189" lon="7.21729">
        <ele>540.4</ele>
        <time>2016-05-02T12:47:59Z</time>
      </trkpt>
      <trkpt lat="47.91893" lon="7.21729">
        <ele>538.48</ele>
        <time>2016-05-02T12:48:02Z</time>
      </trkpt>
      <trkpt lat="47.91905" lon="7.21729">
        <ele>542.32</ele>
        <time>2016-05-02T12:48:15Z</time>
      </trkpt>
      <trkpt lat="47.91906" lon="7.21729">
        <ele>538.96</ele>
        <time>2016-05-02T12:48:16Z</time>
      </trkpt>
      <trkpt lat="47.91926" lon="7.21734">
        <ele>541.36</ele>
        <time>2016-05-02T12:48:29Z</time>
      </trkpt>
      <trkpt lat="47.9195" lon="7.21745">
        <ele>540.88</ele>
        <time>2016-05-02T12:48:52Z</time>
      </trkpt>
      <trkpt lat="47.91951" lon="7.21746">
        <ele>539.44</ele>
        <time>2016-05-02T12:49:00Z</time>
      </trkpt>
      <trkpt lat="47.91953" lon="7.21749">
        <ele>541.84</ele>
        <time>2016-05-02T12:49:02Z</time>
      </trkpt>
      <trkpt lat="47.91954" lon="7.21751">
        <ele>538.96</ele>
        <time>2016-05-02T12:49:04Z</time>
      </trkpt>
      <trkpt lat="47.91954" lon="7.21751">
        <ele>538.96</ele>
        <time>2016-05-02T12:49:05Z</time>
      </trkpt>
      <trkpt lat="47.91954" lon="7.21751">
        <ele>542.8</ele>
        <time>2016-05-02T12:49:06Z</time>
      </trkpt>
      <trkpt lat="47.91957" lon="7.21754">
        <ele>542.8</ele>
        <time>2016-05-02T12:49:07Z</time>
      </trkpt>
      <trkpt lat="47.9196" lon="7.21756">
        <ele>539.44</ele>
        <time>2016-05-02T12:49:09Z</time>
      </trkpt>
      <trkpt lat="47.91962" lon="7.21756">
        <ele>542.8</ele>
        <time>2016-05-02T12:49:13Z</time>
      </trkpt>
      <trkpt lat="47.91962" lon="7.21756">
        <ele>542.8</ele>
        <time>2016-05-02T12:49:14Z</time>
      </trkpt>
      <trkpt lat="47.91989" lon="7.21766">
        <ele>541.36</ele>
        <time>2016-05-02T12:49:30Z</time>
      </trkpt>
      <trkpt lat="47.92001" lon="7.21767">
        <ele>541.84</ele>
        <time>2016-05-02T12:49:44Z</time>
      </trkpt>
      <trkpt lat="47.92019" lon="7.2176">
        <ele>540.88</ele>
        <time>2016-05-02T12:49:58Z</time>
      </trkpt>
      <trkpt lat="47.9203" lon="7.21762">
        <ele>540.88</ele>
        <time>2016-05-02T12:50:11Z</time>
      </trkpt>
      <trkpt lat="47.92043" lon="7.21756">
        <ele>540.4</ele>
        <time>2016-05-02T12:50:27Z</time>
      </trkpt>
      <trkpt lat="47.92049" lon="7.21755">
        <ele>540.88</ele>
        <time>2016-05-02T12:50:42Z</time>
      </trkpt>
      <trkpt lat="47.92056" lon="7.21753">
        <ele>540.4</ele>
        <time>2016-05-02T12:51:31Z</time>
      </trkpt>
      <trkpt lat="47.92074" lon="7.21748">
        <ele>540.4</ele>
        <time>2016-05-02T12:51:43Z</time>
      </trkpt>
      <trkpt lat="47.92087" lon="7.21743">
        <ele>540.4</ele>
        <time>2016-05-02T12:51:55Z</time>
      </trkpt>
      <trkpt lat="47.921" lon="7.21732">
        <ele>539.92</ele>
        <time>2016-05-02T12:52:11Z</time>
      </trkpt>
      <trkpt lat="47.92104" lon="7.2173">
        <ele>539.92</ele>
        <time>2016-05-02T12:52:14Z</time>
      </trkpt>
      <trkpt lat="47.92118" lon="7.21718">
        <ele>540.4</ele>
        <time>2016-05-02T12:52:26Z</time>
      </trkpt>
      <trkpt lat="47.92122" lon="7.2171">
        <ele>538.48</ele>
        <time>2016-05-02T12:52:33Z</time>
      </trkpt>
      <trkpt lat="47.92124" lon="7.21699">
        <ele>539.44</ele>
        <time>2016-05-02T12:52:53Z</time>
      </trkpt>
      <trkpt lat="47.92122" lon="7.21698">
        <ele>538.48</ele>
        <time>2016-05-02T12:53:16Z</time>
      </trkpt>
      <trkpt lat="47.92122" lon="7.21698">
        <ele>539.92</ele>
        <time>2016-05-02T12:53:41Z</time>
      </trkpt>
      <trkpt lat="47.92129" lon="7.21686">
        <ele>538.96</ele>
        <time>2016-05-02T12:53:53Z</time>
      </trkpt>
      <trkpt lat="47.92136" lon="7.2167">
        <ele>539.92</ele>
        <time>2016-05-02T12:54:05Z</time>
      </trkpt>
      <trkpt lat="47.92141" lon="7.2164">
        <ele>540.88</ele>
        <time>2016-05-02T12:54:22Z</time>
      </trkpt>
      <trkpt lat="47.92142" lon="7.21631">
        <ele>540.4</ele>
        <time>2016-05-02T12:54:27Z</time>
      </trkpt>
      <trkpt lat="47.92142" lon="7.21607">
        <ele>540.88</ele>
        <time>2016-05-02T12:54:41Z</time>
      </trkpt>
      <trkpt lat="47.92143" lon="7.21592">
        <ele>540.88</ele>
        <time>2016-05-02T12:54:49Z</time>
      </trkpt>
      <trkpt lat="47.92146" lon="7.21565">
        <ele>540.4</ele>
        <time>2016-05-02T12:55:04Z</time>
      </trkpt>
      <trkpt lat="47.92149" lon="7.2154">
        <ele>541.84</ele>
        <time>2016-05-02T12:55:18Z</time>
      </trkpt>
      <trkpt lat="47.92151" lon="7.2153">
        <ele>538.48</ele>
        <time>2016-05-02T12:55:29Z</time>
      </trkpt>
      <trkpt lat="47.92152" lon="7.21527">
        <ele>542.32</ele>
        <time>2016-05-02T12:55:31Z</time>
      </trkpt>
      <trkpt lat="47.92153" lon="7.21526">
        <ele>541.84</ele>
        <time>2016-05-02T12:55:32Z</time>
      </trkpt>
      <trkpt lat="47.92154" lon="7.21522">
        <ele>540.88</ele>
        <time>2016-05-02T12:55:34Z</time>
      </trkpt>
      <trkpt lat="47.92156" lon="7.21514">
        <ele>542.32</ele>
        <time>2016-05-02T12:55:37Z</time>
      </trkpt>
      <trkpt lat="47.92157" lon="7.21513">
        <ele>537.99</ele>
        <time>2016-05-02T12:55:38Z</time>
      </trkpt>
      <trkpt lat="47.92157" lon="7.21511">
        <ele>542.32</ele>
        <time>2016-05-02T12:55:39Z</time>
      </trkpt>
      <trkpt lat="47.92157" lon="7.21505">
        <ele>538.48</ele>
        <time>2016-05-02T12:55:43Z</time>
      </trkpt>
      <trkpt lat="47.9216" lon="7.215">
        <ele>542.8</ele>
        <time>2016-05-02T12:55:45Z</time>
      </trkpt>
      <trkpt lat="47.92161" lon="7.21498">
        <ele>542.32</ele>
        <time>2016-05-02T12:55:46Z</time>
      </trkpt>
      <trkpt lat="47.92163" lon="7.21494">
        <ele>540.4</ele>
        <time>2016-05-02T12:55:50Z</time>
      </trkpt>
      <trkpt lat="47.92166" lon="7.2149">
        <ele>542.32</ele>
        <time>2016-05-02T12:55:52Z</time>
      </trkpt>
      <trkpt lat="47.92166" lon="7.21465">
        <ele>541.36</ele>
        <time>2016-05-02T12:56:08Z</time>
      </trkpt>
      <trkpt lat="47.92168" lon="7.21443">
        <ele>543.76</ele>
        <time>2016-05-02T12:56:19Z</time>
      </trkpt>
      <trkpt lat="47.92168" lon="7.21439">
        <ele>541.84</ele>
        <time>2016-05-02T12:56:22Z</time>
      </trkpt>
      <trkpt lat="47.92167" lon="7.2143">
        <ele>538.96</ele>
        <time>2016-05-02T12:56:29Z</time>
      </trkpt>
      <trkpt lat="47.92167" lon="7.21428">
        <ele>539.44</ele>
        <time>2016-05-02T12:56:30Z</time>
      </trkpt>
      <trkpt lat="47.92167" lon="7.21423">
        <ele>542.8</ele>
        <time>2016-05-02T12:56:33Z</time>
      </trkpt>
      <trkpt lat="47.92168" lon="7.21418">
        <ele>538.96</ele>
        <time>2016-05-02T12:56:37Z</time>
      </trkpt>
      <trkpt lat="47.92168" lon="7.21413">
        <ele>542.32</ele>
        <time>2016-05-02T12:56:40Z</time>
      </trkpt>
      <trkpt lat="47.92167" lon="7.21408">
        <ele>541.36</ele>
        <time>2016-05-02T12:56:49Z</time>
      </trkpt>
      <trkpt lat="47.92168" lon="7.21405">
        <ele>541.84</ele>
        <time>2016-05-02T12:56:51Z</time>
      </trkpt>
      <trkpt lat="47.92171" lon="7.21393">
        <ele>543.28</ele>
        <time>2016-05-02T12:56:55Z</time>
      </trkpt>
      <trkpt lat="47.92172" lon="7.21382">
        <ele>540.88</ele>
        <time>2016-05-02T12:57:01Z</time>
      </trkpt>
      <trkpt lat="47.92173" lon="7.21379">
        <ele>542.8</ele>
        <time>2016-05-02T12:57:03Z</time>
      </trkpt>
      <trkpt lat="47.92176" lon="7.21369">
        <ele>541.36</ele>
        <time>2016-05-02T12:57:09Z</time>
      </trkpt>
      <trkpt lat="47.92186" lon="7.21353">
        <ele>538.48</ele>
        <time>2016-05-02T12:57:17Z</time>
      </trkpt>
      <trkpt lat="47.92187" lon="7.21352">
        <ele>538.96</ele>
        <time>2016-05-02T12:57:18Z</time>
      </trkpt>
      <trkpt lat="47.92188" lon="7.21351">
        <ele>542.8</ele>
        <time>2016-05-02T12:57:19Z</time>
      </trkpt>
      <trkpt lat="47.92189" lon="7.2135">
        <ele>542.32</ele>
        <time>2016-05-02T12:57:20Z</time>
      </trkpt>
      <trkpt lat="47.92196" lon="7.21339">
        <ele>538.96</ele>
        <time>2016-05-02T12:57:30Z</time>
      </trkpt>
      <trkpt lat="47.92197" lon="7.21337">
        <ele>542.32</ele>
        <time>2016-05-02T12:57:32Z</time>
      </trkpt>
      <trkpt lat="47.92202" lon="7.21331">
        <ele>537.99</ele>
        <time>2016-05-02T12:57:39Z</time>
      </trkpt>
      <trkpt lat="47.92203" lon="7.2133">
        <ele>537.99</ele>
        <time>2016-05-02T12:57:40Z</time>
      </trkpt>
      <trkpt lat="47.92203" lon="7.21328">
        <ele>541.84</ele>
        <time>2016-05-02T12:57:41Z</time>
      </trkpt>
      <trkpt lat="47.92204" lon="7.21326">
        <ele>541.84</ele>
        <time>2016-05-02T12:57:42Z</time>
      </trkpt>
      <trkpt lat="47.92205" lon="7.21322">
        <ele>543.76</ele>
        <time>2016-05-02T12:57:45Z</time>
      </trkpt>
      <trkpt lat="47.92208" lon="7.21319">
        <ele>541.84</ele>
        <time>2016-05-02T12:57:49Z</time>
      </trkpt>
      <trkpt lat="47.92217" lon="7.21311">
        <ele>538.48</ele>
        <time>2016-05-02T12:58:02Z</time>
      </trkpt>
      <trkpt lat="47.92218" lon="7.2131">
        <ele>542.32</ele>
        <time>2016-05-02T12:58:04Z</time>
      </trkpt>
      <trkpt lat="47.92225" lon="7.21307">
        <ele>537.99</ele>
        <time>2016-05-02T12:58:14Z</time>
      </trkpt>
      <trkpt lat="47.92226" lon="7.21307">
        <ele>540.88</ele>
        <time>2016-05-02T12:58:15Z</time>
      </trkpt>
      <trkpt lat="47.92227" lon="7.21306">
        <ele>543.28</ele>
        <time>2016-05-02T12:58:17Z</time>
      </trkpt>
      <trkpt lat="47.92229" lon="7.21305">
        <ele>537.99</ele>
        <time>2016-05-02T12:58:22Z</time>
      </trkpt>
      <trkpt lat="47.9223" lon="7.21304">
        <ele>538.48</ele>
        <time>2016-05-02T12:58:23Z</time>
      </trkpt>
      <trkpt lat="47.9223" lon="7.21303">
        <ele>542.32</ele>
        <time>2016-05-02T12:58:24Z</time>
      </trkpt>
      <trkpt lat="47.92236" lon="7.21298">
        <ele>545.2</ele>
        <time>2016-05-02T12:58:30Z</time>
      </trkpt>
      <trkpt lat="47.92252" lon="7.21294">
        <ele>542.32</ele>
        <time>2016-05-02T12:58:41Z</time>
      </trkpt>
      <trkpt lat="47.92256" lon="7.21292">
        <ele>539.44</ele>
        <time>2016-05-02T12:58:43Z</time>
      </trkpt>
      <trkpt lat="47.92263" lon="7.21288">
        <ele>543.76</ele>
        <time>2016-05-02T12:58:48Z</time>
      </trkpt>
      <trkpt lat="47.9227" lon="7.21285">
        <ele>539.92</ele>
        <time>2016-05-02T12:58:58Z</time>
      </trkpt>
      <trkpt lat="47.92271" lon="7.21284">
        <ele>543.28</ele>
        <time>2016-05-02T12:58:59Z</time>
      </trkpt>
      <trkpt lat="47.92276" lon="7.21283">
        <ele>540.4</ele>
        <time>2016-05-02T12:59:03Z</time>
      </trkpt>
      <trkpt lat="47.92278" lon="7.21283">
        <ele>545.2</ele>
        <time>2016-05-02T12:59:05Z</time>
      </trkpt>
      <trkpt lat="47.9228" lon="7.21282">
        <ele>540.88</ele>
        <time>2016-05-02T12:59:07Z</time>
      </trkpt>
      <trkpt lat="47.92281" lon="7.21282">
        <ele>544.72</ele>
        <time>2016-05-02T12:59:09Z</time>
      </trkpt>
      <trkpt lat="47.92281" lon="7.21282">
        <ele>538.96</ele>
        <time>2016-05-02T12:59:11Z</time>
      </trkpt>
      <trkpt lat="47.92281" lon="7.21282">
        <ele>543.28</ele>
        <time>2016-05-02T12:59:14Z</time>
      </trkpt>
      <trkpt lat="47.92282" lon="7.21281">
        <ele>543.76</ele>
        <time>2016-05-02T12:59:15Z</time>
      </trkpt>
      <trkpt lat="47.92314" lon="7.21273">
        <ele>539.44</ele>
        <time>2016-05-02T12:59:35Z</time>
      </trkpt>
      <trkpt lat="47.92321" lon="7.21273">
        <ele>542.8</ele>
        <time>2016-05-02T12:59:40Z</time>
      </trkpt>
      <trkpt lat="47.92326" lon="7.2127">
        <ele>538.96</ele>
        <time>2016-05-02T12:59:44Z</time>
      </trkpt>
      <trkpt lat="47.92329" lon="7.21268">
        <ele>543.28</ele>
        <time>2016-05-02T12:59:46Z</time>
      </trkpt>
      <trkpt lat="47.9233" lon="7.21267">
        <ele>543.76</ele>
        <time>2016-05-02T12:59:47Z</time>
      </trkpt>
      <trkpt lat="47.92334" lon="7.21266">
        <ele>542.8</ele>
        <time>2016-05-02T12:59:52Z</time>
      </trkpt>
      <trkpt lat="47.92334" lon="7.21266">
        <ele>538.96</ele>
        <time>2016-05-02T12:59:53Z</time>
      </trkpt>
      <trkpt lat="47.92338" lon="7.21263">
        <ele>542.32</ele>
        <time>2016-05-02T12:59:55Z</time>
      </trkpt>
      <trkpt lat="47.92351" lon="7.21251">
        <ele>539.44</ele>
        <time>2016-05-02T13:00:07Z</time>
      </trkpt>
      <trkpt lat="47.92353" lon="7.21248">
        <ele>540.88</ele>
        <time>2016-05-02T13:00:09Z</time>
      </trkpt>
      <trkpt lat="47.92369" lon="7.21239">
        <ele>543.28</ele>
        <time>2016-05-02T13:00:20Z</time>
      </trkpt>
      <trkpt lat="47.92374" lon="7.21233">
        <ele>544.72</ele>
        <time>2016-05-02T13:00:23Z</time>
      </trkpt>
      <trkpt lat="47.92377" lon="7.21228">
        <ele>540.88</ele>
        <time>2016-05-02T13:00:25Z</time>
      </trkpt>
      <trkpt lat="47.92379" lon="7.21225">
        <ele>537.51</ele>
        <time>2016-05-02T13:00:27Z</time>
      </trkpt>
      <trkpt lat="47.9238" lon="7.21224">
        <ele>537.99</ele>
        <time>2016-05-02T13:00:28Z</time>
      </trkpt>
      <trkpt lat="47.92381" lon="7.21222">
        <ele>540.88</ele>
        <time>2016-05-02T13:00:29Z</time>
      </trkpt>
      <trkpt lat="47.92384" lon="7.21217">
        <ele>542.32</ele>
        <time>2016-05-02T13:00:32Z</time>
      </trkpt>
      <trkpt lat="47.92388" lon="7.21211">
        <ele>538.48</ele>
        <time>2016-05-02T13:00:37Z</time>
      </trkpt>
      <trkpt lat="47.92388" lon="7.21211">
        <ele>544.24</ele>
        <time>2016-05-02T13:00:38Z</time>
      </trkpt>
      <trkpt lat="47.92393" lon="7.21208">
        <ele>539.44</ele>
        <time>2016-05-02T13:00:42Z</time>
      </trkpt>
      <trkpt lat="47.92398" lon="7.21202">
        <ele>542.32</ele>
        <time>2016-05-02T13:00:47Z</time>
      </trkpt>
      <trkpt lat="47.92407" lon="7.21182">
        <ele>542.8</ele>
        <time>2016-05-02T13:01:06Z</time>
      </trkpt>
      <trkpt lat="47.92421" lon="7.21164">
        <ele>541.36</ele>
        <time>2016-05-02T13:01:23Z</time>
      </trkpt>
      <trkpt lat="47.92429" lon="7.21158">
        <ele>542.32</ele>
        <time>2016-05-02T13:01:36Z</time>
      </trkpt>
      <trkpt lat="47.92438" lon="7.21153">
        <ele>541.84</ele>
        <time>2016-05-02T13:01:47Z</time>
      </trkpt>
      <trkpt lat="47.92453" lon="7.21149">
        <ele>542.32</ele>
        <time>2016-05-02T13:02:02Z</time>
      </trkpt>
      <trkpt lat="47.92461" lon="7.21147">
        <ele>541.84</ele>
        <time>2016-05-02T13:02:09Z</time>
      </trkpt>
      <trkpt lat="47.92484" lon="7.21138">
        <ele>542.32</ele>
        <time>2016-05-02T13:02:27Z</time>
      </trkpt>
      <trkpt lat="47.92496" lon="7.21137">
        <ele>541.84</ele>
        <time>2016-05-02T13:02:41Z</time>
      </trkpt>
      <trkpt lat="47.92511" lon="7.21132">
        <ele>541.36</ele>
        <time>2016-05-02T13:02:54Z</time>
      </trkpt>
      <trkpt lat="47.92528" lon="7.21121">
        <ele>542.32</ele>
        <time>2016-05-02T13:03:10Z</time>
      </trkpt>
      <trkpt lat="47.92547" lon="7.2111">
        <ele>542.8</ele>
        <time>2016-05-02T13:03:28Z</time>
      </trkpt>
      <trkpt lat="47.92557" lon="7.21106">
        <ele>542.32</ele>
        <time>2016-05-02T13:03:37Z</time>
      </trkpt>
      <trkpt lat="47.92569" lon="7.21102">
        <ele>542.32</ele>
        <time>2016-05-02T13:03:51Z</time>
      </trkpt>
      <trkpt lat="47.92579" lon="7.21099">
        <ele>542.8</ele>
        <time>2016-05-02T13:04:03Z</time>
      </trkpt>
      <trkpt lat="47.92598" lon="7.21091">
        <ele>542.32</ele>
        <time>2016-05-02T13:04:18Z</time>
      </trkpt>
      <trkpt lat="47.92617" lon="7.21079">
        <ele>542.32</ele>
        <time>2016-05-02T13:04:31Z</time>
      </trkpt>
      <trkpt lat="47.92633" lon="7.21068">
        <ele>542.32</ele>
        <time>2016-05-02T13:04:49Z</time>
      </trkpt>
      <trkpt lat="47.92646" lon="7.21063">
        <ele>541.36</ele>
        <time>2016-05-02T13:05:03Z</time>
      </trkpt>
      <trkpt lat="47.92662" lon="7.21078">
        <ele>542.32</ele>
        <time>2016-05-02T13:05:21Z</time>
      </trkpt>
      <trkpt lat="47.92663" lon="7.21078">
        <ele>544.24</ele>
        <time>2016-05-02T13:05:23Z</time>
      </trkpt>
      <trkpt lat="47.92665" lon="7.21079">
        <ele>540.88</ele>
        <time>2016-05-02T13:05:25Z</time>
      </trkpt>
      <trkpt lat="47.92669" lon="7.21081">
        <ele>540.88</ele>
        <time>2016-05-02T13:05:32Z</time>
      </trkpt>
      <trkpt lat="47.9267" lon="7.21082">
        <ele>545.2</ele>
        <time>2016-05-02T13:05:37Z</time>
      </trkpt>
      <trkpt lat="47.92681" lon="7.21083">
        <ele>541.36</ele>
        <time>2016-05-02T13:05:45Z</time>
      </trkpt>
      <trkpt lat="47.92682" lon="7.21083">
        <ele>544.24</ele>
        <time>2016-05-02T13:05:46Z</time>
      </trkpt>
      <trkpt lat="47.92693" lon="7.21085">
        <ele>543.76</ele>
        <time>2016-05-02T13:05:59Z</time>
      </trkpt>
      <trkpt lat="47.92694" lon="7.21085">
        <ele>536.07</ele>
        <time>2016-05-02T13:06:00Z</time>
      </trkpt>
      <trkpt lat="47.92695" lon="7.21085">
        <ele>542.32</ele>
        <time>2016-05-02T13:06:01Z</time>
      </trkpt>
      <trkpt lat="47.92699" lon="7.21085">
        <ele>537.99</ele>
        <time>2016-05-02T13:06:03Z</time>
      </trkpt>
      <trkpt lat="47.92701" lon="7.21085">
        <ele>542.32</ele>
        <time>2016-05-02T13:06:04Z</time>
      </trkpt>
      <trkpt lat="47.92711" lon="7.21079">
        <ele>545.69</ele>
        <time>2016-05-02T13:06:13Z</time>
      </trkpt>
      <trkpt lat="47.92713" lon="7.21075">
        <ele>539.44</ele>
        <time>2016-05-02T13:06:15Z</time>
      </trkpt>
      <trkpt lat="47.92714" lon="7.21073">
        <ele>541.36</ele>
        <time>2016-05-02T13:06:16Z</time>
      </trkpt>
      <trkpt lat="47.92714" lon="7.21073">
        <ele>544.72</ele>
        <time>2016-05-02T13:06:17Z</time>
      </trkpt>
      <trkpt lat="47.92714" lon="7.21073">
        <ele>539.92</ele>
        <time>2016-05-02T13:06:18Z</time>
      </trkpt>
      <trkpt lat="47.92714" lon="7.21073">
        <ele>543.76</ele>
        <time>2016-05-02T13:06:19Z</time>
      </trkpt>
      <trkpt lat="47.92722" lon="7.21077">
        <ele>541.84</ele>
        <time>2016-05-02T13:06:23Z</time>
      </trkpt>
      <trkpt lat="47.92723" lon="7.21078">
        <ele>546.17</ele>
        <time>2016-05-02T13:06:24Z</time>
      </trkpt>
      <trkpt lat="47.92724" lon="7.21079">
        <ele>541.36</ele>
        <time>2016-05-02T13:06:25Z</time>
      </trkpt>
      <trkpt lat="47.92731" lon="7.21088">
        <ele>546.17</ele>
        <time>2016-05-02T13:06:31Z</time>
      </trkpt>
      <trkpt lat="47.92732" lon="7.21089">
        <ele>544.72</ele>
        <time>2016-05-02T13:06:32Z</time>
      </trkpt>
      <trkpt lat="47.92733" lon="7.2109">
        <ele>541.84</ele>
        <time>2016-05-02T13:06:37Z</time>
      </trkpt>
      <trkpt lat="47.92733" lon="7.2109">
        <ele>545.2</ele>
        <time>2016-05-02T13:06:38Z</time>
      </trkpt>
      <trkpt lat="47.92733" lon="7.2109">
        <ele>541.84</ele>
        <time>2016-05-02T13:06:39Z</time>
      </trkpt>
      <trkpt lat="47.92733" lon="7.2109">
        <ele>545.69</ele>
        <time>2016-05-02T13:06:42Z</time>
      </trkpt>
      <trkpt lat="47.92733" lon="7.2109">
        <ele>542.8</ele>
        <time>2016-05-02T13:06:43Z</time>
      </trkpt>
      <trkpt lat="47.92735" lon="7.21088">
        <ele>538.48</ele>
        <time>2016-05-02T13:06:46Z</time>
      </trkpt>
      <trkpt lat="47.92735" lon="7.21087">
        <ele>541.84</ele>
        <time>2016-05-02T13:06:47Z</time>
      </trkpt>
      <trkpt lat="47.92742" lon="7.21091">
        <ele>543.28</ele>
        <time>2016-05-02T13:06:59Z</time>
      </trkpt>
      <trkpt lat="47.92747" lon="7.21091">
        <ele>541.84</ele>
        <time>2016-05-02T13:07:04Z</time>
      </trkpt>
      <trkpt lat="47.92748" lon="7.21091">
        <ele>545.69</ele>
        <time>2016-05-02T13:07:05Z</time>
      </trkpt>
      <trkpt lat="47.92749" lon="7.21091">
        <ele>541.84</ele>
        <time>2016-05-02T13:07:06Z</time>
      </trkpt>
      <trkpt lat="47.9275" lon="7.21091">
        <ele>545.69</ele>
        <time>2016-05-02T13:07:07Z</time>
      </trkpt>
      <trkpt lat="47.92752" lon="7.21095">
        <ele>546.17</ele>
        <time>2016-05-02T13:07:30Z</time>
      </trkpt>
      <trkpt lat="47.92752" lon="7.21095">
        <ele>541.84</ele>
        <time>2016-05-02T13:07:31Z</time>
      </trkpt>
      <trkpt lat="47.92771" lon="7.21098">
        <ele>543.76</ele>
        <time>2016-05-02T13:07:43Z</time>
      </trkpt>
      <trkpt lat="47.92783" lon="7.21111">
        <ele>543.28</ele>
        <time>2016-05-02T13:07:56Z</time>
      </trkpt>
      <trkpt lat="47.92784" lon="7.21117">
        <ele>542.8</ele>
        <time>2016-05-02T13:07:59Z</time>
      </trkpt>
      <trkpt lat="47.92788" lon="7.2113">
        <ele>540.88</ele>
        <time>2016-05-02T13:08:08Z</time>
      </trkpt>
      <trkpt lat="47.92791" lon="7.21148">
        <ele>544.72</ele>
        <time>2016-05-02T13:08:20Z</time>
      </trkpt>
      <trkpt lat="47.92792" lon="7.21154">
        <ele>540.4</ele>
        <time>2016-05-02T13:08:24Z</time>
      </trkpt>
      <trkpt lat="47.92793" lon="7.21158">
        <ele>539.92</ele>
        <time>2016-05-02T13:08:26Z</time>
      </trkpt>
      <trkpt lat="47.92793" lon="7.21164">
        <ele>542.8</ele>
        <time>2016-05-02T13:08:30Z</time>
      </trkpt>
      <trkpt lat="47.92793" lon="7.21165">
        <ele>542.32</ele>
        <time>2016-05-02T13:08:31Z</time>
      </trkpt>
      <trkpt lat="47.92792" lon="7.21169">
        <ele>541.36</ele>
        <time>2016-05-02T13:08:34Z</time>
      </trkpt>
      <trkpt lat="47.92792" lon="7.21191">
        <ele>539.44</ele>
        <time>2016-05-02T13:08:53Z</time>
      </trkpt>
      <trkpt lat="47.92792" lon="7.21191">
        <ele>538.48</ele>
        <time>2016-05-02T13:08:55Z</time>
      </trkpt>
      <trkpt lat="47.9279" lon="7.21198">
        <ele>541.84</ele>
        <time>2016-05-02T13:09:02Z</time>
      </trkpt>
      <trkpt lat="47.9279" lon="7.21205">
        <ele>539.44</ele>
        <time>2016-05-02T13:09:07Z</time>
      </trkpt>
      <trkpt lat="47.9279" lon="7.21212">
        <ele>536.55</ele>
        <time>2016-05-02T13:09:12Z</time>
      </trkpt>
      <trkpt lat="47.92788" lon="7.21216">
        <ele>532.71</ele>
        <time>2016-05-02T13:09:14Z</time>
      </trkpt>
      <trkpt lat="47.92788" lon="7.21219">
        <ele>533.19</ele>
        <time>2016-05-02T13:09:15Z</time>
      </trkpt>
      <trkpt lat="47.92788" lon="7.21227">
        <ele>538.96</ele>
        <time>2016-05-02T13:09:19Z</time>
      </trkpt>
      <trkpt lat="47.92787" lon="7.21229">
        <ele>538.96</ele>
        <time>2016-05-02T13:09:20Z</time>
      </trkpt>
      <trkpt lat="47.92786" lon="7.21232">
        <ele>537.03</ele>
        <time>2016-05-02T13:09:22Z</time>
      </trkpt>
      <trkpt lat="47.92787" lon="7.21237">
        <ele>533.67</ele>
        <time>2016-05-02T13:09:28Z</time>
      </trkpt>
      <trkpt lat="47.92788" lon="7.2124">
        <ele>529.82</ele>
        <time>2016-05-02T13:09:30Z</time>
      </trkpt>
      <trkpt lat="47.92789" lon="7.21242">
        <ele>529.82</ele>
        <time>2016-05-02T13:09:31Z</time>
      </trkpt>
      <trkpt lat="47.92791" lon="7.21248">
        <ele>534.63</ele>
        <time>2016-05-02T13:09:35Z</time>
      </trkpt>
      <trkpt lat="47.92792" lon="7.21255">
        <ele>533.67</ele>
        <time>2016-05-02T13:09:40Z</time>
      </trkpt>
      <trkpt lat="47.92798" lon="7.21268">
        <ele>530.3</ele>
        <time>2016-05-02T13:09:45Z</time>
      </trkpt>
      <trkpt lat="47.92798" lon="7.21269">
        <ele>530.3</ele>
        <time>2016-05-02T13:09:46Z</time>
      </trkpt>
      <trkpt lat="47.92798" lon="7.21271">
        <ele>526.94</ele>
        <time>2016-05-02T13:09:47Z</time>
      </trkpt>
      <trkpt lat="47.92798" lon="7.21272">
        <ele>527.9</ele>
        <time>2016-05-02T13:09:48Z</time>
      </trkpt>
      <trkpt lat="47.92799" lon="7.21273">
        <ele>529.34</ele>
        <time>2016-05-02T13:09:49Z</time>
      </trkpt>
      <trkpt lat="47.92801" lon="7.21276">
        <ele>530.3</ele>
        <time>2016-05-02T13:09:51Z</time>
      </trkpt>
      <trkpt lat="47.92801" lon="7.21277">
        <ele>533.67</ele>
        <time>2016-05-02T13:09:52Z</time>
      </trkpt>
      <trkpt lat="47.92802" lon="7.21278">
        <ele>532.71</ele>
        <time>2016-05-02T13:09:53Z</time>
      </trkpt>
      <trkpt lat="47.92802" lon="7.21279">
        <ele>531.27</ele>
        <time>2016-05-02T13:09:58Z</time>
      </trkpt>
      <trkpt lat="47.92803" lon="7.21285">
        <ele>526.94</ele>
        <time>2016-05-02T13:10:02Z</time>
      </trkpt>
      <trkpt lat="47.92803" lon="7.21288">
        <ele>524.54</ele>
        <time>2016-05-02T13:10:04Z</time>
      </trkpt>
      <trkpt lat="47.92803" lon="7.21292">
        <ele>527.42</ele>
        <time>2016-05-02T13:10:06Z</time>
      </trkpt>
      <trkpt lat="47.92802" lon="7.21298">
        <ele>527.9</ele>
        <time>2016-05-02T13:10:16Z</time>
      </trkpt>
      <trkpt lat="47.92794" lon="7.21323">
        <ele>523.58</ele>
        <time>2016-05-02T13:10:27Z</time>
      </trkpt>
      <trkpt lat="47.92792" lon="7.21334">
        <ele>525.98</ele>
        <time>2016-05-02T13:10:32Z</time>
      </trkpt>
      <trkpt lat="47.92791" lon="7.21348">
        <ele>521.17</ele>
        <time>2016-05-02T13:10:43Z</time>
      </trkpt>
      <trkpt lat="47.92792" lon="7.21351">
        <ele>520.69</ele>
        <time>2016-05-02T13:10:45Z</time>
      </trkpt>
      <trkpt lat="47.92792" lon="7.21354">
        <ele>525.5</ele>
        <time>2016-05-02T13:10:47Z</time>
      </trkpt>
      <trkpt lat="47.92791" lon="7.21361">
        <ele>523.09</ele>
        <time>2016-05-02T13:10:52Z</time>
      </trkpt>
      <trkpt lat="47.92791" lon="7.21369">
        <ele>520.69</ele>
        <time>2016-05-02T13:10:57Z</time>
      </trkpt>
      <trkpt lat="47.92782" lon="7.2138">
        <ele>518.29</ele>
        <time>2016-05-02T13:11:12Z</time>
      </trkpt>
      <trkpt lat="47.92781" lon="7.21383">
        <ele>521.65</ele>
        <time>2016-05-02T13:11:15Z</time>
      </trkpt>
      <trkpt lat="47.9278" lon="7.21387">
        <ele>517.33</ele>
        <time>2016-05-02T13:11:19Z</time>
      </trkpt>
      <trkpt lat="47.92781" lon="7.21387">
        <ele>518.29</ele>
        <time>2016-05-02T13:11:20Z</time>
      </trkpt>
      <trkpt lat="47.9278" lon="7.2139">
        <ele>521.17</ele>
        <time>2016-05-02T13:11:23Z</time>
      </trkpt>
      <trkpt lat="47.9278" lon="7.21391">
        <ele>521.65</ele>
        <time>2016-05-02T13:11:24Z</time>
      </trkpt>
      <trkpt lat="47.92778" lon="7.21397">
        <ele>519.25</ele>
        <time>2016-05-02T13:11:28Z</time>
      </trkpt>
      <trkpt lat="47.92777" lon="7.21401">
        <ele>515.4</ele>
        <time>2016-05-02T13:11:31Z</time>
      </trkpt>
      <trkpt lat="47.92776" lon="7.21402">
        <ele>515.88</ele>
        <time>2016-05-02T13:11:32Z</time>
      </trkpt>
      <trkpt lat="47.92773" lon="7.21411">
        <ele>519.25</ele>
        <time>2016-05-02T13:11:38Z</time>
      </trkpt>
      <trkpt lat="47.92773" lon="7.21413">
        <ele>519.25</ele>
        <time>2016-05-02T13:11:39Z</time>
      </trkpt>
      <trkpt lat="47.92771" lon="7.21419">
        <ele>515.88</ele>
        <time>2016-05-02T13:11:45Z</time>
      </trkpt>
      <trkpt lat="47.92771" lon="7.2142">
        <ele>515.88</ele>
        <time>2016-05-02T13:11:46Z</time>
      </trkpt>
      <trkpt lat="47.9277" lon="7.21422">
        <ele>512.04</ele>
        <time>2016-05-02T13:11:47Z</time>
      </trkpt>
      <trkpt lat="47.92766" lon="7.2143">
        <ele>512.52</ele>
        <time>2016-05-02T13:11:51Z</time>
      </trkpt>
      <trkpt lat="47.92764" lon="7.21433">
        <ele>516.85</ele>
        <time>2016-05-02T13:11:53Z</time>
      </trkpt>
      <trkpt lat="47.92762" lon="7.2144">
        <ele>516.85</ele>
        <time>2016-05-02T13:11:58Z</time>
      </trkpt>
      <trkpt lat="47.92759" lon="7.21447">
        <ele>513</ele>
        <time>2016-05-02T13:12:03Z</time>
      </trkpt>
      <trkpt lat="47.92759" lon="7.21448">
        <ele>509.16</ele>
        <time>2016-05-02T13:12:04Z</time>
      </trkpt>
      <trkpt lat="47.92758" lon="7.2145">
        <ele>511.56</ele>
        <time>2016-05-02T13:12:05Z</time>
      </trkpt>
      <trkpt lat="47.92758" lon="7.2145">
        <ele>513.48</ele>
        <time>2016-05-02T13:12:07Z</time>
      </trkpt>
      <trkpt lat="47.92758" lon="7.2145">
        <ele>515.4</ele>
        <time>2016-05-02T13:12:18Z</time>
      </trkpt>
      <trkpt lat="47.92753" lon="7.21473">
        <ele>511.56</ele>
        <time>2016-05-02T13:12:28Z</time>
      </trkpt>
      <trkpt lat="47.92748" lon="7.21486">
        <ele>511.08</ele>
        <time>2016-05-02T13:12:38Z</time>
      </trkpt>
      <trkpt lat="47.92745" lon="7.21491">
        <ele>509.64</ele>
        <time>2016-05-02T13:12:42Z</time>
      </trkpt>
      <trkpt lat="47.92738" lon="7.21512">
        <ele>509.64</ele>
        <time>2016-05-02T13:12:53Z</time>
      </trkpt>
      <trkpt lat="47.92732" lon="7.21526">
        <ele>507.71</ele>
        <time>2016-05-02T13:13:00Z</time>
      </trkpt>
      <trkpt lat="47.9273" lon="7.21528">
        <ele>504.35</ele>
        <time>2016-05-02T13:13:02Z</time>
      </trkpt>
      <trkpt lat="47.92727" lon="7.21536">
        <ele>498.58</ele>
        <time>2016-05-02T13:13:10Z</time>
      </trkpt>
      <trkpt lat="47.92727" lon="7.21537">
        <ele>499.54</ele>
        <time>2016-05-02T13:13:11Z</time>
      </trkpt>
      <trkpt lat="47.92725" lon="7.21545">
        <ele>503.87</ele>
        <time>2016-05-02T13:13:16Z</time>
      </trkpt>
      <trkpt lat="47.92723" lon="7.21549">
        <ele>506.75</ele>
        <time>2016-05-02T13:13:19Z</time>
      </trkpt>
      <trkpt lat="47.92719" lon="7.21556">
        <ele>505.31</ele>
        <time>2016-05-02T13:13:24Z</time>
      </trkpt>
      <trkpt lat="47.92718" lon="7.2156">
        <ele>503.87</ele>
        <time>2016-05-02T13:13:26Z</time>
      </trkpt>
      <trkpt lat="47.92722" lon="7.21573">
        <ele>501.95</ele>
        <time>2016-05-02T13:13:30Z</time>
      </trkpt>
      <trkpt lat="47.92718" lon="7.21597">
        <ele>498.58</ele>
        <time>2016-05-02T13:13:44Z</time>
      </trkpt>
      <trkpt lat="47.92717" lon="7.21599">
        <ele>501.95</ele>
        <time>2016-05-02T13:13:48Z</time>
      </trkpt>
      <trkpt lat="47.9271" lon="7.2161">
        <ele>497.14</ele>
        <time>2016-05-02T13:13:59Z</time>
      </trkpt>
      <trkpt lat="47.92709" lon="7.21614">
        <ele>494.74</ele>
        <time>2016-05-02T13:14:02Z</time>
      </trkpt>
      <trkpt lat="47.92714" lon="7.21637">
        <ele>497.14</ele>
        <time>2016-05-02T13:14:16Z</time>
      </trkpt>
      <trkpt lat="47.92716" lon="7.21638">
        <ele>491.85</ele>
        <time>2016-05-02T13:14:18Z</time>
      </trkpt>
      <trkpt lat="47.92717" lon="7.21638">
        <ele>494.26</ele>
        <time>2016-05-02T13:14:19Z</time>
      </trkpt>
      <trkpt lat="47.92719" lon="7.21637">
        <ele>495.7</ele>
        <time>2016-05-02T13:14:21Z</time>
      </trkpt>
      <trkpt lat="47.92724" lon="7.21638">
        <ele>492.33</ele>
        <time>2016-05-02T13:14:25Z</time>
      </trkpt>
      <trkpt lat="47.92728" lon="7.21638">
        <ele>490.89</ele>
        <time>2016-05-02T13:14:28Z</time>
      </trkpt>
      <trkpt lat="47.92729" lon="7.21637">
        <ele>494.26</ele>
        <time>2016-05-02T13:14:29Z</time>
      </trkpt>
      <trkpt lat="47.9273" lon="7.21636">
        <ele>493.29</ele>
        <time>2016-05-02T13:14:30Z</time>
      </trkpt>
      <trkpt lat="47.92739" lon="7.21638">
        <ele>489.93</ele>
        <time>2016-05-02T13:14:39Z</time>
      </trkpt>
      <trkpt lat="47.9274" lon="7.21636">
        <ele>488.97</ele>
        <time>2016-05-02T13:14:41Z</time>
      </trkpt>
      <trkpt lat="47.92742" lon="7.21636">
        <ele>489.45</ele>
        <time>2016-05-02T13:14:43Z</time>
      </trkpt>
      <trkpt lat="47.92744" lon="7.21636">
        <ele>490.89</ele>
        <time>2016-05-02T13:14:45Z</time>
      </trkpt>
      <trkpt lat="47.92747" lon="7.21637">
        <ele>487.53</ele>
        <time>2016-05-02T13:14:49Z</time>
      </trkpt>
      <trkpt lat="47.92747" lon="7.21637">
        <ele>488.49</ele>
        <time>2016-05-02T13:14:50Z</time>
      </trkpt>
      <trkpt lat="47.92752" lon="7.21636">
        <ele>492.81</ele>
        <time>2016-05-02T13:14:55Z</time>
      </trkpt>
      <trkpt lat="47.92753" lon="7.21635">
        <ele>492.33</ele>
        <time>2016-05-02T13:14:56Z</time>
      </trkpt>
      <trkpt lat="47.92759" lon="7.21633">
        <ele>490.41</ele>
        <time>2016-05-02T13:15:01Z</time>
      </trkpt>
      <trkpt lat="47.92764" lon="7.21632">
        <ele>491.85</ele>
        <time>2016-05-02T13:15:07Z</time>
      </trkpt>
      <trkpt lat="47.92773" lon="7.21629">
        <ele>488.49</ele>
        <time>2016-05-02T13:15:14Z</time>
      </trkpt>
      <trkpt lat="47.92777" lon="7.21631">
        <ele>488.97</ele>
        <time>2016-05-02T13:15:18Z</time>
      </trkpt>
      <trkpt lat="47.92781" lon="7.21632">
        <ele>484.64</ele>
        <time>2016-05-02T13:15:22Z</time>
      </trkpt>
      <trkpt lat="47.92782" lon="7.21633">
        <ele>485.6</ele>
        <time>2016-05-02T13:15:23Z</time>
      </trkpt>
      <trkpt lat="47.92787" lon="7.21637">
        <ele>484.64</ele>
        <time>2016-05-02T13:15:32Z</time>
      </trkpt>
      <trkpt lat="47.92785" lon="7.2164">
        <ele>484.16</ele>
        <time>2016-05-02T13:15:35Z</time>
      </trkpt>
      <trkpt lat="47.92777" lon="7.21648">
        <ele>482.72</ele>
        <time>2016-05-02T13:15:47Z</time>
      </trkpt>
      <trkpt lat="47.92773" lon="7.2165">
        <ele>483.2</ele>
        <time>2016-05-02T13:16:01Z</time>
      </trkpt>
      <trkpt lat="47.92757" lon="7.21665">
        <ele>483.68</ele>
        <time>2016-05-02T13:16:18Z</time>
      </trkpt>
      <trkpt lat="47.92745" lon="7.21684">
        <ele>479.84</ele>
        <time>2016-05-02T13:16:34Z</time>
      </trkpt>
      <trkpt lat="47.92745" lon="7.21686">
        <ele>479.84</ele>
        <time>2016-05-02T13:16:35Z</time>
      </trkpt>
      <trkpt lat="47.92744" lon="7.21689">
        <ele>479.84</ele>
        <time>2016-05-02T13:16:37Z</time>
      </trkpt>
      <trkpt lat="47.92742" lon="7.21694">
        <ele>481.28</ele>
        <time>2016-05-02T13:16:40Z</time>
      </trkpt>
      <trkpt lat="47.92739" lon="7.21704">
        <ele>476.95</ele>
        <time>2016-05-02T13:16:45Z</time>
      </trkpt>
      <trkpt lat="47.92739" lon="7.21705">
        <ele>476.95</ele>
        <time>2016-05-02T13:16:46Z</time>
      </trkpt>
      <trkpt lat="47.92737" lon="7.21709">
        <ele>475.03</ele>
        <time>2016-05-02T13:16:48Z</time>
      </trkpt>
      <trkpt lat="47.92736" lon="7.21716">
        <ele>476.95</ele>
        <time>2016-05-02T13:16:51Z</time>
      </trkpt>
      <trkpt lat="47.92734" lon="7.21722">
        <ele>473.59</ele>
        <time>2016-05-02T13:16:55Z</time>
      </trkpt>
      <trkpt lat="47.92732" lon="7.2173">
        <ele>476.47</ele>
        <time>2016-05-02T13:17:00Z</time>
      </trkpt>
      <trkpt lat="47.92732" lon="7.21735">
        <ele>478.39</ele>
        <time>2016-05-02T13:17:02Z</time>
      </trkpt>
      <trkpt lat="47.92732" lon="7.21752">
        <ele>477.91</ele>
        <time>2016-05-02T13:17:11Z</time>
      </trkpt>
      <trkpt lat="47.92729" lon="7.21795">
        <ele>476.47</ele>
        <time>2016-05-02T13:17:34Z</time>
      </trkpt>
      <trkpt lat="47.92727" lon="7.21812">
        <ele>473.11</ele>
        <time>2016-05-02T13:17:44Z</time>
      </trkpt>
      <trkpt lat="47.92727" lon="7.21826">
        <ele>469.74</ele>
        <time>2016-05-02T13:17:50Z</time>
      </trkpt>
      <trkpt lat="47.92726" lon="7.21828">
        <ele>470.7</ele>
        <time>2016-05-02T13:17:51Z</time>
      </trkpt>
      <trkpt lat="47.92724" lon="7.21836">
        <ele>468.3</ele>
        <time>2016-05-02T13:17:55Z</time>
      </trkpt>
      <trkpt lat="47.92723" lon="7.21846">
        <ele>471.66</ele>
        <time>2016-05-02T13:17:59Z</time>
      </trkpt>
      <trkpt lat="47.92722" lon="7.21852">
        <ele>467.82</ele>
        <time>2016-05-02T13:18:02Z</time>
      </trkpt>
      <trkpt lat="47.92724" lon="7.21863">
        <ele>469.74</ele>
        <time>2016-05-02T13:18:08Z</time>
      </trkpt>
      <trkpt lat="47.92724" lon="7.2187">
        <ele>466.38</ele>
        <time>2016-05-02T13:18:13Z</time>
      </trkpt>
      <trkpt lat="47.92725" lon="7.21872">
        <ele>466.38</ele>
        <time>2016-05-02T13:18:14Z</time>
      </trkpt>
      <trkpt lat="47.92726" lon="7.21879">
        <ele>471.18</ele>
        <time>2016-05-02T13:18:19Z</time>
      </trkpt>
      <trkpt lat="47.92726" lon="7.2188">
        <ele>470.7</ele>
        <time>2016-05-02T13:18:20Z</time>
      </trkpt>
      <trkpt lat="47.92727" lon="7.21887">
        <ele>470.22</ele>
        <time>2016-05-02T13:18:25Z</time>
      </trkpt>
      <trkpt lat="47.92727" lon="7.21895">
        <ele>471.18</ele>
        <time>2016-05-02T13:18:30Z</time>
      </trkpt>
      <trkpt lat="47.92726" lon="7.21902">
        <ele>466.86</ele>
        <time>2016-05-02T13:18:34Z</time>
      </trkpt>
      <trkpt lat="47.92725" lon="7.21904">
        <ele>466.38</ele>
        <time>2016-05-02T13:18:35Z</time>
      </trkpt>
      <trkpt lat="47.92723" lon="7.21909">
        <ele>463.01</ele>
        <time>2016-05-02T13:18:37Z</time>
      </trkpt>
      <trkpt lat="47.92722" lon="7.21918">
        <ele>466.38</ele>
        <time>2016-05-02T13:18:40Z</time>
      </trkpt>
      <trkpt lat="47.92722" lon="7.2192">
        <ele>465.9</ele>
        <time>2016-05-02T13:18:41Z</time>
      </trkpt>
      <trkpt lat="47.92723" lon="7.21931">
        <ele>462.53</ele>
        <time>2016-05-02T13:18:46Z</time>
      </trkpt>
      <trkpt lat="47.92723" lon="7.21933">
        <ele>463.49</ele>
        <time>2016-05-02T13:18:47Z</time>
      </trkpt>
      <trkpt lat="47.92722" lon="7.21937">
        <ele>463.97</ele>
        <time>2016-05-02T13:18:49Z</time>
      </trkpt>
      <trkpt lat="47.92721" lon="7.2194">
        <ele>468.3</ele>
        <time>2016-05-02T13:18:51Z</time>
      </trkpt>
      <trkpt lat="47.92721" lon="7.21942">
        <ele>467.34</ele>
        <time>2016-05-02T13:18:52Z</time>
      </trkpt>
      <trkpt lat="47.9272" lon="7.2195">
        <ele>467.82</ele>
        <time>2016-05-02T13:18:57Z</time>
      </trkpt>
      <trkpt lat="47.92719" lon="7.21978">
        <ele>462.05</ele>
        <time>2016-05-02T13:19:13Z</time>
      </trkpt>
      <trkpt lat="47.92718" lon="7.21981">
        <ele>461.09</ele>
        <time>2016-05-02T13:19:15Z</time>
      </trkpt>
      <trkpt lat="47.92715" lon="7.21993">
        <ele>460.13</ele>
        <time>2016-05-02T13:19:23Z</time>
      </trkpt>
      <trkpt lat="47.92714" lon="7.22001">
        <ele>460.13</ele>
        <time>2016-05-02T13:19:27Z</time>
      </trkpt>
      <trkpt lat="47.92714" lon="7.22006">
        <ele>462.05</ele>
        <time>2016-05-02T13:19:30Z</time>
      </trkpt>
      <trkpt lat="47.92713" lon="7.22014">
        <ele>459.65</ele>
        <time>2016-05-02T13:19:35Z</time>
      </trkpt>
      <trkpt lat="47.92712" lon="7.22025">
        <ele>460.13</ele>
        <time>2016-05-02T13:19:41Z</time>
      </trkpt>
      <trkpt lat="47.92709" lon="7.22033">
        <ele>454.84</ele>
        <time>2016-05-02T13:19:46Z</time>
      </trkpt>
      <trkpt lat="47.92709" lon="7.22035">
        <ele>454.84</ele>
        <time>2016-05-02T13:19:47Z</time>
      </trkpt>
      <trkpt lat="47.92709" lon="7.22036">
        <ele>454.36</ele>
        <time>2016-05-02T13:19:48Z</time>
      </trkpt>
      <trkpt lat="47.92708" lon="7.22047">
        <ele>457.24</ele>
        <time>2016-05-02T13:19:53Z</time>
      </trkpt>
      <trkpt lat="47.92706" lon="7.22057">
        <ele>456.28</ele>
        <time>2016-05-02T13:19:59Z</time>
      </trkpt>
      <trkpt lat="47.92704" lon="7.2207">
        <ele>452.92</ele>
        <time>2016-05-02T13:20:09Z</time>
      </trkpt>
      <trkpt lat="47.92704" lon="7.22073">
        <ele>451.96</ele>
        <time>2016-05-02T13:20:11Z</time>
      </trkpt>
      <trkpt lat="47.92702" lon="7.22078">
        <ele>455.32</ele>
        <time>2016-05-02T13:20:15Z</time>
      </trkpt>
      <trkpt lat="47.927" lon="7.22085">
        <ele>450.03</ele>
        <time>2016-05-02T13:20:19Z</time>
      </trkpt>
      <trkpt lat="47.92699" lon="7.22086">
        <ele>451</ele>
        <time>2016-05-02T13:20:20Z</time>
      </trkpt>
      <trkpt lat="47.92696" lon="7.2209">
        <ele>451.96</ele>
        <time>2016-05-02T13:20:23Z</time>
      </trkpt>
      <trkpt lat="47.92691" lon="7.22104">
        <ele>450.52</ele>
        <time>2016-05-02T13:20:30Z</time>
      </trkpt>
      <trkpt lat="47.92688" lon="7.22113">
        <ele>454.84</ele>
        <time>2016-05-02T13:20:36Z</time>
      </trkpt>
      <trkpt lat="47.92688" lon="7.22114">
        <ele>454.36</ele>
        <time>2016-05-02T13:20:37Z</time>
      </trkpt>
      <trkpt lat="47.92689" lon="7.22131">
        <ele>451</ele>
        <time>2016-05-02T13:20:47Z</time>
      </trkpt>
      <trkpt lat="47.92689" lon="7.22141">
        <ele>450.52</ele>
        <time>2016-05-02T13:20:53Z</time>
      </trkpt>
      <trkpt lat="47.92686" lon="7.2215">
        <ele>442.82</ele>
        <time>2016-05-02T13:20:58Z</time>
      </trkpt>
      <trkpt lat="47.92684" lon="7.22156">
        <ele>440.9</ele>
        <time>2016-05-02T13:21:01Z</time>
      </trkpt>
      <trkpt lat="47.92682" lon="7.22161">
        <ele>447.15</ele>
        <time>2016-05-02T13:21:03Z</time>
      </trkpt>
      <trkpt lat="47.9268" lon="7.22163">
        <ele>446.67</ele>
        <time>2016-05-02T13:21:04Z</time>
      </trkpt>
      <trkpt lat="47.92677" lon="7.22177">
        <ele>446.19</ele>
        <time>2016-05-02T13:21:10Z</time>
      </trkpt>
      <trkpt lat="47.92676" lon="7.22185">
        <ele>447.63</ele>
        <time>2016-05-02T13:21:15Z</time>
      </trkpt>
      <trkpt lat="47.92675" lon="7.22201">
        <ele>444.75</ele>
        <time>2016-05-02T13:21:21Z</time>
      </trkpt>
      <trkpt lat="47.92678" lon="7.22208">
        <ele>443.79</ele>
        <time>2016-05-02T13:21:23Z</time>
      </trkpt>
      <trkpt lat="47.92685" lon="7.22239">
        <ele>440.9</ele>
        <time>2016-05-02T13:21:36Z</time>
      </trkpt>
      <trkpt lat="47.92688" lon="7.22267">
        <ele>438.98</ele>
        <time>2016-05-02T13:21:52Z</time>
      </trkpt>
      <trkpt lat="47.92688" lon="7.2227">
        <ele>438.5</ele>
        <time>2016-05-02T13:21:54Z</time>
      </trkpt>
      <trkpt lat="47.92689" lon="7.22297">
        <ele>436.1</ele>
        <time>2016-05-02T13:22:09Z</time>
      </trkpt>
      <trkpt lat="47.92688" lon="7.22302">
        <ele>432.73</ele>
        <time>2016-05-02T13:22:14Z</time>
      </trkpt>
      <trkpt lat="47.92688" lon="7.22317">
        <ele>429.37</ele>
        <time>2016-05-02T13:22:25Z</time>
      </trkpt>
      <trkpt lat="47.92687" lon="7.22319">
        <ele>433.21</ele>
        <time>2016-05-02T13:22:26Z</time>
      </trkpt>
      <trkpt lat="47.92687" lon="7.22323">
        <ele>437.06</ele>
        <time>2016-05-02T13:22:29Z</time>
      </trkpt>
      <trkpt lat="47.92686" lon="7.22325">
        <ele>432.73</ele>
        <time>2016-05-02T13:22:31Z</time>
      </trkpt>
      <trkpt lat="47.92684" lon="7.22333">
        <ele>431.29</ele>
        <time>2016-05-02T13:22:37Z</time>
      </trkpt>
      <trkpt lat="47.92684" lon="7.22333">
        <ele>427.44</ele>
        <time>2016-05-02T13:22:41Z</time>
      </trkpt>
      <trkpt lat="47.92684" lon="7.22333">
        <ele>432.73</ele>
        <time>2016-05-02T13:22:42Z</time>
      </trkpt>
      <trkpt lat="47.92684" lon="7.22334">
        <ele>434.17</ele>
        <time>2016-05-02T13:22:44Z</time>
      </trkpt>
      <trkpt lat="47.92684" lon="7.22341">
        <ele>429.85</ele>
        <time>2016-05-02T13:22:48Z</time>
      </trkpt>
      <trkpt lat="47.92684" lon="7.22343">
        <ele>430.33</ele>
        <time>2016-05-02T13:22:49Z</time>
      </trkpt>
      <trkpt lat="47.92686" lon="7.22352">
        <ele>431.77</ele>
        <time>2016-05-02T13:22:54Z</time>
      </trkpt>
      <trkpt lat="47.92685" lon="7.2236">
        <ele>428.89</ele>
        <time>2016-05-02T13:23:00Z</time>
      </trkpt>
      <trkpt lat="47.92684" lon="7.22367">
        <ele>430.81</ele>
        <time>2016-05-02T13:23:04Z</time>
      </trkpt>
      <trkpt lat="47.92683" lon="7.22377">
        <ele>427.44</ele>
        <time>2016-05-02T13:23:10Z</time>
      </trkpt>
      <trkpt lat="47.92683" lon="7.22378">
        <ele>427.92</ele>
        <time>2016-05-02T13:23:11Z</time>
      </trkpt>
      <trkpt lat="47.92679" lon="7.22411">
        <ele>424.56</ele>
        <time>2016-05-02T13:23:28Z</time>
      </trkpt>
      <trkpt lat="47.92686" lon="7.2244">
        <ele>420.71</ele>
        <time>2016-05-02T13:23:40Z</time>
      </trkpt>
      <trkpt lat="47.92685" lon="7.22468">
        <ele>419.75</ele>
        <time>2016-05-02T13:23:56Z</time>
      </trkpt>
      <trkpt lat="47.92684" lon="7.22489">
        <ele>417.83</ele>
        <time>2016-05-02T13:24:10Z</time>
      </trkpt>
      <trkpt lat="47.92678" lon="7.22513">
        <ele>416.39</ele>
        <time>2016-05-02T13:24:25Z</time>
      </trkpt>
      <trkpt lat="47.92672" lon="7.22525">
        <ele>413.98</ele>
        <time>2016-05-02T13:24:33Z</time>
      </trkpt>
      <trkpt lat="47.92668" lon="7.22529">
        <ele>416.87</ele>
        <time>2016-05-02T13:24:37Z</time>
      </trkpt>
      <trkpt lat="47.92665" lon="7.22532">
        <ele>413.02</ele>
        <time>2016-05-02T13:24:40Z</time>
      </trkpt>
      <trkpt lat="47.92664" lon="7.22534">
        <ele>412.54</ele>
        <time>2016-05-02T13:24:42Z</time>
      </trkpt>
      <trkpt lat="47.92663" lon="7.22537">
        <ele>409.66</ele>
        <time>2016-05-02T13:24:44Z</time>
      </trkpt>
      <trkpt lat="47.92662" lon="7.2254">
        <ele>411.58</ele>
        <time>2016-05-02T13:24:46Z</time>
      </trkpt>
      <trkpt lat="47.9266" lon="7.2254">
        <ele>414.47</ele>
        <time>2016-05-02T13:24:48Z</time>
      </trkpt>
      <trkpt lat="47.92658" lon="7.22542">
        <ele>411.1</ele>
        <time>2016-05-02T13:24:50Z</time>
      </trkpt>
      <trkpt lat="47.92656" lon="7.22544">
        <ele>410.14</ele>
        <time>2016-05-02T13:24:52Z</time>
      </trkpt>
      <trkpt lat="47.92655" lon="7.22545">
        <ele>409.18</ele>
        <time>2016-05-02T13:24:53Z</time>
      </trkpt>
      <trkpt lat="47.92646" lon="7.22556">
        <ele>410.62</ele>
        <time>2016-05-02T13:25:04Z</time>
      </trkpt>
      <trkpt lat="47.92641" lon="7.22558">
        <ele>405.81</ele>
        <time>2016-05-02T13:25:17Z</time>
      </trkpt>
      <trkpt lat="47.92641" lon="7.22558">
        <ele>407.26</ele>
        <time>2016-05-02T13:25:18Z</time>
      </trkpt>
      <trkpt lat="47.92634" lon="7.22572">
        <ele>405.33</ele>
        <time>2016-05-02T13:25:28Z</time>
      </trkpt>
      <trkpt lat="47.92633" lon="7.2258">
        <ele>409.18</ele>
        <time>2016-05-02T13:25:32Z</time>
      </trkpt>
      <trkpt lat="47.92633" lon="7.22582">
        <ele>409.18</ele>
        <time>2016-05-02T13:25:33Z</time>
      </trkpt>
      <trkpt lat="47.92632" lon="7.22583">
        <ele>407.26</ele>
        <time>2016-05-02T13:25:35Z</time>
      </trkpt>
      <trkpt lat="47.9263" lon="7.22588">
        <ele>404.37</ele>
        <time>2016-05-02T13:25:39Z</time>
      </trkpt>
      <trkpt lat="47.92628" lon="7.2259">
        <ele>403.41</ele>
        <time>2016-05-02T13:25:41Z</time>
      </trkpt>
      <trkpt lat="47.92626" lon="7.22594">
        <ele>404.37</ele>
        <time>2016-05-02T13:25:44Z</time>
      </trkpt>
      <trkpt lat="47.92623" lon="7.22601">
        <ele>398.6</ele>
        <time>2016-05-02T13:25:49Z</time>
      </trkpt>
      <trkpt lat="47.92623" lon="7.22603">
        <ele>398.6</ele>
        <time>2016-05-02T13:25:50Z</time>
      </trkpt>
      <trkpt lat="47.92622" lon="7.2261">
        <ele>404.85</ele>
        <time>2016-05-02T13:25:55Z</time>
      </trkpt>
      <trkpt lat="47.92621" lon="7.22615">
        <ele>401.49</ele>
        <time>2016-05-02T13:25:59Z</time>
      </trkpt>
      <trkpt lat="47.92616" lon="7.22623">
        <ele>403.41</ele>
        <time>2016-05-02T13:26:04Z</time>
      </trkpt>
      <trkpt lat="47.92614" lon="7.22634">
        <ele>397.64</ele>
        <time>2016-05-02T13:26:11Z</time>
      </trkpt>
      <trkpt lat="47.92613" lon="7.22639">
        <ele>394.28</ele>
        <time>2016-05-02T13:26:14Z</time>
      </trkpt>
      <trkpt lat="47.92612" lon="7.22643">
        <ele>400.53</ele>
        <time>2016-05-02T13:26:17Z</time>
      </trkpt>
      <trkpt lat="47.92611" lon="7.22645">
        <ele>400.53</ele>
        <time>2016-05-02T13:26:18Z</time>
      </trkpt>
      <trkpt lat="47.92611" lon="7.2265">
        <ele>403.41</ele>
        <time>2016-05-02T13:26:21Z</time>
      </trkpt>
      <trkpt lat="47.92611" lon="7.22654">
        <ele>400.05</ele>
        <time>2016-05-02T13:26:24Z</time>
      </trkpt>
      <trkpt lat="47.92611" lon="7.22658">
        <ele>394.28</ele>
        <time>2016-05-02T13:26:27Z</time>
      </trkpt>
      <trkpt lat="47.92611" lon="7.2266">
        <ele>395.72</ele>
        <time>2016-05-02T13:26:28Z</time>
      </trkpt>
      <trkpt lat="47.92612" lon="7.22662">
        <ele>399.57</ele>
        <time>2016-05-02T13:26:29Z</time>
      </trkpt>
      <trkpt lat="47.92612" lon="7.22664">
        <ele>399.57</ele>
        <time>2016-05-02T13:26:30Z</time>
      </trkpt>
      <trkpt lat="47.92612" lon="7.22667">
        <ele>397.64</ele>
        <time>2016-05-02T13:26:32Z</time>
      </trkpt>
      <trkpt lat="47.92611" lon="7.22675">
        <ele>397.64</ele>
        <time>2016-05-02T13:26:36Z</time>
      </trkpt>
      <trkpt lat="47.92609" lon="7.2268">
        <ele>391.87</ele>
        <time>2016-05-02T13:26:39Z</time>
      </trkpt>
      <trkpt lat="47.92608" lon="7.22687">
        <ele>397.16</ele>
        <time>2016-05-02T13:26:43Z</time>
      </trkpt>
      <trkpt lat="47.92608" lon="7.22691">
        <ele>392.84</ele>
        <time>2016-05-02T13:26:46Z</time>
      </trkpt>
      <trkpt lat="47.92609" lon="7.22694">
        <ele>391.39</ele>
        <time>2016-05-02T13:26:48Z</time>
      </trkpt>
      <trkpt lat="47.92609" lon="7.22696">
        <ele>397.64</ele>
        <time>2016-05-02T13:26:50Z</time>
      </trkpt>
      <trkpt lat="47.92609" lon="7.22697">
        <ele>396.68</ele>
        <time>2016-05-02T13:26:51Z</time>
      </trkpt>
      <trkpt lat="47.92608" lon="7.22699">
        <ele>394.76</ele>
        <time>2016-05-02T13:26:53Z</time>
      </trkpt>
      <trkpt lat="47.92605" lon="7.22725">
        <ele>391.39</ele>
        <time>2016-05-02T13:27:06Z</time>
      </trkpt>
      <trkpt lat="47.92599" lon="7.22754">
        <ele>388.99</ele>
        <time>2016-05-02T13:27:21Z</time>
      </trkpt>
      <trkpt lat="47.92596" lon="7.22763">
        <ele>387.55</ele>
        <time>2016-05-02T13:27:28Z</time>
      </trkpt>
      <trkpt lat="47.92588" lon="7.22781">
        <ele>387.07</ele>
        <time>2016-05-02T13:27:45Z</time>
      </trkpt>
      <trkpt lat="47.92587" lon="7.22781">
        <ele>387.55</ele>
        <time>2016-05-02T13:28:29Z</time>
      </trkpt>
      <trkpt lat="47.92587" lon="7.22781">
        <ele>386.11</ele>
        <time>2016-05-02T13:28:31Z</time>
      </trkpt>
      <trkpt lat="47.92581" lon="7.22785">
        <ele>384.66</ele>
        <time>2016-05-02T13:28:41Z</time>
      </trkpt>
      <trkpt lat="47.92579" lon="7.22786">
        <ele>387.55</ele>
        <time>2016-05-02T13:28:43Z</time>
      </trkpt>
      <trkpt lat="47.92576" lon="7.22789">
        <ele>384.66</ele>
        <time>2016-05-02T13:28:48Z</time>
      </trkpt>
      <trkpt lat="47.92563" lon="7.22796">
        <ele>381.3</ele>
        <time>2016-05-02T13:28:59Z</time>
      </trkpt>
      <trkpt lat="47.92562" lon="7.22797">
        <ele>381.3</ele>
        <time>2016-05-02T13:29:00Z</time>
      </trkpt>
      <trkpt lat="47.92558" lon="7.22797">
        <ele>384.66</ele>
        <time>2016-05-02T13:29:03Z</time>
      </trkpt>
      <trkpt lat="47.92543" lon="7.22802">
        <ele>379.38</ele>
        <time>2016-05-02T13:29:14Z</time>
      </trkpt>
      <trkpt lat="47.92542" lon="7.22804">
        <ele>379.38</ele>
        <time>2016-05-02T13:29:15Z</time>
      </trkpt>
      <trkpt lat="47.92539" lon="7.22806">
        <ele>377.94</ele>
        <time>2016-05-02T13:29:17Z</time>
      </trkpt>
      <trkpt lat="47.92535" lon="7.22809">
        <ele>381.3</ele>
        <time>2016-05-02T13:29:20Z</time>
      </trkpt>
      <trkpt lat="47.92533" lon="7.22811">
        <ele>383.22</ele>
        <time>2016-05-02T13:29:23Z</time>
      </trkpt>
      <trkpt lat="47.92531" lon="7.22813">
        <ele>381.3</ele>
        <time>2016-05-02T13:29:25Z</time>
      </trkpt>
      <trkpt lat="47.92525" lon="7.22818">
        <ele>382.74</ele>
        <time>2016-05-02T13:29:32Z</time>
      </trkpt>
      <trkpt lat="47.92521" lon="7.22819">
        <ele>379.38</ele>
        <time>2016-05-02T13:29:34Z</time>
      </trkpt>
      <trkpt lat="47.92519" lon="7.22821">
        <ele>382.74</ele>
        <time>2016-05-02T13:29:35Z</time>
      </trkpt>
      <trkpt lat="47.92515" lon="7.22822">
        <ele>379.38</ele>
        <time>2016-05-02T13:29:37Z</time>
      </trkpt>
      <trkpt lat="47.92509" lon="7.22825">
        <ele>376.49</ele>
        <time>2016-05-02T13:29:41Z</time>
      </trkpt>
      <trkpt lat="47.92505" lon="7.22827">
        <ele>380.82</ele>
        <time>2016-05-02T13:29:46Z</time>
      </trkpt>
      <trkpt lat="47.92496" lon="7.22831">
        <ele>378.9</ele>
        <time>2016-05-02T13:29:52Z</time>
      </trkpt>
      <trkpt lat="47.9249" lon="7.22837">
        <ele>377.45</ele>
        <time>2016-05-02T13:29:56Z</time>
      </trkpt>
      <trkpt lat="47.92487" lon="7.2284">
        <ele>381.3</ele>
        <time>2016-05-02T13:29:58Z</time>
      </trkpt>
      <trkpt lat="47.92483" lon="7.22866">
        <ele>378.9</ele>
        <time>2016-05-02T13:30:10Z</time>
      </trkpt>
      <trkpt lat="47.92472" lon="7.22881">
        <ele>377.94</ele>
        <time>2016-05-02T13:30:22Z</time>
      </trkpt>
      <trkpt lat="47.9246" lon="7.22898">
        <ele>376.97</ele>
        <time>2016-05-02T13:30:35Z</time>
      </trkpt>
      <trkpt lat="47.92443" lon="7.22915">
        <ele>375.05</ele>
        <time>2016-05-02T13:30:51Z</time>
      </trkpt>
      <trkpt lat="47.92432" lon="7.22934">
        <ele>374.09</ele>
        <time>2016-05-02T13:31:04Z</time>
      </trkpt>
      <trkpt lat="47.92419" lon="7.22953">
        <ele>373.13</ele>
        <time>2016-05-02T13:31:19Z</time>
      </trkpt>
      <trkpt lat="47.92404" lon="7.22971">
        <ele>372.17</ele>
        <time>2016-05-02T13:31:34Z</time>
      </trkpt>
      <trkpt lat="47.92387" lon="7.2299">
        <ele>370.24</ele>
        <time>2016-05-02T13:31:50Z</time>
      </trkpt>
      <trkpt lat="47.92375" lon="7.22999">
        <ele>369.28</ele>
        <time>2016-05-02T13:32:02Z</time>
      </trkpt>
      <trkpt lat="47.92365" lon="7.23008">
        <ele>367.36</ele>
        <time>2016-05-02T13:32:15Z</time>
      </trkpt>
      <trkpt lat="47.92351" lon="7.2302">
        <ele>365.44</ele>
        <time>2016-05-02T13:32:27Z</time>
      </trkpt>
      <trkpt lat="47.92335" lon="7.23036">
        <ele>363.04</ele>
        <time>2016-05-02T13:32:43Z</time>
      </trkpt>
      <trkpt lat="47.92334" lon="7.23037">
        <ele>363.04</ele>
        <time>2016-05-02T13:32:44Z</time>
      </trkpt>
      <trkpt lat="47.92333" lon="7.23038">
        <ele>362.55</ele>
        <time>2016-05-02T13:32:45Z</time>
      </trkpt>
      <trkpt lat="47.92321" lon="7.23051">
        <ele>360.63</ele>
        <time>2016-05-02T13:32:56Z</time>
      </trkpt>
      <trkpt lat="47.92307" lon="7.23069">
        <ele>359.19</ele>
        <time>2016-05-02T13:33:10Z</time>
      </trkpt>
      <trkpt lat="47.92292" lon="7.23084">
        <ele>357.27</ele>
        <time>2016-05-02T13:33:26Z</time>
      </trkpt>
      <trkpt lat="47.92273" lon="7.23101">
        <ele>354.38</ele>
        <time>2016-05-02T13:33:42Z</time>
      </trkpt>
      <trkpt lat="47.92258" lon="7.23114">
        <ele>353.42</ele>
        <time>2016-05-02T13:33:56Z</time>
      </trkpt>
      <trkpt lat="47.9224" lon="7.23128">
        <ele>351.5</ele>
        <time>2016-05-02T13:34:12Z</time>
      </trkpt>
      <trkpt lat="47.92232" lon="7.23143">
        <ele>351.02</ele>
        <time>2016-05-02T13:34:27Z</time>
      </trkpt>
      <trkpt lat="47.92227" lon="7.23149">
        <ele>350.06</ele>
        <time>2016-05-02T13:34:43Z</time>
      </trkpt>
      <trkpt lat="47.9222" lon="7.23151">
        <ele>349.58</ele>
        <time>2016-05-02T13:34:48Z</time>
      </trkpt>
      <trkpt lat="47.92206" lon="7.23161">
        <ele>348.62</ele>
        <time>2016-05-02T13:35:01Z</time>
      </trkpt>
      <trkpt lat="47.92193" lon="7.23172">
        <ele>348.13</ele>
        <time>2016-05-02T13:35:16Z</time>
      </trkpt>
      <trkpt lat="47.92181" lon="7.23185">
        <ele>346.21</ele>
        <time>2016-05-02T13:35:28Z</time>
      </trkpt>
      <trkpt lat="47.92171" lon="7.23192">
        <ele>345.25</ele>
        <time>2016-05-02T13:35:43Z</time>
      </trkpt>
      <trkpt lat="47.92155" lon="7.23204">
        <ele>343.33</ele>
        <time>2016-05-02T13:35:56Z</time>
      </trkpt>
      <trkpt lat="47.92134" lon="7.23215">
        <ele>341.41</ele>
        <time>2016-05-02T13:36:11Z</time>
      </trkpt>
      <trkpt lat="47.92126" lon="7.23222">
        <ele>339.96</ele>
        <time>2016-05-02T13:36:18Z</time>
      </trkpt>
      <trkpt lat="47.92106" lon="7.23236">
        <ele>338.04</ele>
        <time>2016-05-02T13:36:35Z</time>
      </trkpt>
      <trkpt lat="47.92091" lon="7.23245">
        <ele>336.6</ele>
        <time>2016-05-02T13:36:47Z</time>
      </trkpt>
      <trkpt lat="47.9209" lon="7.23245">
        <ele>336.6</ele>
        <time>2016-05-02T13:36:48Z</time>
      </trkpt>
      <trkpt lat="47.92069" lon="7.23253">
        <ele>333.23</ele>
        <time>2016-05-02T13:37:06Z</time>
      </trkpt>
      <trkpt lat="47.92063" lon="7.23258">
        <ele>332.75</ele>
        <time>2016-05-02T13:37:14Z</time>
      </trkpt>
      <trkpt lat="47.92051" lon="7.23273">
        <ele>331.31</ele>
        <time>2016-05-02T13:37:24Z</time>
      </trkpt>
      <trkpt lat="47.92038" lon="7.23295">
        <ele>329.87</ele>
        <time>2016-05-02T13:37:38Z</time>
      </trkpt>
      <trkpt lat="47.92034" lon="7.23308">
        <ele>327.95</ele>
        <time>2016-05-02T13:37:46Z</time>
      </trkpt>
      <trkpt lat="47.92045" lon="7.23322">
        <ele>326.02</ele>
        <time>2016-05-02T13:37:58Z</time>
      </trkpt>
      <trkpt lat="47.92051" lon="7.23329">
        <ele>325.06</ele>
        <time>2016-05-02T13:38:05Z</time>
      </trkpt>
      <trkpt lat="47.92065" lon="7.23333">
        <ele>323.62</ele>
        <time>2016-05-02T13:38:20Z</time>
      </trkpt>
      <trkpt lat="47.92079" lon="7.23338">
        <ele>321.7</ele>
        <time>2016-05-02T13:38:34Z</time>
      </trkpt>
      <trkpt lat="47.92085" lon="7.23342">
        <ele>321.22</ele>
        <time>2016-05-02T13:38:41Z</time>
      </trkpt>
      <trkpt lat="47.92099" lon="7.23352">
        <ele>319.3</ele>
        <time>2016-05-02T13:38:54Z</time>
      </trkpt>
      <trkpt lat="47.92101" lon="7.23367">
        <ele>317.37</ele>
        <time>2016-05-02T13:39:03Z</time>
      </trkpt>
      <trkpt lat="47.92101" lon="7.23372">
        <ele>316.89</ele>
        <time>2016-05-02T13:39:06Z</time>
      </trkpt>
      <trkpt lat="47.92102" lon="7.23378">
        <ele>316.41</ele>
        <time>2016-05-02T13:39:24Z</time>
      </trkpt>
      <trkpt lat="47.92101" lon="7.23385">
        <ele>315.93</ele>
        <time>2016-05-02T13:39:29Z</time>
      </trkpt>
      <trkpt lat="47.921" lon="7.23398">
        <ele>314.49</ele>
        <time>2016-05-02T13:39:37Z</time>
      </trkpt>
      <trkpt lat="47.921" lon="7.2343">
        <ele>311.6</ele>
        <time>2016-05-02T13:39:56Z</time>
      </trkpt>
      <trkpt lat="47.92099" lon="7.23453">
        <ele>306.32</ele>
        <time>2016-05-02T13:40:13Z</time>
      </trkpt>
      <trkpt lat="47.92098" lon="7.23473">
        <ele>307.28</ele>
        <time>2016-05-02T13:40:29Z</time>
      </trkpt>
      <trkpt lat="47.92099" lon="7.23476">
        <ele>306.32</ele>
        <time>2016-05-02T13:40:32Z</time>
      </trkpt>
      <trkpt lat="47.921" lon="7.23493">
        <ele>304.39</ele>
        <time>2016-05-02T13:40:48Z</time>
      </trkpt>
      <trkpt lat="47.92102" lon="7.23518">
        <ele>302.95</ele>
        <time>2016-05-02T13:41:05Z</time>
      </trkpt>
      <trkpt lat="47.92104" lon="7.23522">
        <ele>302.47</ele>
        <time>2016-05-02T13:41:34Z</time>
      </trkpt>
      <trkpt lat="47.92119" lon="7.23537">
        <ele>303.43</ele>
        <time>2016-05-02T13:41:49Z</time>
      </trkpt>
      <trkpt lat="47.9212" lon="7.23537">
        <ele>302.95</ele>
        <time>2016-05-02T13:41:51Z</time>
      </trkpt>
      <trkpt lat="47.92127" lon="7.23539">
        <ele>303.43</ele>
        <time>2016-05-02T13:41:58Z</time>
      </trkpt>
      <trkpt lat="47.9213" lon="7.23537">
        <ele>303.43</ele>
        <time>2016-05-02T13:42:01Z</time>
      </trkpt>
      <trkpt lat="47.92146" lon="7.2354">
        <ele>303.91</ele>
        <time>2016-05-02T13:42:15Z</time>
      </trkpt>
      <trkpt lat="47.92156" lon="7.23541">
        <ele>303.91</ele>
        <time>2016-05-02T13:42:26Z</time>
      </trkpt>
      <trkpt lat="47.92163" lon="7.23546">
        <ele>303.91</ele>
        <time>2016-05-02T13:42:33Z</time>
      </trkpt>
      <trkpt lat="47.92169" lon="7.23547">
        <ele>303.91</ele>
        <time>2016-05-02T13:42:37Z</time>
      </trkpt>
      <trkpt lat="47.92176" lon="7.23552">
        <ele>303.91</ele>
        <time>2016-05-02T13:42:45Z</time>
      </trkpt>
      <trkpt lat="47.92181" lon="7.23552">
        <ele>304.88</ele>
        <time>2016-05-02T13:42:49Z</time>
      </trkpt>
      <trkpt lat="47.92186" lon="7.23554">
        <ele>302.47</ele>
        <time>2016-05-02T13:42:54Z</time>
      </trkpt>
      <trkpt lat="47.9219" lon="7.23557">
        <ele>304.39</ele>
        <time>2016-05-02T13:42:59Z</time>
      </trkpt>
      <trkpt lat="47.92192" lon="7.2356">
        <ele>302.95</ele>
        <time>2016-05-02T13:43:24Z</time>
      </trkpt>
      <trkpt lat="47.92195" lon="7.23559">
        <ele>301.51</ele>
        <time>2016-05-02T13:55:47Z</time>
      </trkpt>
      <trkpt lat="47.92199" lon="7.23559">
        <ele>301.99</ele>
        <time>2016-05-02T13:55:53Z</time>
      </trkpt>
      <trkpt lat="47.92216" lon="7.23565">
        <ele>301.03</ele>
        <time>2016-05-02T13:56:09Z</time>
      </trkpt>
      <trkpt lat="47.92219" lon="7.23565">
        <ele>304.88</ele>
        <time>2016-05-02T13:56:12Z</time>
      </trkpt>
      <trkpt lat="47.92224" lon="7.23565">
        <ele>302.47</ele>
        <time>2016-05-02T13:56:15Z</time>
      </trkpt>
      <trkpt lat="47.92227" lon="7.23566">
        <ele>301.99</ele>
        <time>2016-05-02T13:56:18Z</time>
      </trkpt>
      <trkpt lat="47.92232" lon="7.23567">
        <ele>300.07</ele>
        <time>2016-05-02T13:56:22Z</time>
      </trkpt>
      <trkpt lat="47.92235" lon="7.23568">
        <ele>304.88</ele>
        <time>2016-05-02T13:56:25Z</time>
      </trkpt>
      <trkpt lat="47.92236" lon="7.23569">
        <ele>304.39</ele>
        <time>2016-05-02T13:56:26Z</time>
      </trkpt>
      <trkpt lat="47.92244" lon="7.23572">
        <ele>300.07</ele>
        <time>2016-05-02T13:56:33Z</time>
      </trkpt>
      <trkpt lat="47.92252" lon="7.23573">
        <ele>298.15</ele>
        <time>2016-05-02T13:56:39Z</time>
      </trkpt>
      <trkpt lat="47.92257" lon="7.23576">
        <ele>303.43</ele>
        <time>2016-05-02T13:56:43Z</time>
      </trkpt>
      <trkpt lat="47.92258" lon="7.23575">
        <ele>303.43</ele>
        <time>2016-05-02T13:56:44Z</time>
      </trkpt>
      <trkpt lat="47.92266" lon="7.23577">
        <ele>302.95</ele>
        <time>2016-05-02T13:56:50Z</time>
      </trkpt>
      <trkpt lat="47.92272" lon="7.23581">
        <ele>299.59</ele>
        <time>2016-05-02T13:56:55Z</time>
      </trkpt>
      <trkpt lat="47.92273" lon="7.23581">
        <ele>297.18</ele>
        <time>2016-05-02T13:56:56Z</time>
      </trkpt>
      <trkpt lat="47.92277" lon="7.23582">
        <ele>301.03</ele>
        <time>2016-05-02T13:56:59Z</time>
      </trkpt>
      <trkpt lat="47.92278" lon="7.23581">
        <ele>301.03</ele>
        <time>2016-05-02T13:57:00Z</time>
      </trkpt>
      <trkpt lat="47.9228" lon="7.23581">
        <ele>301.99</ele>
        <time>2016-05-02T13:57:02Z</time>
      </trkpt>
      <trkpt lat="47.92283" lon="7.23582">
        <ele>298.63</ele>
        <time>2016-05-02T13:57:05Z</time>
      </trkpt>
      <trkpt lat="47.92288" lon="7.23582">
        <ele>301.51</ele>
        <time>2016-05-02T13:57:09Z</time>
      </trkpt>
      <trkpt lat="47.92297" lon="7.23582">
        <ele>300.07</ele>
        <time>2016-05-02T13:57:15Z</time>
      </trkpt>
      <trkpt lat="47.92298" lon="7.23582">
        <ele>296.22</ele>
        <time>2016-05-02T13:57:16Z</time>
      </trkpt>
      <trkpt lat="47.92298" lon="7.23582">
        <ele>297.67</ele>
        <time>2016-05-02T13:57:17Z</time>
      </trkpt>
      <trkpt lat="47.92303" lon="7.23584">
        <ele>296.7</ele>
        <time>2016-05-02T13:57:22Z</time>
      </trkpt>
      <trkpt lat="47.92311" lon="7.23586">
        <ele>297.67</ele>
        <time>2016-05-02T13:57:28Z</time>
      </trkpt>
      <trkpt lat="47.92315" lon="7.23588">
        <ele>298.15</ele>
        <time>2016-05-02T13:57:31Z</time>
      </trkpt>
      <trkpt lat="47.92319" lon="7.23588">
        <ele>294.78</ele>
        <time>2016-05-02T13:57:34Z</time>
      </trkpt>
      <trkpt lat="47.92327" lon="7.23589">
        <ele>298.63</ele>
        <time>2016-05-02T13:57:41Z</time>
      </trkpt>
      <trkpt lat="47.92333" lon="7.2359">
        <ele>296.7</ele>
        <time>2016-05-02T13:57:45Z</time>
      </trkpt>
      <trkpt lat="47.92335" lon="7.2359">
        <ele>297.18</ele>
        <time>2016-05-02T13:57:47Z</time>
      </trkpt>
      <trkpt lat="47.92339" lon="7.23592">
        <ele>299.59</ele>
        <time>2016-05-02T13:57:50Z</time>
      </trkpt>
      <trkpt lat="47.92346" lon="7.23593">
        <ele>300.07</ele>
        <time>2016-05-02T13:57:55Z</time>
      </trkpt>
      <trkpt lat="47.92349" lon="7.23594">
        <ele>296.7</ele>
        <time>2016-05-02T13:57:58Z</time>
      </trkpt>
      <trkpt lat="47.92351" lon="7.23595">
        <ele>297.18</ele>
        <time>2016-05-02T13:57:59Z</time>
      </trkpt>
      <trkpt lat="47.92361" lon="7.23594">
        <ele>297.18</ele>
        <time>2016-05-02T13:58:06Z</time>
      </trkpt>
      <trkpt lat="47.92376" lon="7.23593">
        <ele>295.26</ele>
        <time>2016-05-02T13:58:17Z</time>
      </trkpt>
      <trkpt lat="47.92403" lon="7.23589">
        <ele>295.74</ele>
        <time>2016-05-02T13:58:36Z</time>
      </trkpt>
      <trkpt lat="47.92407" lon="7.23589">
        <ele>291.9</ele>
        <time>2016-05-02T13:58:39Z</time>
      </trkpt>
      <trkpt lat="47.92408" lon="7.2359">
        <ele>291.9</ele>
        <time>2016-05-02T13:58:40Z</time>
      </trkpt>
      <trkpt lat="47.92413" lon="7.2359">
        <ele>295.26</ele>
        <time>2016-05-02T13:58:44Z</time>
      </trkpt>
      <trkpt lat="47.92414" lon="7.23591">
        <ele>293.82</ele>
        <time>2016-05-02T13:58:45Z</time>
      </trkpt>
      <trkpt lat="47.92417" lon="7.23591">
        <ele>297.18</ele>
        <time>2016-05-02T13:58:47Z</time>
      </trkpt>
      <trkpt lat="47.92418" lon="7.23591">
        <ele>293.34</ele>
        <time>2016-05-02T13:58:48Z</time>
      </trkpt>
      <trkpt lat="47.92425" lon="7.23589">
        <ele>292.38</ele>
        <time>2016-05-02T13:58:53Z</time>
      </trkpt>
      <trkpt lat="47.92431" lon="7.23589">
        <ele>295.26</ele>
        <time>2016-05-02T13:58:58Z</time>
      </trkpt>
      <trkpt lat="47.92435" lon="7.23588">
        <ele>293.34</ele>
        <time>2016-05-02T13:59:01Z</time>
      </trkpt>
      <trkpt lat="47.92452" lon="7.23588">
        <ele>291.42</ele>
        <time>2016-05-02T13:59:14Z</time>
      </trkpt>
      <trkpt lat="47.92458" lon="7.23588">
        <ele>293.82</ele>
        <time>2016-05-02T13:59:18Z</time>
      </trkpt>
      <trkpt lat="47.92466" lon="7.23586">
        <ele>291.9</ele>
        <time>2016-05-02T13:59:23Z</time>
      </trkpt>
      <trkpt lat="47.92471" lon="7.23586">
        <ele>293.34</ele>
        <time>2016-05-02T13:59:27Z</time>
      </trkpt>
      <trkpt lat="47.92488" lon="7.23585">
        <ele>289.97</ele>
        <time>2016-05-02T13:59:39Z</time>
      </trkpt>
      <trkpt lat="47.92491" lon="7.23585">
        <ele>287.57</ele>
        <time>2016-05-02T13:59:41Z</time>
      </trkpt>
      <trkpt lat="47.92496" lon="7.23585">
        <ele>292.38</ele>
        <time>2016-05-02T13:59:45Z</time>
      </trkpt>
      <trkpt lat="47.92502" lon="7.23585">
        <ele>287.57</ele>
        <time>2016-05-02T13:59:50Z</time>
      </trkpt>
      <trkpt lat="47.92505" lon="7.23585">
        <ele>284.69</ele>
        <time>2016-05-02T13:59:52Z</time>
      </trkpt>
      <trkpt lat="47.92506" lon="7.23586">
        <ele>284.69</ele>
        <time>2016-05-02T13:59:53Z</time>
      </trkpt>
      <trkpt lat="47.9251" lon="7.23585">
        <ele>289.49</ele>
        <time>2016-05-02T13:59:56Z</time>
      </trkpt>
      <trkpt lat="47.92512" lon="7.23585">
        <ele>289.49</ele>
        <time>2016-05-02T13:59:57Z</time>
      </trkpt>
      <trkpt lat="47.92516" lon="7.23585">
        <ele>282.28</ele>
        <time>2016-05-02T14:00:00Z</time>
      </trkpt>
      <trkpt lat="47.92517" lon="7.23585">
        <ele>282.77</ele>
        <time>2016-05-02T14:00:01Z</time>
      </trkpt>
      <trkpt lat="47.92524" lon="7.23585">
        <ele>286.61</ele>
        <time>2016-05-02T14:00:07Z</time>
      </trkpt>
      <trkpt lat="47.92533" lon="7.23583">
        <ele>285.17</ele>
        <time>2016-05-02T14:00:13Z</time>
      </trkpt>
      <trkpt lat="47.92538" lon="7.23581">
        <ele>289.01</ele>
        <time>2016-05-02T14:00:17Z</time>
      </trkpt>
      <trkpt lat="47.92545" lon="7.23579">
        <ele>285.65</ele>
        <time>2016-05-02T14:00:23Z</time>
      </trkpt>
      <trkpt lat="47.92548" lon="7.23578">
        <ele>284.69</ele>
        <time>2016-05-02T14:00:25Z</time>
      </trkpt>
      <trkpt lat="47.9255" lon="7.23577">
        <ele>281.32</ele>
        <time>2016-05-02T14:00:27Z</time>
      </trkpt>
      <trkpt lat="47.92552" lon="7.23577">
        <ele>285.65</ele>
        <time>2016-05-02T14:00:28Z</time>
      </trkpt>
      <trkpt lat="47.92553" lon="7.23577">
        <ele>285.65</ele>
        <time>2016-05-02T14:00:29Z</time>
      </trkpt>
      <trkpt lat="47.92559" lon="7.23574">
        <ele>279.88</ele>
        <time>2016-05-02T14:00:34Z</time>
      </trkpt>
      <trkpt lat="47.92562" lon="7.23573">
        <ele>278.44</ele>
        <time>2016-05-02T14:00:36Z</time>
      </trkpt>
      <trkpt lat="47.92566" lon="7.23571">
        <ele>287.09</ele>
        <time>2016-05-02T14:00:39Z</time>
      </trkpt>
      <trkpt lat="47.92572" lon="7.23569">
        <ele>285.17</ele>
        <time>2016-05-02T14:00:43Z</time>
      </trkpt>
      <trkpt lat="47.92599" lon="7.2356">
        <ele>283.25</ele>
        <time>2016-05-02T14:01:03Z</time>
      </trkpt>
      <trkpt lat="47.92624" lon="7.23551">
        <ele>281.8</ele>
        <time>2016-05-02T14:01:23Z</time>
      </trkpt>
      <trkpt lat="47.92646" lon="7.23543">
        <ele>279.88</ele>
        <time>2016-05-02T14:01:39Z</time>
      </trkpt>
      <trkpt lat="47.9267" lon="7.23536">
        <ele>278.92</ele>
        <time>2016-05-02T14:01:58Z</time>
      </trkpt>
      <trkpt lat="47.92692" lon="7.23532">
        <ele>276.52</ele>
        <time>2016-05-02T14:02:16Z</time>
      </trkpt>
      <trkpt lat="47.9271" lon="7.23527">
        <ele>275.07</ele>
        <time>2016-05-02T14:02:31Z</time>
      </trkpt>
      <trkpt lat="47.92718" lon="7.23525">
        <ele>274.59</ele>
        <time>2016-05-02T14:02:37Z</time>
      </trkpt>
      <trkpt lat="47.92746" lon="7.23519">
        <ele>273.15</ele>
        <time>2016-05-02T14:02:58Z</time>
      </trkpt>
      <trkpt lat="47.9277" lon="7.23509">
        <ele>272.19</ele>
        <time>2016-05-02T14:03:16Z</time>
      </trkpt>
      <trkpt lat="47.92794" lon="7.23498">
        <ele>271.23</ele>
        <time>2016-05-02T14:03:35Z</time>
      </trkpt>
      <trkpt lat="47.92802" lon="7.23495">
        <ele>270.27</ele>
        <time>2016-05-02T14:03:42Z</time>
      </trkpt>
      <trkpt lat="47.92817" lon="7.23483">
        <ele>270.27</ele>
        <time>2016-05-02T14:03:56Z</time>
      </trkpt>
    </trkseg>
  </trk>
</gpx>